<?xml version='1.0' encoding='UTF-8'?><gpx version="1.1" creator="JPX - https://github.com/jenetics/jpx" xmlns="http://www.topografix.com/GPX/1/1"><trk><trkseg><trkpt lat="43.509039847623" lon="10.616195054186903"><ele>292.4</ele><time>2026-04-26T10:19:06.001Z</time></trkpt><trkpt lat="43.50905833509706" lon="10.616069260391255"><ele>292.79999999999995</ele><time>2026-04-26T10:19:08.001Z</time></trkpt><trkpt lat="43.50899296284297" lon="10.616009743754907"><ele>293.2</ele><time>2026-04-26T10:19:09.001Z</time></trkpt><trkpt lat="43.508933575521084" lon="10.615887936812735"><ele>293.59999999999997</ele><time>2026-04-26T10:19:11.001Z</time></trkpt><trkpt lat="43.50891798177057" lon="10.615774285970012"><ele>294.0</ele><time>2026-04-26T10:19:13.001Z</time></trkpt><trkpt lat="43.50890226476265" lon="10.615636545973853"><ele>294.0</ele><time>2026-04-26T10:19:22.001Z</time></trkpt><trkpt lat="43.50887599435373" lon="10.615547173258046"><ele>294.0</ele><time>2026-04-26T10:19:23.001Z</time></trkpt><trkpt lat="43.50886823427415" lon="10.61545808685982"><ele>294.0</ele><time>2026-04-26T10:19:24.001Z</time></trkpt><trkpt lat="43.50883113876407" lon="10.615346597345493"><ele>294.0</ele><time>2026-04-26T10:19:25.001Z</time></trkpt><trkpt lat="43.50879350415389" lon="10.615249499257258"><ele>294.0</ele><time>2026-04-26T10:19:26.001Z</time></trkpt><trkpt lat="43.5087517611811" lon="10.615160069728379"><ele>294.0</ele><time>2026-04-26T10:19:27.001Z</time></trkpt><trkpt lat="43.508707012394105" lon="10.615092515325024"><ele>294.0</ele><time>2026-04-26T10:19:28.001Z</time></trkpt><trkpt lat="43.508581268948035" lon="10.615065023549706"><ele>296.0</ele><time>2026-04-26T10:19:30.001Z</time></trkpt><trkpt lat="43.508510640765735" lon="10.615140865354476"><ele>298.0</ele><time>2026-04-26T10:19:31.001Z</time></trkpt><trkpt lat="43.5084696445279" lon="10.615274435057557"><ele>300.0</ele><time>2026-04-26T10:19:32.001Z</time></trkpt><trkpt lat="43.50842103490668" lon="10.615377904557203"><ele>302.0</ele><time>2026-04-26T10:19:33.001Z</time></trkpt><trkpt lat="43.50836891814846" lon="10.615455798987819"><ele>304.0</ele><time>2026-04-26T10:19:34.001Z</time></trkpt><trkpt lat="43.50830364894566" lon="10.615503370253712"><ele>306.0</ele><time>2026-04-26T10:19:35.001Z</time></trkpt><trkpt lat="43.50822742602304" lon="10.615543291838351"><ele>306.0</ele><time>2026-04-26T10:19:36.001Z</time></trkpt><trkpt lat="43.50814586283857" lon="10.61559251183444"><ele>306.0</ele><time>2026-04-26T10:19:37.001Z</time></trkpt><trkpt lat="43.50806344767345" lon="10.615624964639784"><ele>306.0</ele><time>2026-04-26T10:19:38.001Z</time></trkpt><trkpt lat="43.5079722599928" lon="10.615634066677531"><ele>306.0</ele><time>2026-04-26T10:19:39.001Z</time></trkpt><trkpt lat="43.507876447751826" lon="10.61565984673873"><ele>306.0</ele><time>2026-04-26T10:19:40.001Z</time></trkpt><trkpt lat="43.50779641579242" lon="10.615693916338593"><ele>306.0</ele><time>2026-04-26T10:19:41.001Z</time></trkpt><trkpt lat="43.50771879886985" lon="10.615730004224446"><ele>307.6666666666667</ele><time>2026-04-26T10:19:42.001Z</time></trkpt><trkpt lat="43.507637449935245" lon="10.615791833172292"><ele>309.3333333333333</ele><time>2026-04-26T10:19:43.001Z</time></trkpt><trkpt lat="43.507557395294555" lon="10.615860031754037"><ele>311.0</ele><time>2026-04-26T10:19:44.001Z</time></trkpt><trkpt lat="43.507478982997675" lon="10.615913903646604"><ele>312.66666666666663</ele><time>2026-04-26T10:19:45.001Z</time></trkpt><trkpt lat="43.50739549133941" lon="10.615931819055502"><ele>314.3333333333333</ele><time>2026-04-26T10:19:46.001Z</time></trkpt><trkpt lat="43.50731645631033" lon="10.615980822815885"><ele>316.0</ele><time>2026-04-26T10:19:47.001Z</time></trkpt><trkpt lat="43.507230239775424" lon="10.615991889838009"><ele>316.0</ele><time>2026-04-26T10:19:48.001Z</time></trkpt><trkpt lat="43.50715230222681" lon="10.616013336562705"><ele>316.0</ele><time>2026-04-26T10:19:49.001Z</time></trkpt><trkpt lat="43.50707226882225" lon="10.616025744125201"><ele>316.0</ele><time>2026-04-26T10:19:50.001Z</time></trkpt><trkpt lat="43.50698766010115" lon="10.616029778098799"><ele>316.0</ele><time>2026-04-26T10:19:51.001Z</time></trkpt><trkpt lat="43.50690779405027" lon="10.616035408161718"><ele>316.0</ele><time>2026-04-26T10:19:52.001Z</time></trkpt><trkpt lat="43.50682913420006" lon="10.6160341623717"><ele>316.0</ele><time>2026-04-26T10:19:53.001Z</time></trkpt><trkpt lat="43.506766558200006" lon="10.616020013368253"><ele>317.16666666666663</ele><time>2026-04-26T10:19:54.001Z</time></trkpt><trkpt lat="43.506674436976205" lon="10.615957679636914"><ele>318.3333333333333</ele><time>2026-04-26T10:19:56.001Z</time></trkpt><trkpt lat="43.50663544416673" lon="10.615877861931814"><ele>319.5</ele><time>2026-04-26T10:19:57.001Z</time></trkpt><trkpt lat="43.506578530056316" lon="10.61579913408576"><ele>320.6666666666667</ele><time>2026-04-26T10:19:58.001Z</time></trkpt><trkpt lat="43.50652167596547" lon="10.615714535354988"><ele>321.83333333333337</ele><time>2026-04-26T10:19:59.001Z</time></trkpt><trkpt lat="43.50646366147751" lon="10.615610801129428"><ele>323.0</ele><time>2026-04-26T10:20:00.001Z</time></trkpt><trkpt lat="43.50640523369846" lon="10.615498970400848"><ele>323.0</ele><time>2026-04-26T10:20:01.001Z</time></trkpt><trkpt lat="43.50634649662865" lon="10.615379756363774"><ele>323.0</ele><time>2026-04-26T10:20:02.001Z</time></trkpt><trkpt lat="43.50628637431441" lon="10.615257942018719"><ele>323.0</ele><time>2026-04-26T10:20:03.001Z</time></trkpt><trkpt lat="43.50623394076082" lon="10.615146069948695"><ele>323.0</ele><time>2026-04-26T10:20:04.001Z</time></trkpt><trkpt lat="43.50618881606817" lon="10.615053491223913"><ele>323.0</ele><time>2026-04-26T10:20:05.001Z</time></trkpt><trkpt lat="43.506143499004345" lon="10.614983008153649"><ele>324.14285714285717</ele><time>2026-04-26T10:20:06.001Z</time></trkpt><trkpt lat="43.506100685712674" lon="10.614917282630376"><ele>325.2857142857143</ele><time>2026-04-26T10:20:07.001Z</time></trkpt><trkpt lat="43.506063269500274" lon="10.614839341042524"><ele>326.42857142857144</ele><time>2026-04-26T10:20:08.001Z</time></trkpt><trkpt lat="43.50602504691412" lon="10.614748370419768"><ele>327.57142857142856</ele><time>2026-04-26T10:20:09.001Z</time></trkpt><trkpt lat="43.50599949398857" lon="10.614647423699152"><ele>328.7142857142857</ele><time>2026-04-26T10:20:10.001Z</time></trkpt><trkpt lat="43.505975096336" lon="10.61456293335208"><ele>329.8571428571429</ele><time>2026-04-26T10:20:11.001Z</time></trkpt><trkpt lat="43.50596714691245" lon="10.614475661329955"><ele>331.0</ele><time>2026-04-26T10:20:12.001Z</time></trkpt><trkpt lat="43.50592955107496" lon="10.6143240103907"><ele>331.0</ele><time>2026-04-26T10:20:14.001Z</time></trkpt><trkpt lat="43.50591844866518" lon="10.614236348788411"><ele>331.0</ele><time>2026-04-26T10:20:15.001Z</time></trkpt><trkpt lat="43.50590630287854" lon="10.614135762041371"><ele>331.0</ele><time>2026-04-26T10:20:16.001Z</time></trkpt><trkpt lat="43.505889836588636" lon="10.614038860421225"><ele>331.0</ele><time>2026-04-26T10:20:17.001Z</time></trkpt><trkpt lat="43.50586947299486" lon="10.61392501849299"><ele>331.0</ele><time>2026-04-26T10:20:18.001Z</time></trkpt><trkpt lat="43.50585360038236" lon="10.613822100838318"><ele>331.0</ele><time>2026-04-26T10:20:19.001Z</time></trkpt><trkpt lat="43.505818910737304" lon="10.613668118391688"><ele>330.0</ele><time>2026-04-26T10:20:21.001Z</time></trkpt><trkpt lat="43.50577496990917" lon="10.613506779884961"><ele>329.0</ele><time>2026-04-26T10:20:23.001Z</time></trkpt><trkpt lat="43.50577411738237" lon="10.613416831826282"><ele>328.0</ele><time>2026-04-26T10:20:24.001Z</time></trkpt><trkpt lat="43.50574940086478" lon="10.61333071912599"><ele>327.0</ele><time>2026-04-26T10:20:25.001Z</time></trkpt><trkpt lat="43.50571757304665" lon="10.613239922620277"><ele>326.0</ele><time>2026-04-26T10:20:26.001Z</time></trkpt><trkpt lat="43.50569260618308" lon="10.613137045961041"><ele>325.0</ele><time>2026-04-26T10:20:27.001Z</time></trkpt><trkpt lat="43.50565115636585" lon="10.613046688055498"><ele>325.0</ele><time>2026-04-26T10:20:28.001Z</time></trkpt><trkpt lat="43.505598824321694" lon="10.612961240826047"><ele>325.0</ele><time>2026-04-26T10:20:29.001Z</time></trkpt><trkpt lat="43.50553623986194" lon="10.612863868003695"><ele>325.0</ele><time>2026-04-26T10:20:30.001Z</time></trkpt><trkpt lat="43.5054591484886" lon="10.612770238267691"><ele>325.0</ele><time>2026-04-26T10:20:31.001Z</time></trkpt><trkpt lat="43.50538444151353" lon="10.612664306727453"><ele>325.0</ele><time>2026-04-26T10:20:32.001Z</time></trkpt><trkpt lat="43.50531994676227" lon="10.612570765867858"><ele>324.5</ele><time>2026-04-26T10:20:33.001Z</time></trkpt><trkpt lat="43.50525550322349" lon="10.612471388954425"><ele>324.0</ele><time>2026-04-26T10:20:34.001Z</time></trkpt><trkpt lat="43.50519539221856" lon="10.612387169663622"><ele>323.5</ele><time>2026-04-26T10:20:35.001Z</time></trkpt><trkpt lat="43.505143935325066" lon="10.61231764104871"><ele>323.0</ele><time>2026-04-26T10:20:36.001Z</time></trkpt><trkpt lat="43.505058989545226" lon="10.612307089569292"><ele>322.5</ele><time>2026-04-26T10:20:37.001Z</time></trkpt><trkpt lat="43.504962453352626" lon="10.6122958201921"><ele>322.0</ele><time>2026-04-26T10:20:38.001Z</time></trkpt><trkpt lat="43.504861397325655" lon="10.612263935909445"><ele>322.0</ele><time>2026-04-26T10:20:39.001Z</time></trkpt><trkpt lat="43.50477231698081" lon="10.6122631236009"><ele>322.0</ele><time>2026-04-26T10:20:40.001Z</time></trkpt><trkpt lat="43.504700588510765" lon="10.61229745524095"><ele>322.0</ele><time>2026-04-26T10:20:41.001Z</time></trkpt><trkpt lat="43.5046326392459" lon="10.612275662933278"><ele>322.0</ele><time>2026-04-26T10:20:42.001Z</time></trkpt><trkpt lat="43.504559939054026" lon="10.61225885560238"><ele>322.0</ele><time>2026-04-26T10:20:43.001Z</time></trkpt><trkpt lat="43.50447598082716" lon="10.612241581877859"><ele>322.0</ele><time>2026-04-26T10:20:44.001Z</time></trkpt><trkpt lat="43.50439058203831" lon="10.612185476571419"><ele>321.40000000000003</ele><time>2026-04-26T10:20:45.001Z</time></trkpt><trkpt lat="43.504300211974915" lon="10.612106750540567"><ele>320.8</ele><time>2026-04-26T10:20:46.001Z</time></trkpt><trkpt lat="43.504220021594094" lon="10.612016501427963"><ele>320.2</ele><time>2026-04-26T10:20:47.001Z</time></trkpt><trkpt lat="43.50414491092734" lon="10.611919909519722"><ele>319.6</ele><time>2026-04-26T10:20:48.001Z</time></trkpt><trkpt lat="43.50407763852897" lon="10.611831537480509"><ele>319.0</ele><time>2026-04-26T10:20:49.001Z</time></trkpt><trkpt lat="43.50401463439959" lon="10.61175354635751"><ele>319.0</ele><time>2026-04-26T10:20:50.001Z</time></trkpt><trkpt lat="43.503948889776574" lon="10.611681405150128"><ele>319.0</ele><time>2026-04-26T10:20:51.001Z</time></trkpt><trkpt lat="43.50388455805753" lon="10.611624163521723"><ele>319.0</ele><time>2026-04-26T10:20:52.001Z</time></trkpt><trkpt lat="43.50381392051027" lon="10.611570923364916"><ele>319.0</ele><time>2026-04-26T10:20:53.001Z</time></trkpt><trkpt lat="43.50373094428161" lon="10.611519911893552"><ele>319.0</ele><time>2026-04-26T10:20:54.001Z</time></trkpt><trkpt lat="43.50364600080114" lon="10.611457443333475"><ele>319.0</ele><time>2026-04-26T10:20:55.001Z</time></trkpt><trkpt lat="43.503559111694955" lon="10.61144348478177"><ele>320.3333333333333</ele><time>2026-04-26T10:20:56.001Z</time></trkpt><trkpt lat="43.503480018456074" lon="10.611400665720707"><ele>321.66666666666663</ele><time>2026-04-26T10:20:57.001Z</time></trkpt><trkpt lat="43.50339190081818" lon="10.611380515058864"><ele>323.0</ele><time>2026-04-26T10:20:58.001Z</time></trkpt><trkpt lat="43.503304701197884" lon="10.611381130655278"><ele>324.3333333333333</ele><time>2026-04-26T10:20:59.001Z</time></trkpt><trkpt lat="43.50322942250147" lon="10.611389464218433"><ele>325.6666666666667</ele><time>2026-04-26T10:21:00.001Z</time></trkpt><trkpt lat="43.503164202124616" lon="10.611428312572885"><ele>327.0</ele><time>2026-04-26T10:21:01.001Z</time></trkpt><trkpt lat="43.503091724933846" lon="10.611474329847308"><ele>327.0</ele><time>2026-04-26T10:21:02.001Z</time></trkpt><trkpt lat="43.503029959024836" lon="10.611533916853336"><ele>327.0</ele><time>2026-04-26T10:21:03.001Z</time></trkpt><trkpt lat="43.5029218234309" lon="10.611609588755698"><ele>327.0</ele><time>2026-04-26T10:21:05.001Z</time></trkpt><trkpt lat="43.50284935247789" lon="10.611593189441903"><ele>327.0</ele><time>2026-04-26T10:21:07.001Z</time></trkpt><trkpt lat="43.50283671780729" lon="10.611478488761856"><ele>327.0</ele><time>2026-04-26T10:21:09.001Z</time></trkpt><trkpt lat="43.50283936943797" lon="10.61138969688763"><ele>327.0</ele><time>2026-04-26T10:21:10.002Z</time></trkpt><trkpt lat="43.50288343920255" lon="10.611299068926582"><ele>327.0</ele><time>2026-04-26T10:21:11.002Z</time></trkpt><trkpt lat="43.50293859017265" lon="10.611201525284168"><ele>327.0</ele><time>2026-04-26T10:21:12.002Z</time></trkpt><trkpt lat="43.503011877235046" lon="10.611126813620716"><ele>327.0</ele><time>2026-04-26T10:21:13.002Z</time></trkpt><trkpt lat="43.503067609532174" lon="10.611026752756741"><ele>327.0</ele><time>2026-04-26T10:21:14.002Z</time></trkpt><trkpt lat="43.50310887344982" lon="10.610935475123235"><ele>327.0</ele><time>2026-04-26T10:21:15.002Z</time></trkpt><trkpt lat="43.50314251630236" lon="10.610851493907512"><ele>327.0</ele><time>2026-04-26T10:21:16.002Z</time></trkpt><trkpt lat="43.503151422549074" lon="10.610757112736007"><ele>326.20000000000005</ele><time>2026-04-26T10:21:17.002Z</time></trkpt><trkpt lat="43.503134895517775" lon="10.610634471099855"><ele>325.4</ele><time>2026-04-26T10:21:18.002Z</time></trkpt><trkpt lat="43.503082817368124" lon="10.610515939324443"><ele>324.6</ele><time>2026-04-26T10:21:19.002Z</time></trkpt><trkpt lat="43.50303370345278" lon="10.61040418944485"><ele>323.79999999999995</ele><time>2026-04-26T10:21:20.002Z</time></trkpt><trkpt lat="43.50298268378919" lon="10.610302410413048"><ele>323.0</ele><time>2026-04-26T10:21:21.002Z</time></trkpt><trkpt lat="43.50295328727128" lon="10.610192884220496"><ele>322.4</ele><time>2026-04-26T10:21:22.002Z</time></trkpt><trkpt lat="43.50293616376906" lon="10.610081799231082"><ele>321.79999999999995</ele><time>2026-04-26T10:21:23.002Z</time></trkpt><trkpt lat="43.50297933492173" lon="10.609951916390708"><ele>321.2</ele><time>2026-04-26T10:21:24.002Z</time></trkpt><trkpt lat="43.502990247422545" lon="10.60980884300378"><ele>320.6</ele><time>2026-04-26T10:21:25.002Z</time></trkpt><trkpt lat="43.50297808378886" lon="10.609695945963374"><ele>320.0</ele><time>2026-04-26T10:21:26.002Z</time></trkpt><trkpt lat="43.502917219722214" lon="10.609591216391049"><ele>322.6</ele><time>2026-04-26T10:21:27.002Z</time></trkpt><trkpt lat="43.502847559316436" lon="10.609495306085769"><ele>325.2</ele><time>2026-04-26T10:21:28.002Z</time></trkpt><trkpt lat="43.502760744417685" lon="10.609406624015605"><ele>327.79999999999995</ele><time>2026-04-26T10:21:29.002Z</time></trkpt><trkpt lat="43.50268220742688" lon="10.609353982044112"><ele>330.4</ele><time>2026-04-26T10:21:30.002Z</time></trkpt><trkpt lat="43.50260055469213" lon="10.609327910051308"><ele>333.0</ele><time>2026-04-26T10:21:31.002Z</time></trkpt><trkpt lat="43.50250930027115" lon="10.609322662829966"><ele>333.0</ele><time>2026-04-26T10:21:32.002Z</time></trkpt><trkpt lat="43.50240135491715" lon="10.609374807006848"><ele>333.0</ele><time>2026-04-26T10:21:33.002Z</time></trkpt><trkpt lat="43.5022977671849" lon="10.6094306059412"><ele>333.0</ele><time>2026-04-26T10:21:34.002Z</time></trkpt><trkpt lat="43.502186104864506" lon="10.60951488073414"><ele>333.0</ele><time>2026-04-26T10:21:35.002Z</time></trkpt><trkpt lat="43.5020685803444" lon="10.60960757888997"><ele>336.79999999999995</ele><time>2026-04-26T10:21:36.002Z</time></trkpt><trkpt lat="43.50195781081621" lon="10.609644105594807"><ele>340.6</ele><time>2026-04-26T10:21:37.002Z</time></trkpt><trkpt lat="43.501830620629626" lon="10.609687336250431"><ele>344.4</ele><time>2026-04-26T10:21:38.002Z</time></trkpt><trkpt lat="43.50173410329577" lon="10.609739361440147"><ele>348.20000000000005</ele><time>2026-04-26T10:21:39.002Z</time></trkpt><trkpt lat="43.501642401964155" lon="10.609707796915709"><ele>352.0</ele><time>2026-04-26T10:21:40.002Z</time></trkpt><trkpt lat="43.501564938964044" lon="10.609664520090053"><ele>352.0</ele><time>2026-04-26T10:21:41.002Z</time></trkpt><trkpt lat="43.50149980753186" lon="10.609573001923803"><ele>352.0</ele><time>2026-04-26T10:21:42.002Z</time></trkpt><trkpt lat="43.50141495651266" lon="10.609476678856536"><ele>352.0</ele><time>2026-04-26T10:21:43.002Z</time></trkpt><trkpt lat="43.501327187601916" lon="10.609399113317478"><ele>352.0</ele><time>2026-04-26T10:21:44.002Z</time></trkpt><trkpt lat="43.50121948937211" lon="10.609448001839075"><ele>352.0</ele><time>2026-04-26T10:21:46.002Z</time></trkpt><trkpt lat="43.50113913892555" lon="10.609494830903945"><ele>353.0</ele><time>2026-04-26T10:21:47.002Z</time></trkpt><trkpt lat="43.50103937724443" lon="10.609552539896177"><ele>354.0</ele><time>2026-04-26T10:21:48.002Z</time></trkpt><trkpt lat="43.50093555258945" lon="10.60958827533077"><ele>355.0</ele><time>2026-04-26T10:21:49.002Z</time></trkpt><trkpt lat="43.500845016745004" lon="10.609594134869697"><ele>356.0</ele><time>2026-04-26T10:21:50.002Z</time></trkpt><trkpt lat="43.50075314090822" lon="10.609561076681997"><ele>357.0</ele><time>2026-04-26T10:21:51.002Z</time></trkpt><trkpt lat="43.500670748943435" lon="10.609465496771904"><ele>357.0</ele><time>2026-04-26T10:21:52.002Z</time></trkpt><trkpt lat="43.50066517276726" lon="10.609263061344006"><ele>357.0</ele><time>2026-04-26T10:21:53.002Z</time></trkpt><trkpt lat="43.500603144207936" lon="10.609189314827434"><ele>357.0</ele><time>2026-04-26T10:21:54.002Z</time></trkpt><trkpt lat="43.500536457483186" lon="10.609118839975395"><ele>357.0</ele><time>2026-04-26T10:21:55.002Z</time></trkpt><trkpt lat="43.50046009268689" lon="10.609051936153996"><ele>357.0</ele><time>2026-04-26T10:21:56.002Z</time></trkpt><trkpt lat="43.500366795381105" lon="10.608973428714306"><ele>360.5</ele><time>2026-04-26T10:21:57.002Z</time></trkpt><trkpt lat="43.50026771822091" lon="10.608876196725655"><ele>364.0</ele><time>2026-04-26T10:21:58.002Z</time></trkpt><trkpt lat="43.50021526047788" lon="10.608732170212155"><ele>367.5</ele><time>2026-04-26T10:21:59.002Z</time></trkpt><trkpt lat="43.50017364279656" lon="10.60857049747665"><ele>371.0</ele><time>2026-04-26T10:22:00.002Z</time></trkpt><trkpt lat="43.50011062329615" lon="10.608426562561405"><ele>371.0</ele><time>2026-04-26T10:22:01.002Z</time></trkpt><trkpt lat="43.50003222260426" lon="10.608293505441933"><ele>371.0</ele><time>2026-04-26T10:22:02.002Z</time></trkpt><trkpt lat="43.49996190772613" lon="10.608187961510126"><ele>371.0</ele><time>2026-04-26T10:22:03.002Z</time></trkpt><trkpt lat="43.49989326386394" lon="10.608078050732304"><ele>371.0</ele><time>2026-04-26T10:22:04.002Z</time></trkpt><trkpt lat="43.49982595794634" lon="10.607971918253924"><ele>371.0</ele><time>2026-04-26T10:22:05.002Z</time></trkpt><trkpt lat="43.49975683889353" lon="10.607860643687543"><ele>370.6</ele><time>2026-04-26T10:22:06.002Z</time></trkpt><trkpt lat="43.49968379047526" lon="10.607766414784795"><ele>370.20000000000005</ele><time>2026-04-26T10:22:07.002Z</time></trkpt><trkpt lat="43.49959604246959" lon="10.607679872069923"><ele>369.79999999999995</ele><time>2026-04-26T10:22:08.002Z</time></trkpt><trkpt lat="43.49950315952988" lon="10.60761868506297"><ele>369.4</ele><time>2026-04-26T10:22:09.002Z</time></trkpt><trkpt lat="43.49940271463051" lon="10.607562064194203"><ele>369.0</ele><time>2026-04-26T10:22:10.002Z</time></trkpt><trkpt lat="43.499304595784174" lon="10.6075087073777"><ele>371.3333333333333</ele><time>2026-04-26T10:22:11.002Z</time></trkpt><trkpt lat="43.499213946688755" lon="10.607462990770184"><ele>373.6666666666667</ele><time>2026-04-26T10:22:12.002Z</time></trkpt><trkpt lat="43.49916637273213" lon="10.607406032930868"><ele>376.0</ele><time>2026-04-26T10:22:13.002Z</time></trkpt><trkpt lat="43.49913957549759" lon="10.607309726251042"><ele>378.33333333333337</ele><time>2026-04-26T10:22:14.002Z</time></trkpt><trkpt lat="43.49913700293238" lon="10.60719875160961"><ele>380.6666666666667</ele><time>2026-04-26T10:22:15.002Z</time></trkpt><trkpt lat="43.499174708277636" lon="10.607076045153619"><ele>383.0</ele><time>2026-04-26T10:22:16.002Z</time></trkpt><trkpt lat="43.499222867809245" lon="10.606941269347518"><ele>383.79999999999995</ele><time>2026-04-26T10:22:17.002Z</time></trkpt><trkpt lat="43.49923249587032" lon="10.606815397508862"><ele>384.6</ele><time>2026-04-26T10:22:18.002Z</time></trkpt><trkpt lat="43.49921465011756" lon="10.60671413553393"><ele>385.4</ele><time>2026-04-26T10:22:19.002Z</time></trkpt><trkpt lat="43.499173927860944" lon="10.606616396017417"><ele>386.20000000000005</ele><time>2026-04-26T10:22:20.002Z</time></trkpt><trkpt lat="43.49911284058519" lon="10.606524815164457"><ele>387.0</ele><time>2026-04-26T10:22:21.002Z</time></trkpt><trkpt lat="43.499025546965846" lon="10.606425390948251"><ele>387.0</ele><time>2026-04-26T10:22:22.002Z</time></trkpt><trkpt lat="43.49893753849171" lon="10.606311054048705"><ele>387.0</ele><time>2026-04-26T10:22:23.002Z</time></trkpt><trkpt lat="43.49888983598312" lon="10.606181403769417"><ele>387.0</ele><time>2026-04-26T10:22:24.002Z</time></trkpt><trkpt lat="43.49887574458811" lon="10.6060454077705"><ele>387.0</ele><time>2026-04-26T10:22:25.002Z</time></trkpt><trkpt lat="43.49892391520285" lon="10.605910622407094"><ele>387.0</ele><time>2026-04-26T10:22:26.002Z</time></trkpt><trkpt lat="43.49891153578006" lon="10.605759155853436"><ele>387.25</ele><time>2026-04-26T10:22:27.002Z</time></trkpt><trkpt lat="43.49888701130977" lon="10.605597652283903"><ele>387.5</ele><time>2026-04-26T10:22:28.002Z</time></trkpt><trkpt lat="43.49884529441234" lon="10.60542391426406"><ele>387.75</ele><time>2026-04-26T10:22:29.002Z</time></trkpt><trkpt lat="43.49879019212827" lon="10.605247706482587"><ele>388.0</ele><time>2026-04-26T10:22:30.002Z</time></trkpt><trkpt lat="43.49875839652002" lon="10.605079380907357"><ele>390.83333333333337</ele><time>2026-04-26T10:22:31.002Z</time></trkpt><trkpt lat="43.49873423024054" lon="10.604954426657136"><ele>393.6666666666667</ele><time>2026-04-26T10:22:32.002Z</time></trkpt><trkpt lat="43.498693703851515" lon="10.6048570553929"><ele>396.5</ele><time>2026-04-26T10:22:33.002Z</time></trkpt><trkpt lat="43.49862771337436" lon="10.604763909993057"><ele>399.33333333333337</ele><time>2026-04-26T10:22:34.002Z</time></trkpt><trkpt lat="43.49855679569626" lon="10.60468769998882"><ele>402.1666666666667</ele><time>2026-04-26T10:22:35.002Z</time></trkpt><trkpt lat="43.4984945277401" lon="10.604633835393374"><ele>405.0</ele><time>2026-04-26T10:22:36.002Z</time></trkpt><trkpt lat="43.49843132356961" lon="10.604575858209403"><ele>405.0</ele><time>2026-04-26T10:22:37.002Z</time></trkpt><trkpt lat="43.498339128126204" lon="10.604529058847078"><ele>405.0</ele><time>2026-04-26T10:22:38.002Z</time></trkpt><trkpt lat="43.49821672602558" lon="10.604503573320839"><ele>405.0</ele><time>2026-04-26T10:22:39.002Z</time></trkpt><trkpt lat="43.498111752978105" lon="10.604456920362592"><ele>405.0</ele><time>2026-04-26T10:22:40.002Z</time></trkpt><trkpt lat="43.49800977774035" lon="10.604367385203602"><ele>406.8</ele><time>2026-04-26T10:22:41.002Z</time></trkpt><trkpt lat="43.49790175615359" lon="10.604305721239012"><ele>408.6</ele><time>2026-04-26T10:22:42.002Z</time></trkpt><trkpt lat="43.49780381650195" lon="10.604281047319764"><ele>410.4</ele><time>2026-04-26T10:22:43.002Z</time></trkpt><trkpt lat="43.49770413845789" lon="10.604303946362146"><ele>412.2</ele><time>2026-04-26T10:22:44.002Z</time></trkpt><trkpt lat="43.49762726341118" lon="10.604295559188115"><ele>414.0</ele><time>2026-04-26T10:22:45.002Z</time></trkpt><trkpt lat="43.497544824634225" lon="10.60419086772141"><ele>414.0</ele><time>2026-04-26T10:22:47.002Z</time></trkpt><trkpt lat="43.49750684874461" lon="10.604072890625494"><ele>414.0</ele><time>2026-04-26T10:22:48.002Z</time></trkpt><trkpt lat="43.497458643236236" lon="10.603899874197348"><ele>414.0</ele><time>2026-04-26T10:22:49.002Z</time></trkpt><trkpt lat="43.49740916551354" lon="10.603732168696268"><ele>414.0</ele><time>2026-04-26T10:22:50.002Z</time></trkpt><trkpt lat="43.49736490671679" lon="10.603615499962007"><ele>415.0</ele><time>2026-04-26T10:22:51.002Z</time></trkpt><trkpt lat="43.49730931849963" lon="10.603504858556834"><ele>416.0</ele><time>2026-04-26T10:22:52.002Z</time></trkpt><trkpt lat="43.49721605265898" lon="10.603430389751143"><ele>417.0</ele><time>2026-04-26T10:22:53.002Z</time></trkpt><trkpt lat="43.49716125023128" lon="10.60324078446668"><ele>418.0</ele><time>2026-04-26T10:22:55.002Z</time></trkpt><trkpt lat="43.49718828661936" lon="10.603048334160757"><ele>418.0</ele><time>2026-04-26T10:22:56.002Z</time></trkpt><trkpt lat="43.49713643094334" lon="10.602872080694617"><ele>418.0</ele><time>2026-04-26T10:22:57.002Z</time></trkpt><trkpt lat="43.49704826014943" lon="10.602718149517974"><ele>418.0</ele><time>2026-04-26T10:22:58.002Z</time></trkpt><trkpt lat="43.49696274512175" lon="10.6025540960464"><ele>418.0</ele><time>2026-04-26T10:22:59.002Z</time></trkpt><trkpt lat="43.49688798353046" lon="10.602436907414567"><ele>420.79999999999995</ele><time>2026-04-26T10:23:00.002Z</time></trkpt><trkpt lat="43.4968362524475" lon="10.602325576382471"><ele>423.6</ele><time>2026-04-26T10:23:01.002Z</time></trkpt><trkpt lat="43.49680805733135" lon="10.602191145012213"><ele>426.40000000000003</ele><time>2026-04-26T10:23:02.002Z</time></trkpt><trkpt lat="43.496772223570176" lon="10.602066144280736"><ele>429.20000000000005</ele><time>2026-04-26T10:23:03.002Z</time></trkpt><trkpt lat="43.49671669043277" lon="10.6019014955819"><ele>432.0</ele><time>2026-04-26T10:23:04.003Z</time></trkpt><trkpt lat="43.49671256825242" lon="10.601735325545388"><ele>432.0</ele><time>2026-04-26T10:23:05.003Z</time></trkpt><trkpt lat="43.496698250180195" lon="10.601595323751472"><ele>432.0</ele><time>2026-04-26T10:23:06.003Z</time></trkpt><trkpt lat="43.496710008731704" lon="10.601479414601249"><ele>432.0</ele><time>2026-04-26T10:23:08.003Z</time></trkpt><trkpt lat="43.49668613018273" lon="10.601384949238422"><ele>432.0</ele><time>2026-04-26T10:23:13.003Z</time></trkpt><trkpt lat="43.496461254014044" lon="10.601367630540853"><ele>432.0</ele><time>2026-04-26T10:23:14.003Z</time></trkpt><trkpt lat="43.496316932734665" lon="10.601351563796277"><ele>432.0</ele><time>2026-04-26T10:23:15.003Z</time></trkpt><trkpt lat="43.496163130625575" lon="10.601312230154127"><ele>432.0</ele><time>2026-04-26T10:23:16.003Z</time></trkpt><trkpt lat="43.49599852005091" lon="10.60125735326137"><ele>433.33333333333337</ele><time>2026-04-26T10:23:17.003Z</time></trkpt><trkpt lat="43.49583973967957" lon="10.60120757233392"><ele>434.6666666666667</ele><time>2026-04-26T10:23:18.003Z</time></trkpt><trkpt lat="43.49569171845529" lon="10.601153062280467"><ele>436.0</ele><time>2026-04-26T10:23:19.003Z</time></trkpt><trkpt lat="43.4955473872212" lon="10.601094883354694"><ele>438.0</ele><time>2026-04-26T10:23:20.003Z</time></trkpt><trkpt lat="43.49540022829163" lon="10.60102231175925"><ele>440.0</ele><time>2026-04-26T10:23:21.003Z</time></trkpt><trkpt lat="43.49526997698016" lon="10.600959753471995"><ele>442.0</ele><time>2026-04-26T10:23:22.003Z</time></trkpt><trkpt lat="43.49516084518637" lon="10.600912575599759"><ele>444.0</ele><time>2026-04-26T10:23:23.003Z</time></trkpt><trkpt lat="43.49505466977451" lon="10.600878234101144"><ele>444.0</ele><time>2026-04-26T10:23:24.003Z</time></trkpt><trkpt lat="43.49495935794213" lon="10.600858831174838"><ele>444.0</ele><time>2026-04-26T10:23:25.003Z</time></trkpt><trkpt lat="43.49487282509116" lon="10.6008738720249"><ele>444.0</ele><time>2026-04-26T10:23:26.003Z</time></trkpt><trkpt lat="43.49477678826019" lon="10.600904017796779"><ele>444.0</ele><time>2026-04-26T10:23:27.003Z</time></trkpt><trkpt lat="43.49467383269737" lon="10.600936045154748"><ele>444.0</ele><time>2026-04-26T10:23:28.003Z</time></trkpt><trkpt lat="43.49459475766867" lon="10.601007149737418"><ele>445.79999999999995</ele><time>2026-04-26T10:23:29.003Z</time></trkpt><trkpt lat="43.49450554567532" lon="10.60110222198276"><ele>447.59999999999997</ele><time>2026-04-26T10:23:30.003Z</time></trkpt><trkpt lat="43.49443229102685" lon="10.601196248985374"><ele>449.4</ele><time>2026-04-26T10:23:31.003Z</time></trkpt><trkpt lat="43.49436563997051" lon="10.60124176251121"><ele>451.2</ele><time>2026-04-26T10:23:32.003Z</time></trkpt><trkpt lat="43.49425274268479" lon="10.601172860026333"><ele>453.0</ele><time>2026-04-26T10:23:34.003Z</time></trkpt><trkpt lat="43.494177356967" lon="10.601058390475842"><ele>453.0</ele><time>2026-04-26T10:23:35.003Z</time></trkpt><trkpt lat="43.49407040316987" lon="10.60095846287502"><ele>453.0</ele><time>2026-04-26T10:23:36.003Z</time></trkpt><trkpt lat="43.49394184427827" lon="10.600869090201295"><ele>453.0</ele><time>2026-04-26T10:23:37.003Z</time></trkpt><trkpt lat="43.493830102992085" lon="10.600772371499202"><ele>453.0</ele><time>2026-04-26T10:23:38.003Z</time></trkpt><trkpt lat="43.49371022912807" lon="10.600682924620418"><ele>455.4</ele><time>2026-04-26T10:23:39.003Z</time></trkpt><trkpt lat="43.49361385408768" lon="10.600601496037516"><ele>457.79999999999995</ele><time>2026-04-26T10:23:40.003Z</time></trkpt><trkpt lat="43.49352563933774" lon="10.600532463264333"><ele>460.2</ele><time>2026-04-26T10:23:41.003Z</time></trkpt><trkpt lat="43.49344349875338" lon="10.600492524335925"><ele>462.6</ele><time>2026-04-26T10:23:42.003Z</time></trkpt><trkpt lat="43.49334171093358" lon="10.600474308574302"><ele>465.0</ele><time>2026-04-26T10:23:43.003Z</time></trkpt><trkpt lat="43.49318827012593" lon="10.600497594300082"><ele>465.0</ele><time>2026-04-26T10:23:44.003Z</time></trkpt><trkpt lat="43.4930264404308" lon="10.600535426971103"><ele>465.0</ele><time>2026-04-26T10:23:45.003Z</time></trkpt><trkpt lat="43.49290159428644" lon="10.600575792074919"><ele>465.0</ele><time>2026-04-26T10:23:46.003Z</time></trkpt><trkpt lat="43.49280364442493" lon="10.600613286120833"><ele>465.0</ele><time>2026-04-26T10:23:47.003Z</time></trkpt><trkpt lat="43.49274041032878" lon="10.600622943712237"><ele>464.6</ele><time>2026-04-26T10:23:48.003Z</time></trkpt><trkpt lat="43.4926428528451" lon="10.600546796122934"><ele>464.2</ele><time>2026-04-26T10:23:50.003Z</time></trkpt><trkpt lat="43.492579247072506" lon="10.600473969142488"><ele>463.79999999999995</ele><time>2026-04-26T10:23:51.003Z</time></trkpt><trkpt lat="43.492501144663855" lon="10.600392364792741"><ele>463.4</ele><time>2026-04-26T10:23:53.003Z</time></trkpt><trkpt lat="43.492454368121386" lon="10.600299932465907"><ele>463.0</ele><time>2026-04-26T10:23:55.003Z</time></trkpt><trkpt lat="43.49242436860999" lon="10.600203179697766"><ele>462.79999999999995</ele><time>2026-04-26T10:23:56.003Z</time></trkpt><trkpt lat="43.49236280102383" lon="10.600096547249722"><ele>462.59999999999997</ele><time>2026-04-26T10:23:57.003Z</time></trkpt><trkpt lat="43.492285784138815" lon="10.600023102398808"><ele>462.40000000000003</ele><time>2026-04-26T10:23:58.003Z</time></trkpt><trkpt lat="43.49218048106191" lon="10.599966889861228"><ele>462.20000000000005</ele><time>2026-04-26T10:23:59.003Z</time></trkpt><trkpt lat="43.49208847540059" lon="10.599912213199952"><ele>462.0</ele><time>2026-04-26T10:24:00.003Z</time></trkpt><trkpt lat="43.49202544394048" lon="10.599839917003774"><ele>462.0</ele><time>2026-04-26T10:24:01.003Z</time></trkpt><trkpt lat="43.491974810121505" lon="10.599741232394143"><ele>462.00000000000006</ele><time>2026-04-26T10:24:02.003Z</time></trkpt><trkpt lat="43.49195799281821" lon="10.59962522225419"><ele>462.00000000000006</ele><time>2026-04-26T10:24:03.003Z</time></trkpt><trkpt lat="43.49195111578719" lon="10.599491530814525"><ele>462.0</ele><time>2026-04-26T10:24:04.003Z</time></trkpt><trkpt lat="43.49195524475536" lon="10.599328783658859"><ele>462.0</ele><time>2026-04-26T10:24:05.003Z</time></trkpt><trkpt lat="43.49195918390979" lon="10.599150517377486"><ele>463.5</ele><time>2026-04-26T10:24:06.003Z</time></trkpt><trkpt lat="43.49195296306999" lon="10.598997491028394"><ele>465.0</ele><time>2026-04-26T10:24:07.003Z</time></trkpt><trkpt lat="43.491965270699" lon="10.59885537006269"><ele>466.5</ele><time>2026-04-26T10:24:08.003Z</time></trkpt><trkpt lat="43.49199348143837" lon="10.598705693523362"><ele>468.0</ele><time>2026-04-26T10:24:09.003Z</time></trkpt><trkpt lat="43.49202596774463" lon="10.598540503139535"><ele>469.2</ele><time>2026-04-26T10:24:10.003Z</time></trkpt><trkpt lat="43.4920513098485" lon="10.598398352162807"><ele>470.4</ele><time>2026-04-26T10:24:11.003Z</time></trkpt><trkpt lat="43.49206411412683" lon="10.598295182459257"><ele>471.59999999999997</ele><time>2026-04-26T10:24:12.003Z</time></trkpt><trkpt lat="43.49206720091397" lon="10.598189587912694"><ele>472.79999999999995</ele><time>2026-04-26T10:24:13.003Z</time></trkpt><trkpt lat="43.49205113108564" lon="10.598074895035005"><ele>474.0</ele><time>2026-04-26T10:24:14.003Z</time></trkpt><trkpt lat="43.492025894923884" lon="10.597920687329376"><ele>476.25</ele><time>2026-04-26T10:24:15.003Z</time></trkpt><trkpt lat="43.49200257380172" lon="10.59773169869774"><ele>478.5</ele><time>2026-04-26T10:24:16.003Z</time></trkpt><trkpt lat="43.49197888624867" lon="10.597555232709427"><ele>480.75</ele><time>2026-04-26T10:24:17.003Z</time></trkpt><trkpt lat="43.49195578286815" lon="10.597395598513515"><ele>483.0</ele><time>2026-04-26T10:24:18.003Z</time></trkpt><trkpt lat="43.491922443813266" lon="10.597253282590177"><ele>483.0</ele><time>2026-04-26T10:24:19.003Z</time></trkpt><trkpt lat="43.4918965063702" lon="10.597100038398034"><ele>483.0</ele><time>2026-04-26T10:24:20.003Z</time></trkpt><trkpt lat="43.49188559986911" lon="10.59695703641295"><ele>483.0</ele><time>2026-04-26T10:24:21.003Z</time></trkpt><trkpt lat="43.491882488369356" lon="10.596861422305285"><ele>483.0</ele><time>2026-04-26T10:24:22.003Z</time></trkpt><trkpt lat="43.49183213131901" lon="10.596783145068887"><ele>483.0</ele><time>2026-04-26T10:24:24.003Z</time></trkpt><trkpt lat="43.49176602640833" lon="10.596716946853512"><ele>483.0</ele><time>2026-04-26T10:24:25.003Z</time></trkpt><trkpt lat="43.491668004512164" lon="10.596637524281869"><ele>483.75</ele><time>2026-04-26T10:24:26.003Z</time></trkpt><trkpt lat="43.491543041786265" lon="10.596540907795257"><ele>484.5</ele><time>2026-04-26T10:24:27.003Z</time></trkpt><trkpt lat="43.49142043803305" lon="10.59645593491932"><ele>485.25</ele><time>2026-04-26T10:24:28.003Z</time></trkpt><trkpt lat="43.49131086517671" lon="10.596398145852431"><ele>486.0</ele><time>2026-04-26T10:24:29.003Z</time></trkpt><trkpt lat="43.49120526394061" lon="10.596380746166533"><ele>487.0</ele><time>2026-04-26T10:24:30.003Z</time></trkpt><trkpt lat="43.49104858546631" lon="10.596385700428966"><ele>488.0</ele><time>2026-04-26T10:24:31.003Z</time></trkpt><trkpt lat="43.49088490416151" lon="10.596382451286482"><ele>489.0</ele><time>2026-04-26T10:24:32.003Z</time></trkpt><trkpt lat="43.49075746189728" lon="10.596373108325073"><ele>490.0</ele><time>2026-04-26T10:24:33.003Z</time></trkpt><trkpt lat="43.49065322089959" lon="10.596348348690833"><ele>490.00000000000006</ele><time>2026-04-26T10:24:34.003Z</time></trkpt><trkpt lat="43.49056193319494" lon="10.596329005277187"><ele>490.0</ele><time>2026-04-26T10:24:35.003Z</time></trkpt><trkpt lat="43.49047485182911" lon="10.596314208476624"><ele>490.0</ele><time>2026-04-26T10:24:36.003Z</time></trkpt><trkpt lat="43.49039413005766" lon="10.596319548631172"><ele>490.0</ele><time>2026-04-26T10:24:37.003Z</time></trkpt><trkpt lat="43.49031764582774" lon="10.596346940124402"><ele>490.00000000000006</ele><time>2026-04-26T10:24:38.003Z</time></trkpt><trkpt lat="43.490229472786076" lon="10.596397481695387"><ele>490.0</ele><time>2026-04-26T10:24:39.003Z</time></trkpt><trkpt lat="43.49011482825566" lon="10.596464132415965"><ele>490.5</ele><time>2026-04-26T10:24:40.003Z</time></trkpt><trkpt lat="43.48999590938658" lon="10.596537414120794"><ele>491.0</ele><time>2026-04-26T10:24:41.003Z</time></trkpt><trkpt lat="43.48989731835785" lon="10.59657970313348"><ele>491.5</ele><time>2026-04-26T10:24:42.003Z</time></trkpt><trkpt lat="43.489798569960705" lon="10.596580586320584"><ele>492.0</ele><time>2026-04-26T10:24:43.003Z</time></trkpt><trkpt lat="43.48967107192042" lon="10.596571449691675"><ele>492.0</ele><time>2026-04-26T10:24:44.003Z</time></trkpt><trkpt lat="43.489520023808716" lon="10.596536947851968"><ele>492.0</ele><time>2026-04-26T10:24:45.003Z</time></trkpt><trkpt lat="43.48939666177493" lon="10.596503431533554"><ele>492.0</ele><time>2026-04-26T10:24:46.003Z</time></trkpt><trkpt lat="43.48928867335468" lon="10.596449775454989"><ele>492.0</ele><time>2026-04-26T10:24:47.003Z</time></trkpt><trkpt lat="43.489190810605564" lon="10.596393527052257"><ele>492.0</ele><time>2026-04-26T10:24:48.003Z</time></trkpt><trkpt lat="43.489096920175456" lon="10.596339678602934"><ele>492.00000000000006</ele><time>2026-04-26T10:24:49.003Z</time></trkpt><trkpt lat="43.489013497721835" lon="10.59634491827153"><ele>492.00000000000006</ele><time>2026-04-26T10:24:50.003Z</time></trkpt><trkpt lat="43.488936480108705" lon="10.596385898960984"><ele>492.0</ele><time>2026-04-26T10:24:51.003Z</time></trkpt><trkpt lat="43.48885492685354" lon="10.59644488117042"><ele>492.0</ele><time>2026-04-26T10:24:52.003Z</time></trkpt><trkpt lat="43.48878015131858" lon="10.596536863926822"><ele>492.75</ele><time>2026-04-26T10:24:53.003Z</time></trkpt><trkpt lat="43.48869329274745" lon="10.59667156682322"><ele>493.5</ele><time>2026-04-26T10:24:54.003Z</time></trkpt><trkpt lat="43.48861929086977" lon="10.59683673220408"><ele>494.25</ele><time>2026-04-26T10:24:55.003Z</time></trkpt><trkpt lat="43.48855312909763" lon="10.59700057893619"><ele>495.0</ele><time>2026-04-26T10:24:56.003Z</time></trkpt><trkpt lat="43.48850462666747" lon="10.597124889052312"><ele>495.0</ele><time>2026-04-26T10:24:57.003Z</time></trkpt><trkpt lat="43.48847318239136" lon="10.597228440830554"><ele>495.0</ele><time>2026-04-26T10:24:58.003Z</time></trkpt><trkpt lat="43.488448376204516" lon="10.597321003128895"><ele>495.0</ele><time>2026-04-26T10:24:59.003Z</time></trkpt><trkpt lat="43.4884073373748" lon="10.597408530333603"><ele>495.0</ele><time>2026-04-26T10:25:00.003Z</time></trkpt><trkpt lat="43.48834018535901" lon="10.597501240204796"><ele>495.0</ele><time>2026-04-26T10:25:01.003Z</time></trkpt><trkpt lat="43.48825358365604" lon="10.597616238370433"><ele>495.0</ele><time>2026-04-26T10:25:02.003Z</time></trkpt><trkpt lat="43.48816641314102" lon="10.597713052634825"><ele>495.0</ele><time>2026-04-26T10:25:03.003Z</time></trkpt><trkpt lat="43.48808940586071" lon="10.597808419904412"><ele>495.0</ele><time>2026-04-26T10:25:04.003Z</time></trkpt><trkpt lat="43.488022140168894" lon="10.597892274914544"><ele>495.0</ele><time>2026-04-26T10:25:05.003Z</time></trkpt><trkpt lat="43.487966595696506" lon="10.59796419843307"><ele>495.0</ele><time>2026-04-26T10:25:06.003Z</time></trkpt><trkpt lat="43.487908942690964" lon="10.59803229401806"><ele>495.0</ele><time>2026-04-26T10:25:07.004Z</time></trkpt><trkpt lat="43.48785586205442" lon="10.598097498471374"><ele>495.0</ele><time>2026-04-26T10:25:08.004Z</time></trkpt><trkpt lat="43.48774994581779" lon="10.59815697454318"><ele>491.0</ele><time>2026-04-26T10:25:10.004Z</time></trkpt><trkpt lat="43.48766871196893" lon="10.59817104470834"><ele>491.0</ele><time>2026-04-26T10:25:12.004Z</time></trkpt><trkpt lat="43.48760189279688" lon="10.598222004201128"><ele>491.0</ele><time>2026-04-26T10:25:14.004Z</time></trkpt><trkpt lat="43.48759551232344" lon="10.598313713486291"><ele>491.0</ele><time>2026-04-26T10:25:16.004Z</time></trkpt><trkpt lat="43.48765282505804" lon="10.598395151402134"><ele>491.0</ele><time>2026-04-26T10:25:19.004Z</time></trkpt></trkseg><trkseg><trkpt lat="43.487738975733954" lon="10.598568234858641"><ele>491.6</ele><time>2026-04-26T10:44:37.001Z</time></trkpt><trkpt lat="43.48772232945441" lon="10.598687811658012"><ele>492.20000000000005</ele><time>2026-04-26T10:44:40.001Z</time></trkpt><trkpt lat="43.48766460198113" lon="10.598807528977424"><ele>492.79999999999995</ele><time>2026-04-26T10:44:42.001Z</time></trkpt><trkpt lat="43.48760167356405" lon="10.598909326231876"><ele>493.4</ele><time>2026-04-26T10:44:43Z</time></trkpt><trkpt lat="43.4875185250694" lon="10.599035812133303"><ele>494.0</ele><time>2026-04-26T10:44:44Z</time></trkpt><trkpt lat="43.48743942173049" lon="10.599152729112642"><ele>494.0</ele><time>2026-04-26T10:44:45Z</time></trkpt><trkpt lat="43.487359209834494" lon="10.599261939272665"><ele>494.0</ele><time>2026-04-26T10:44:46Z</time></trkpt><trkpt lat="43.48725790353907" lon="10.599385943121032"><ele>494.0</ele><time>2026-04-26T10:44:47Z</time></trkpt><trkpt lat="43.48718271114217" lon="10.599496277299417"><ele>494.0</ele><time>2026-04-26T10:44:48Z</time></trkpt><trkpt lat="43.487117669273374" lon="10.599579722042733"><ele>494.0</ele><time>2026-04-26T10:44:49Z</time></trkpt><trkpt lat="43.48705456565347" lon="10.599636548039197"><ele>495.6</ele><time>2026-04-26T10:44:50Z</time></trkpt><trkpt lat="43.48697102291319" lon="10.599693231844237"><ele>497.2</ele><time>2026-04-26T10:44:51Z</time></trkpt><trkpt lat="43.486889894845675" lon="10.599744607445851"><ele>498.80000000000007</ele><time>2026-04-26T10:44:52Z</time></trkpt><trkpt lat="43.48681413348403" lon="10.599789689378458"><ele>500.40000000000003</ele><time>2026-04-26T10:44:53Z</time></trkpt><trkpt lat="43.486724542568055" lon="10.599810130827512"><ele>502.0</ele><time>2026-04-26T10:44:54Z</time></trkpt><trkpt lat="43.48660669877597" lon="10.59978913341666"><ele>502.0</ele><time>2026-04-26T10:44:55Z</time></trkpt><trkpt lat="43.48646637691261" lon="10.599749791419503"><ele>502.0</ele><time>2026-04-26T10:44:56Z</time></trkpt><trkpt lat="43.48631571234762" lon="10.599709153734556"><ele>502.0</ele><time>2026-04-26T10:44:57Z</time></trkpt><trkpt lat="43.48616524486578" lon="10.599686697113183"><ele>502.0</ele><time>2026-04-26T10:44:58Z</time></trkpt><trkpt lat="43.48602624870913" lon="10.599651964055548"><ele>503.25</ele><time>2026-04-26T10:44:59Z</time></trkpt><trkpt lat="43.48589748153705" lon="10.599641443630835"><ele>504.5</ele><time>2026-04-26T10:45:00Z</time></trkpt><trkpt lat="43.48577856088567" lon="10.599644141238244"><ele>505.75</ele><time>2026-04-26T10:45:01Z</time></trkpt><trkpt lat="43.48566590047373" lon="10.599682161972023"><ele>507.0</ele><time>2026-04-26T10:45:02Z</time></trkpt><trkpt lat="43.48552353789061" lon="10.599739947126176"><ele>506.6</ele><time>2026-04-26T10:45:03Z</time></trkpt><trkpt lat="43.48539484429156" lon="10.599799318123766"><ele>506.20000000000005</ele><time>2026-04-26T10:45:04Z</time></trkpt><trkpt lat="43.48529645196813" lon="10.599865751273208"><ele>505.8</ele><time>2026-04-26T10:45:05Z</time></trkpt><trkpt lat="43.48521042656649" lon="10.599906099017822"><ele>505.4</ele><time>2026-04-26T10:45:06Z</time></trkpt><trkpt lat="43.48511161833214" lon="10.599940841022796"><ele>505.0</ele><time>2026-04-26T10:45:07Z</time></trkpt><trkpt lat="43.48503610576366" lon="10.599956465104068"><ele>505.0</ele><time>2026-04-26T10:45:08Z</time></trkpt><trkpt lat="43.484895253113365" lon="10.599973397819445"><ele>505.0</ele><time>2026-04-26T10:45:09Z</time></trkpt><trkpt lat="43.48473276140651" lon="10.599996982753456"><ele>505.0</ele><time>2026-04-26T10:45:10Z</time></trkpt><trkpt lat="43.48459476395544" lon="10.600006246542371"><ele>505.0</ele><time>2026-04-26T10:45:11Z</time></trkpt><trkpt lat="43.48448868862192" lon="10.600006080713532"><ele>504.5</ele><time>2026-04-26T10:45:12Z</time></trkpt><trkpt lat="43.484370207331715" lon="10.600019100221457"><ele>504.0</ele><time>2026-04-26T10:45:13Z</time></trkpt><trkpt lat="43.48424862485414" lon="10.600045715613549"><ele>503.5</ele><time>2026-04-26T10:45:14Z</time></trkpt><trkpt lat="43.484133155911636" lon="10.60007311636061"><ele>503.0</ele><time>2026-04-26T10:45:15Z</time></trkpt><trkpt lat="43.484023885681154" lon="10.600086726021495"><ele>503.0</ele><time>2026-04-26T10:45:16Z</time></trkpt><trkpt lat="43.48388647716571" lon="10.60009104342656"><ele>503.0</ele><time>2026-04-26T10:45:17Z</time></trkpt><trkpt lat="43.48374354238922" lon="10.600069873578017"><ele>503.0</ele><time>2026-04-26T10:45:18Z</time></trkpt><trkpt lat="43.483617993348176" lon="10.60004835593323"><ele>503.0</ele><time>2026-04-26T10:45:19Z</time></trkpt><trkpt lat="43.48348059013218" lon="10.59998710787111"><ele>501.5</ele><time>2026-04-26T10:45:20Z</time></trkpt><trkpt lat="43.483357136372916" lon="10.599913358599528"><ele>500.0</ele><time>2026-04-26T10:45:21Z</time></trkpt><trkpt lat="43.48323744144555" lon="10.599845362841304"><ele>498.5</ele><time>2026-04-26T10:45:22Z</time></trkpt><trkpt lat="43.48311931666728" lon="10.599770918177642"><ele>497.0</ele><time>2026-04-26T10:45:23Z</time></trkpt><trkpt lat="43.48299095494492" lon="10.599703515706627"><ele>496.66666666666663</ele><time>2026-04-26T10:45:24Z</time></trkpt><trkpt lat="43.482853565307266" lon="10.59963430060685"><ele>496.33333333333337</ele><time>2026-04-26T10:45:25Z</time></trkpt><trkpt lat="43.48271483802009" lon="10.599559362186852"><ele>496.0</ele><time>2026-04-26T10:45:26Z</time></trkpt><trkpt lat="43.4825673671505" lon="10.599475621380938"><ele>496.0</ele><time>2026-04-26T10:45:27Z</time></trkpt><trkpt lat="43.48243913095418" lon="10.5993866927422"><ele>496.0</ele><time>2026-04-26T10:45:28Z</time></trkpt><trkpt lat="43.48231629473095" lon="10.599324674547269"><ele>496.0</ele><time>2026-04-26T10:45:29Z</time></trkpt><trkpt lat="43.4822093463045" lon="10.599288136619858"><ele>496.0</ele><time>2026-04-26T10:45:30Z</time></trkpt><trkpt lat="43.48210356649628" lon="10.599287970633831"><ele>501.33333333333337</ele><time>2026-04-26T10:45:31Z</time></trkpt><trkpt lat="43.48197643173343" lon="10.599315159230796"><ele>506.66666666666663</ele><time>2026-04-26T10:45:32Z</time></trkpt><trkpt lat="43.48181210526954" lon="10.599312647907135"><ele>512.0</ele><time>2026-04-26T10:45:33Z</time></trkpt><trkpt lat="43.48163206181583" lon="10.599325153263381"><ele>512.0</ele><time>2026-04-26T10:45:34Z</time></trkpt><trkpt lat="43.48148354727015" lon="10.599339002436619"><ele>512.0</ele><time>2026-04-26T10:45:35Z</time></trkpt><trkpt lat="43.48137038789505" lon="10.599340031269488"><ele>512.0</ele><time>2026-04-26T10:45:36Z</time></trkpt><trkpt lat="43.48126638408115" lon="10.599354160890831"><ele>512.0</ele><time>2026-04-26T10:45:37Z</time></trkpt><trkpt lat="43.481129840997745" lon="10.599401068685358"><ele>514.75</ele><time>2026-04-26T10:45:38Z</time></trkpt><trkpt lat="43.481001560091485" lon="10.59945498024051"><ele>517.5</ele><time>2026-04-26T10:45:39Z</time></trkpt><trkpt lat="43.48090922236219" lon="10.599483003761279"><ele>520.25</ele><time>2026-04-26T10:45:40Z</time></trkpt><trkpt lat="43.48081032353227" lon="10.599511741088795"><ele>523.0</ele><time>2026-04-26T10:45:41Z</time></trkpt><trkpt lat="43.48069294192433" lon="10.599551338326402"><ele>523.75</ele><time>2026-04-26T10:45:42Z</time></trkpt><trkpt lat="43.48055629344359" lon="10.599601936003795"><ele>524.5</ele><time>2026-04-26T10:45:43Z</time></trkpt><trkpt lat="43.48041932781168" lon="10.599669227937055"><ele>525.25</ele><time>2026-04-26T10:45:44Z</time></trkpt><trkpt lat="43.480309303807466" lon="10.599745314661742"><ele>526.0</ele><time>2026-04-26T10:45:45Z</time></trkpt><trkpt lat="43.480211996189645" lon="10.59982776049632"><ele>526.6666666666667</ele><time>2026-04-26T10:45:46Z</time></trkpt><trkpt lat="43.48013270731078" lon="10.599911399631479"><ele>527.3333333333334</ele><time>2026-04-26T10:45:47Z</time></trkpt><trkpt lat="43.480070602439966" lon="10.600001361322702"><ele>528.0</ele><time>2026-04-26T10:45:48Z</time></trkpt><trkpt lat="43.48001559524474" lon="10.600089572786093"><ele>528.6666666666666</ele><time>2026-04-26T10:45:49Z</time></trkpt><trkpt lat="43.47998756741685" lon="10.600168548915804"><ele>529.3333333333333</ele><time>2026-04-26T10:45:50Z</time></trkpt><trkpt lat="43.47996492508849" lon="10.600318146197166"><ele>530.0</ele><time>2026-04-26T10:45:52Z</time></trkpt><trkpt lat="43.479956331821235" lon="10.600432443210194"><ele>530.8</ele><time>2026-04-26T10:45:53Z</time></trkpt><trkpt lat="43.479953078444744" lon="10.600620031646425"><ele>531.6</ele><time>2026-04-26T10:45:54Z</time></trkpt><trkpt lat="43.47995259893534" lon="10.60078097017356"><ele>532.4</ele><time>2026-04-26T10:45:55Z</time></trkpt><trkpt lat="43.47992873388095" lon="10.600899426677556"><ele>533.2</ele><time>2026-04-26T10:45:56Z</time></trkpt><trkpt lat="43.47989364056706" lon="10.60099420454446"><ele>534.0</ele><time>2026-04-26T10:45:57Z</time></trkpt><trkpt lat="43.47984319456636" lon="10.601075197053607"><ele>534.0</ele><time>2026-04-26T10:45:58Z</time></trkpt><trkpt lat="43.47976816002867" lon="10.601148134750588"><ele>534.0</ele><time>2026-04-26T10:45:59Z</time></trkpt><trkpt lat="43.47965913132764" lon="10.601224934396194"><ele>534.0</ele><time>2026-04-26T10:46:00Z</time></trkpt><trkpt lat="43.479542146825" lon="10.601322504750035"><ele>534.0</ele><time>2026-04-26T10:46:01Z</time></trkpt><trkpt lat="43.47945486744403" lon="10.601428503670093"><ele>535.5</ele><time>2026-04-26T10:46:02Z</time></trkpt><trkpt lat="43.47939639777474" lon="10.60154404955827"><ele>537.0</ele><time>2026-04-26T10:46:03Z</time></trkpt><trkpt lat="43.47934108855032" lon="10.601631211475505"><ele>538.5</ele><time>2026-04-26T10:46:04Z</time></trkpt><trkpt lat="43.47928367164444" lon="10.601707155997891"><ele>540.0</ele><time>2026-04-26T10:46:05Z</time></trkpt><trkpt lat="43.47920885149047" lon="10.601752804259363"><ele>541.5</ele><time>2026-04-26T10:46:06Z</time></trkpt><trkpt lat="43.47913830767348" lon="10.601764691160456"><ele>543.0</ele><time>2026-04-26T10:46:07Z</time></trkpt><trkpt lat="43.47906190199476" lon="10.601742742436052"><ele>543.0</ele><time>2026-04-26T10:46:08Z</time></trkpt><trkpt lat="43.47899473484567" lon="10.60170128203899"><ele>543.0</ele><time>2026-04-26T10:46:09Z</time></trkpt><trkpt lat="43.4789308943231" lon="10.601648828607141"><ele>543.0</ele><time>2026-04-26T10:46:10Z</time></trkpt><trkpt lat="43.478866076090114" lon="10.60160209887641"><ele>543.0</ele><time>2026-04-26T10:46:11Z</time></trkpt><trkpt lat="43.47878739020119" lon="10.601477632559792"><ele>543.0</ele><time>2026-04-26T10:46:13Z</time></trkpt><trkpt lat="43.47876002588828" lon="10.601392760672239"><ele>543.0</ele><time>2026-04-26T10:46:14Z</time></trkpt><trkpt lat="43.47872812544799" lon="10.601272635720658"><ele>542.5</ele><time>2026-04-26T10:46:15Z</time></trkpt><trkpt lat="43.478711044072476" lon="10.601113486118399"><ele>542.0</ele><time>2026-04-26T10:46:16Z</time></trkpt><trkpt lat="43.47868657372388" lon="10.600932546232546"><ele>541.5</ele><time>2026-04-26T10:46:17Z</time></trkpt><trkpt lat="43.478680449101944" lon="10.60075001196074"><ele>541.0</ele><time>2026-04-26T10:46:18Z</time></trkpt><trkpt lat="43.47867785219123" lon="10.600572815459477"><ele>541.0</ele><time>2026-04-26T10:46:19Z</time></trkpt><trkpt lat="43.47868906271559" lon="10.600423565078529"><ele>541.0</ele><time>2026-04-26T10:46:20Z</time></trkpt><trkpt lat="43.47871780090259" lon="10.600270533030164"><ele>541.0</ele><time>2026-04-26T10:46:21Z</time></trkpt><trkpt lat="43.47875284610911" lon="10.60010121200095"><ele>541.0</ele><time>2026-04-26T10:46:22Z</time></trkpt><trkpt lat="43.47877988272634" lon="10.599943224931714"><ele>541.5</ele><time>2026-04-26T10:46:23Z</time></trkpt><trkpt lat="43.47880351093055" lon="10.599809652767222"><ele>542.0</ele><time>2026-04-26T10:46:24Z</time></trkpt><trkpt lat="43.478829126550025" lon="10.599693365435531"><ele>542.5</ele><time>2026-04-26T10:46:25Z</time></trkpt><trkpt lat="43.47885141088224" lon="10.59960308407838"><ele>543.0</ele><time>2026-04-26T10:46:26Z</time></trkpt><trkpt lat="43.47886278306649" lon="10.599497835342351"><ele>543.5</ele><time>2026-04-26T10:46:27Z</time></trkpt><trkpt lat="43.478857715574684" lon="10.599367129973343"><ele>544.0</ele><time>2026-04-26T10:46:28Z</time></trkpt><trkpt lat="43.4788556942354" lon="10.599232565424815"><ele>542.0</ele><time>2026-04-26T10:46:29Z</time></trkpt><trkpt lat="43.4788488125247" lon="10.599095809744542"><ele>540.0</ele><time>2026-04-26T10:46:30Z</time></trkpt><trkpt lat="43.47883556423629" lon="10.598950528773479"><ele>538.0</ele><time>2026-04-26T10:46:31Z</time></trkpt><trkpt lat="43.4788277511659" lon="10.598804222845795"><ele>536.0</ele><time>2026-04-26T10:46:32Z</time></trkpt><trkpt lat="43.47881701086244" lon="10.598658205225291"><ele>534.0</ele><time>2026-04-26T10:46:33Z</time></trkpt><trkpt lat="43.47879170179685" lon="10.598505534715658"><ele>534.0</ele><time>2026-04-26T10:46:34.001Z</time></trkpt><trkpt lat="43.47874905626961" lon="10.598346237492402"><ele>534.0</ele><time>2026-04-26T10:46:35.001Z</time></trkpt><trkpt lat="43.47869859563223" lon="10.598171753292617"><ele>534.0</ele><time>2026-04-26T10:46:36.001Z</time></trkpt><trkpt lat="43.47864556721495" lon="10.598003211560682"><ele>534.0</ele><time>2026-04-26T10:46:37.001Z</time></trkpt><trkpt lat="43.478594483508644" lon="10.597856226173601"><ele>532.6666666666666</ele><time>2026-04-26T10:46:38.001Z</time></trkpt><trkpt lat="43.47854665328277" lon="10.597726517474705"><ele>531.3333333333334</ele><time>2026-04-26T10:46:39.001Z</time></trkpt><trkpt lat="43.47850575620535" lon="10.597617674846022"><ele>530.0</ele><time>2026-04-26T10:46:40.001Z</time></trkpt><trkpt lat="43.478460066030344" lon="10.597520188589021"><ele>528.6666666666667</ele><time>2026-04-26T10:46:41.001Z</time></trkpt><trkpt lat="43.47841281829076" lon="10.597426522992235"><ele>527.3333333333334</ele><time>2026-04-26T10:46:42.001Z</time></trkpt><trkpt lat="43.478356860013236" lon="10.597337886918298"><ele>526.0</ele><time>2026-04-26T10:46:43.001Z</time></trkpt><trkpt lat="43.478294148602785" lon="10.597272142251295"><ele>526.0</ele><time>2026-04-26T10:46:44.001Z</time></trkpt><trkpt lat="43.478231955651914" lon="10.597203544776965"><ele>526.0</ele><time>2026-04-26T10:46:45.001Z</time></trkpt><trkpt lat="43.47816837883041" lon="10.597138831217737"><ele>526.0</ele><time>2026-04-26T10:46:46.001Z</time></trkpt><trkpt lat="43.47810762659955" lon="10.597086751830032"><ele>526.0</ele><time>2026-04-26T10:46:47.001Z</time></trkpt><trkpt lat="43.47804809027927" lon="10.597028081535909"><ele>526.0</ele><time>2026-04-26T10:46:48.001Z</time></trkpt><trkpt lat="43.47799258956416" lon="10.596956484256227"><ele>526.0</ele><time>2026-04-26T10:46:49.001Z</time></trkpt><trkpt lat="43.47792821865341" lon="10.596858478497344"><ele>523.0</ele><time>2026-04-26T10:46:50.001Z</time></trkpt><trkpt lat="43.477855445587316" lon="10.59673627279218"><ele>520.0</ele><time>2026-04-26T10:46:51.001Z</time></trkpt><trkpt lat="43.477787609121975" lon="10.596545768596034"><ele>517.0</ele><time>2026-04-26T10:46:52.001Z</time></trkpt><trkpt lat="43.47772208120415" lon="10.596385249033704"><ele>514.0</ele><time>2026-04-26T10:46:53.001Z</time></trkpt><trkpt lat="43.47765912931854" lon="10.596236032875902"><ele>515.4</ele><time>2026-04-26T10:46:54.001Z</time></trkpt><trkpt lat="43.47760485768196" lon="10.596096744933314"><ele>516.8</ele><time>2026-04-26T10:46:55.001Z</time></trkpt><trkpt lat="43.4775571333058" lon="10.595977772425833"><ele>518.2</ele><time>2026-04-26T10:46:56.001Z</time></trkpt><trkpt lat="43.47752562431312" lon="10.595866476686878"><ele>519.6</ele><time>2026-04-26T10:46:57.001Z</time></trkpt><trkpt lat="43.47750149257829" lon="10.59575135242947"><ele>521.0</ele><time>2026-04-26T10:46:58.001Z</time></trkpt><trkpt lat="43.477494079805425" lon="10.595624798978815"><ele>521.0</ele><time>2026-04-26T10:46:59.001Z</time></trkpt><trkpt lat="43.47749430663534" lon="10.595473271845194"><ele>521.0</ele><time>2026-04-26T10:47:00.001Z</time></trkpt><trkpt lat="43.477501249895106" lon="10.595320631045643"><ele>521.0</ele><time>2026-04-26T10:47:01.001Z</time></trkpt><trkpt lat="43.47750858381459" lon="10.595190407114824"><ele>521.0</ele><time>2026-04-26T10:47:02.001Z</time></trkpt><trkpt lat="43.477509912204354" lon="10.595068206601274"><ele>521.0</ele><time>2026-04-26T10:47:03.001Z</time></trkpt><trkpt lat="43.4775248467475" lon="10.594948073643769"><ele>520.5</ele><time>2026-04-26T10:47:04.001Z</time></trkpt><trkpt lat="43.477525860194795" lon="10.594831775207776"><ele>520.0</ele><time>2026-04-26T10:47:05.001Z</time></trkpt><trkpt lat="43.4775248214713" lon="10.594713685772719"><ele>519.5</ele><time>2026-04-26T10:47:06.001Z</time></trkpt><trkpt lat="43.4775149214574" lon="10.594588542467143"><ele>519.0</ele><time>2026-04-26T10:47:07.001Z</time></trkpt><trkpt lat="43.477500878877194" lon="10.594472375846845"><ele>518.5</ele><time>2026-04-26T10:47:08.001Z</time></trkpt><trkpt lat="43.47747027087881" lon="10.594338002450415"><ele>518.0</ele><time>2026-04-26T10:47:09.001Z</time></trkpt><trkpt lat="43.47743138322905" lon="10.594216363225984"><ele>516.1666666666666</ele><time>2026-04-26T10:47:10.001Z</time></trkpt><trkpt lat="43.47739481567923" lon="10.594105324898539"><ele>514.3333333333333</ele><time>2026-04-26T10:47:11.001Z</time></trkpt><trkpt lat="43.47735641777962" lon="10.593992985964487"><ele>512.5</ele><time>2026-04-26T10:47:12.001Z</time></trkpt><trkpt lat="43.47732249757491" lon="10.59388314188665"><ele>510.66666666666663</ele><time>2026-04-26T10:47:13.001Z</time></trkpt><trkpt lat="43.47729620609567" lon="10.593775430949421"><ele>508.8333333333333</ele><time>2026-04-26T10:47:14.001Z</time></trkpt><trkpt lat="43.47727765110112" lon="10.59366674976368"><ele>507.0</ele><time>2026-04-26T10:47:15.001Z</time></trkpt><trkpt lat="43.47727035220259" lon="10.593555464082065"><ele>505.6</ele><time>2026-04-26T10:47:16.001Z</time></trkpt><trkpt lat="43.477275053960035" lon="10.59343746201894"><ele>504.20000000000005</ele><time>2026-04-26T10:47:17.001Z</time></trkpt><trkpt lat="43.477281564083945" lon="10.593305466627047"><ele>502.8</ele><time>2026-04-26T10:47:18.001Z</time></trkpt><trkpt lat="43.477301044863786" lon="10.593174377543184"><ele>501.4</ele><time>2026-04-26T10:47:19.001Z</time></trkpt><trkpt lat="43.47733108910628" lon="10.593051329414477"><ele>500.0</ele><time>2026-04-26T10:47:20.001Z</time></trkpt><trkpt lat="43.47735880125963" lon="10.592932375988761"><ele>499.2</ele><time>2026-04-26T10:47:21.001Z</time></trkpt><trkpt lat="43.47740111743034" lon="10.59283180164588"><ele>498.4</ele><time>2026-04-26T10:47:22.001Z</time></trkpt><trkpt lat="43.47746574719461" lon="10.59272213015708"><ele>497.6</ele><time>2026-04-26T10:47:23.001Z</time></trkpt><trkpt lat="43.47753549977872" lon="10.592622670679749"><ele>496.8</ele><time>2026-04-26T10:47:24.001Z</time></trkpt><trkpt lat="43.47760885196253" lon="10.592535251126185"><ele>496.0</ele><time>2026-04-26T10:47:25.001Z</time></trkpt><trkpt lat="43.47767984185068" lon="10.592439869870482"><ele>496.00000000000006</ele><time>2026-04-26T10:47:26.001Z</time></trkpt><trkpt lat="43.47774377302571" lon="10.592355595445744"><ele>496.0</ele><time>2026-04-26T10:47:27.001Z</time></trkpt><trkpt lat="43.477795848815795" lon="10.592273714742767"><ele>496.0</ele><time>2026-04-26T10:47:28.001Z</time></trkpt><trkpt lat="43.477834550537274" lon="10.592183801471878"><ele>496.0</ele><time>2026-04-26T10:47:29.001Z</time></trkpt><trkpt lat="43.47786931023088" lon="10.5920804331089"><ele>496.00000000000006</ele><time>2026-04-26T10:47:30.001Z</time></trkpt><trkpt lat="43.47790803932086" lon="10.59196945277921"><ele>496.0</ele><time>2026-04-26T10:47:31.001Z</time></trkpt><trkpt lat="43.4779447453271" lon="10.59185159180861"><ele>491.4</ele><time>2026-04-26T10:47:32.001Z</time></trkpt><trkpt lat="43.47796411199063" lon="10.59172820077846"><ele>486.8</ele><time>2026-04-26T10:47:33.001Z</time></trkpt><trkpt lat="43.47799183909073" lon="10.591589770208149"><ele>482.19999999999993</ele><time>2026-04-26T10:47:34.001Z</time></trkpt><trkpt lat="43.4780204920664" lon="10.591455934816578"><ele>477.59999999999997</ele><time>2026-04-26T10:47:35.001Z</time></trkpt><trkpt lat="43.47803981133308" lon="10.591318394057433"><ele>473.0</ele><time>2026-04-26T10:47:36.001Z</time></trkpt><trkpt lat="43.47806248649813" lon="10.591178664012006"><ele>471.2</ele><time>2026-04-26T10:47:37.001Z</time></trkpt><trkpt lat="43.47809147573211" lon="10.591045537000884"><ele>469.4</ele><time>2026-04-26T10:47:38.001Z</time></trkpt><trkpt lat="43.47812229733962" lon="10.590915220527615"><ele>467.59999999999997</ele><time>2026-04-26T10:47:39.001Z</time></trkpt><trkpt lat="43.478156780059784" lon="10.590780885648353"><ele>465.79999999999995</ele><time>2026-04-26T10:47:40.001Z</time></trkpt><trkpt lat="43.47819275116185" lon="10.590673449082363"><ele>464.0</ele><time>2026-04-26T10:47:41.001Z</time></trkpt><trkpt lat="43.47822299605312" lon="10.590558689405173"><ele>464.0</ele><time>2026-04-26T10:47:42.001Z</time></trkpt><trkpt lat="43.478251079973205" lon="10.590443498343477"><ele>464.0</ele><time>2026-04-26T10:47:43.001Z</time></trkpt><trkpt lat="43.478269202881" lon="10.590306671318576"><ele>464.0</ele><time>2026-04-26T10:47:44.001Z</time></trkpt><trkpt lat="43.47828306722522" lon="10.590154514281476"><ele>464.0</ele><time>2026-04-26T10:47:45.001Z</time></trkpt><trkpt lat="43.47829484259258" lon="10.589994524058158"><ele>464.0</ele><time>2026-04-26T10:47:46.001Z</time></trkpt><trkpt lat="43.47830651610838" lon="10.589824207275699"><ele>462.6</ele><time>2026-04-26T10:47:47.001Z</time></trkpt><trkpt lat="43.478312260657354" lon="10.589674056029356"><ele>461.2</ele><time>2026-04-26T10:47:48.001Z</time></trkpt><trkpt lat="43.478312049941884" lon="10.58953186661623"><ele>459.80000000000007</ele><time>2026-04-26T10:47:49.001Z</time></trkpt><trkpt lat="43.478316360456716" lon="10.589386779168063"><ele>458.40000000000003</ele><time>2026-04-26T10:47:50.001Z</time></trkpt><trkpt lat="43.478316937077466" lon="10.589226372866268"><ele>457.0</ele><time>2026-04-26T10:47:51.001Z</time></trkpt><trkpt lat="43.4783114576231" lon="10.589073450761445"><ele>454.6666666666667</ele><time>2026-04-26T10:47:52.001Z</time></trkpt><trkpt lat="43.47830797366771" lon="10.588922078246972"><ele>452.33333333333337</ele><time>2026-04-26T10:47:53.001Z</time></trkpt><trkpt lat="43.47829671957618" lon="10.588785614489712"><ele>450.0</ele><time>2026-04-26T10:47:54.001Z</time></trkpt><trkpt lat="43.47828437832872" lon="10.588668524589375"><ele>447.66666666666663</ele><time>2026-04-26T10:47:55.001Z</time></trkpt><trkpt lat="43.478267308886025" lon="10.588566419036006"><ele>445.3333333333333</ele><time>2026-04-26T10:47:56.001Z</time></trkpt><trkpt lat="43.47824893409743" lon="10.588478816478073"><ele>443.0</ele><time>2026-04-26T10:47:57.001Z</time></trkpt><trkpt lat="43.478218215411296" lon="10.5883889353023"><ele>441.8333333333333</ele><time>2026-04-26T10:47:58.001Z</time></trkpt><trkpt lat="43.47817378835554" lon="10.588307277870914"><ele>440.66666666666663</ele><time>2026-04-26T10:47:59.001Z</time></trkpt><trkpt lat="43.47810602335825" lon="10.588246410321409"><ele>439.5</ele><time>2026-04-26T10:48:00.001Z</time></trkpt><trkpt lat="43.47802511775586" lon="10.58820400878889"><ele>438.33333333333337</ele><time>2026-04-26T10:48:01.001Z</time></trkpt><trkpt lat="43.47793686669023" lon="10.588162415798605"><ele>437.1666666666667</ele><time>2026-04-26T10:48:02.001Z</time></trkpt><trkpt lat="43.4778532618385" lon="10.588114839926263"><ele>436.0</ele><time>2026-04-26T10:48:03.001Z</time></trkpt><trkpt lat="43.477785625023245" lon="10.588025411282615"><ele>436.0</ele><time>2026-04-26T10:48:04.001Z</time></trkpt><trkpt lat="43.477735925270785" lon="10.587919945938156"><ele>436.0</ele><time>2026-04-26T10:48:05.001Z</time></trkpt><trkpt lat="43.47771711510041" lon="10.587810166087325"><ele>436.0</ele><time>2026-04-26T10:48:06.001Z</time></trkpt><trkpt lat="43.47771925550454" lon="10.587707444585037"><ele>436.0</ele><time>2026-04-26T10:48:07.001Z</time></trkpt><trkpt lat="43.47773367375733" lon="10.587564284085463"><ele>436.0</ele><time>2026-04-26T10:48:08.001Z</time></trkpt><trkpt lat="43.47773620160194" lon="10.587399362881467"><ele>433.75</ele><time>2026-04-26T10:48:09.001Z</time></trkpt><trkpt lat="43.477706956269365" lon="10.587252762847235"><ele>431.5</ele><time>2026-04-26T10:48:10.001Z</time></trkpt><trkpt lat="43.477674038686764" lon="10.587099547460998"><ele>429.25</ele><time>2026-04-26T10:48:11.001Z</time></trkpt><trkpt lat="43.47765187611422" lon="10.586949859648847"><ele>427.0</ele><time>2026-04-26T10:48:12.001Z</time></trkpt><trkpt lat="43.47762703730998" lon="10.586795939475445"><ele>425.6</ele><time>2026-04-26T10:48:13.001Z</time></trkpt><trkpt lat="43.47760202209516" lon="10.586638588986414"><ele>424.20000000000005</ele><time>2026-04-26T10:48:14.001Z</time></trkpt><trkpt lat="43.47756727739604" lon="10.586491847034456"><ele>422.8</ele><time>2026-04-26T10:48:15.001Z</time></trkpt><trkpt lat="43.47752084144526" lon="10.586350523207681"><ele>421.4</ele><time>2026-04-26T10:48:16.001Z</time></trkpt><trkpt lat="43.477485487663856" lon="10.586218672351407"><ele>420.0</ele><time>2026-04-26T10:48:17.001Z</time></trkpt><trkpt lat="43.477454400792745" lon="10.586099009297191"><ele>418.4</ele><time>2026-04-26T10:48:18.001Z</time></trkpt><trkpt lat="43.47743170279057" lon="10.585975908212536"><ele>416.8</ele><time>2026-04-26T10:48:19.001Z</time></trkpt><trkpt lat="43.47741030079398" lon="10.58584983415774"><ele>415.20000000000005</ele><time>2026-04-26T10:48:20.001Z</time></trkpt><trkpt lat="43.47740099752005" lon="10.585721054527273"><ele>413.6</ele><time>2026-04-26T10:48:21.001Z</time></trkpt><trkpt lat="43.477414848269305" lon="10.585593385727668"><ele>412.0</ele><time>2026-04-26T10:48:22.001Z</time></trkpt><trkpt lat="43.477464964377674" lon="10.585450647345114"><ele>409.8</ele><time>2026-04-26T10:48:23.001Z</time></trkpt><trkpt lat="43.477511605623945" lon="10.58532536968431"><ele>407.6</ele><time>2026-04-26T10:48:24.001Z</time></trkpt><trkpt lat="43.47755945674747" lon="10.585224165359373"><ele>405.40000000000003</ele><time>2026-04-26T10:48:25.001Z</time></trkpt><trkpt lat="43.47758283366243" lon="10.585113155204324"><ele>403.20000000000005</ele><time>2026-04-26T10:48:26.001Z</time></trkpt><trkpt lat="43.477595761442835" lon="10.584976085142783"><ele>401.0</ele><time>2026-04-26T10:48:27.001Z</time></trkpt><trkpt lat="43.477597612899395" lon="10.584834488416316"><ele>401.0</ele><time>2026-04-26T10:48:28.001Z</time></trkpt><trkpt lat="43.477598035675754" lon="10.5846851926116"><ele>401.0</ele><time>2026-04-26T10:48:29.001Z</time></trkpt><trkpt lat="43.47760211816707" lon="10.584536711870689"><ele>401.0</ele><time>2026-04-26T10:48:30.001Z</time></trkpt><trkpt lat="43.47760433303267" lon="10.58439853455634"><ele>401.0</ele><time>2026-04-26T10:48:31.001Z</time></trkpt><trkpt lat="43.47759606531394" lon="10.584260856927068"><ele>401.0</ele><time>2026-04-26T10:48:32.001Z</time></trkpt><trkpt lat="43.4775883028812" lon="10.584123978663918"><ele>399.20000000000005</ele><time>2026-04-26T10:48:33.001Z</time></trkpt><trkpt lat="43.4775787639133" lon="10.583989142537025"><ele>397.40000000000003</ele><time>2026-04-26T10:48:34.001Z</time></trkpt><trkpt lat="43.47755485123509" lon="10.58383923370949"><ele>395.6</ele><time>2026-04-26T10:48:35.001Z</time></trkpt><trkpt lat="43.47753363317537" lon="10.583698713297988"><ele>393.8</ele><time>2026-04-26T10:48:36.001Z</time></trkpt><trkpt lat="43.47751017927028" lon="10.583561873848302"><ele>392.0</ele><time>2026-04-26T10:48:37.001Z</time></trkpt><trkpt lat="43.4774929904082" lon="10.583429274616053"><ele>390.8</ele><time>2026-04-26T10:48:38.001Z</time></trkpt><trkpt lat="43.477475044313884" lon="10.58328341100075"><ele>389.6</ele><time>2026-04-26T10:48:39.001Z</time></trkpt><trkpt lat="43.47746080404859" lon="10.583140872427997"><ele>388.40000000000003</ele><time>2026-04-26T10:48:40.001Z</time></trkpt><trkpt lat="43.47744241926307" lon="10.58300995065382"><ele>387.20000000000005</ele><time>2026-04-26T10:48:41.001Z</time></trkpt><trkpt lat="43.4774122158884" lon="10.582882712024194"><ele>386.0</ele><time>2026-04-26T10:48:42.001Z</time></trkpt><trkpt lat="43.477378221657624" lon="10.582754443959649"><ele>384.8</ele><time>2026-04-26T10:48:43.001Z</time></trkpt><trkpt lat="43.47734776510084" lon="10.582623127357373"><ele>383.6</ele><time>2026-04-26T10:48:44.001Z</time></trkpt><trkpt lat="43.47731599666395" lon="10.582491988990187"><ele>382.4</ele><time>2026-04-26T10:48:45.001Z</time></trkpt><trkpt lat="43.47729581144042" lon="10.582372611472382"><ele>381.2</ele><time>2026-04-26T10:48:46.001Z</time></trkpt><trkpt lat="43.47726698424918" lon="10.58226411200875"><ele>380.0</ele><time>2026-04-26T10:48:47.001Z</time></trkpt><trkpt lat="43.47723733927166" lon="10.582157775542928"><ele>380.0</ele><time>2026-04-26T10:48:48.001Z</time></trkpt><trkpt lat="43.47720373922103" lon="10.582062048713615"><ele>380.0</ele><time>2026-04-26T10:48:49.001Z</time></trkpt><trkpt lat="43.4771710639062" lon="10.58196775527044"><ele>380.0</ele><time>2026-04-26T10:48:50.001Z</time></trkpt><trkpt lat="43.477133442962774" lon="10.581877941996826"><ele>380.0</ele><time>2026-04-26T10:48:51.001Z</time></trkpt><trkpt lat="43.47710182529028" lon="10.58177286521802"><ele>380.0</ele><time>2026-04-26T10:48:52.001Z</time></trkpt><trkpt lat="43.47708216004907" lon="10.581650650515115"><ele>380.0</ele><time>2026-04-26T10:48:53.001Z</time></trkpt><trkpt lat="43.47707375765209" lon="10.58154168391863"><ele>375.0</ele><time>2026-04-26T10:48:54.001Z</time></trkpt><trkpt lat="43.477069561370755" lon="10.581424482200696"><ele>370.0</ele><time>2026-04-26T10:48:55.001Z</time></trkpt><trkpt lat="43.47706982912612" lon="10.581308280933975"><ele>365.0</ele><time>2026-04-26T10:48:56.001Z</time></trkpt><trkpt lat="43.47707258704091" lon="10.581188275356542"><ele>360.0</ele><time>2026-04-26T10:48:57.001Z</time></trkpt><trkpt lat="43.47707653888702" lon="10.581075454523592"><ele>355.0</ele><time>2026-04-26T10:48:58.001Z</time></trkpt><trkpt lat="43.477072411565224" lon="10.580976353039482"><ele>350.0</ele><time>2026-04-26T10:48:59.001Z</time></trkpt><trkpt lat="43.47704538244269" lon="10.580875866584119"><ele>349.83333333333337</ele><time>2026-04-26T10:49:00.001Z</time></trkpt><trkpt lat="43.47701865768189" lon="10.580792984862724"><ele>349.6666666666667</ele><time>2026-04-26T10:49:01.001Z</time></trkpt><trkpt lat="43.4769758033026" lon="10.580673003302046"><ele>349.5</ele><time>2026-04-26T10:49:03.001Z</time></trkpt><trkpt lat="43.476942286282714" lon="10.580556770779522"><ele>349.3333333333333</ele><time>2026-04-26T10:49:05.001Z</time></trkpt><trkpt lat="43.47692030821118" lon="10.580463110732689"><ele>349.16666666666663</ele><time>2026-04-26T10:49:07.001Z</time></trkpt><trkpt lat="43.47689303991946" lon="10.580371889061443"><ele>349.0</ele><time>2026-04-26T10:49:10.001Z</time></trkpt><trkpt lat="43.47684068901272" lon="10.580428512482998"><ele>349.0</ele><time>2026-04-26T10:49:23.002Z</time></trkpt><trkpt lat="43.47683784649681" lon="10.580559979199233"><ele>349.0</ele><time>2026-04-26T10:50:14.002Z</time></trkpt><trkpt lat="43.47680401517591" lon="10.580698906572783"><ele>349.0</ele><time>2026-04-26T10:50:16.002Z</time></trkpt><trkpt lat="43.47678569991162" lon="10.580872099997393"><ele>349.0</ele><time>2026-04-26T10:50:18.002Z</time></trkpt><trkpt lat="43.476789773267406" lon="10.580977427234304"><ele>349.0</ele><time>2026-04-26T10:50:19.002Z</time></trkpt><trkpt lat="43.4768032487708" lon="10.581084535435128"><ele>349.1428571428571</ele><time>2026-04-26T10:50:20.002Z</time></trkpt><trkpt lat="43.476817784120136" lon="10.581186516141889"><ele>349.2857142857143</ele><time>2026-04-26T10:50:21.002Z</time></trkpt><trkpt lat="43.476829728807544" lon="10.581284780555565"><ele>349.42857142857144</ele><time>2026-04-26T10:50:22.002Z</time></trkpt><trkpt lat="43.476839391901265" lon="10.581379718305596"><ele>349.57142857142856</ele><time>2026-04-26T10:50:23.002Z</time></trkpt><trkpt lat="43.47685232314825" lon="10.58148036719488"><ele>349.7142857142857</ele><time>2026-04-26T10:50:24.002Z</time></trkpt><trkpt lat="43.47686133655272" lon="10.58157660685512"><ele>349.85714285714283</ele><time>2026-04-26T10:50:25.002Z</time></trkpt><trkpt lat="43.476875954643525" lon="10.581678962810503"><ele>350.0</ele><time>2026-04-26T10:50:26.002Z</time></trkpt><trkpt lat="43.47688614118225" lon="10.581788631690404"><ele>350.0</ele><time>2026-04-26T10:50:27.002Z</time></trkpt><trkpt lat="43.47689161678989" lon="10.58190105233253"><ele>350.0</ele><time>2026-04-26T10:50:28.002Z</time></trkpt><trkpt lat="43.476902561305934" lon="10.582005707884607"><ele>350.0</ele><time>2026-04-26T10:50:29.002Z</time></trkpt><trkpt lat="43.47691402266174" lon="10.582111044605172"><ele>350.0</ele><time>2026-04-26T10:50:30.002Z</time></trkpt><trkpt lat="43.476921783756815" lon="10.582210512708288"><ele>350.0</ele><time>2026-04-26T10:50:31.002Z</time></trkpt><trkpt lat="43.47690980737667" lon="10.58231274361898"><ele>350.0</ele><time>2026-04-26T10:50:32.002Z</time></trkpt><trkpt lat="43.4768764233632" lon="10.582423149025386"><ele>351.2</ele><time>2026-04-26T10:50:33.002Z</time></trkpt><trkpt lat="43.476833275952806" lon="10.582523666597163"><ele>352.4</ele><time>2026-04-26T10:50:34.002Z</time></trkpt><trkpt lat="43.47678867064946" lon="10.582623884399716"><ele>353.6</ele><time>2026-04-26T10:50:35.002Z</time></trkpt><trkpt lat="43.476756602361895" lon="10.582710881542368"><ele>354.8</ele><time>2026-04-26T10:50:36.002Z</time></trkpt><trkpt lat="43.47672259059419" lon="10.582819507814657"><ele>356.0</ele><time>2026-04-26T10:50:37.002Z</time></trkpt><trkpt lat="43.476690908435316" lon="10.582999917849381"><ele>357.75</ele><time>2026-04-26T10:50:38.002Z</time></trkpt><trkpt lat="43.47668147850734" lon="10.583191979712904"><ele>359.5</ele><time>2026-04-26T10:50:39.002Z</time></trkpt><trkpt lat="43.47668115544359" lon="10.58335557512357"><ele>361.25</ele><time>2026-04-26T10:50:40.002Z</time></trkpt><trkpt lat="43.476662772879784" lon="10.583503608092434"><ele>363.0</ele><time>2026-04-26T10:50:41.002Z</time></trkpt><trkpt lat="43.47664117376623" lon="10.583632795067375"><ele>364.79999999999995</ele><time>2026-04-26T10:50:42.002Z</time></trkpt><trkpt lat="43.47661985333822" lon="10.583746479547028"><ele>366.6</ele><time>2026-04-26T10:50:43.002Z</time></trkpt><trkpt lat="43.47659603318778" lon="10.583860172646023"><ele>368.4</ele><time>2026-04-26T10:50:44.002Z</time></trkpt><trkpt lat="43.47658008738423" lon="10.583995807011323"><ele>370.20000000000005</ele><time>2026-04-26T10:50:45.002Z</time></trkpt><trkpt lat="43.47658163532563" lon="10.58414214162081"><ele>372.0</ele><time>2026-04-26T10:50:46.002Z</time></trkpt><trkpt lat="43.47658774415551" lon="10.584279406489824"><ele>372.0</ele><time>2026-04-26T10:50:47.002Z</time></trkpt><trkpt lat="43.476606917401" lon="10.58439007854324"><ele>372.0</ele><time>2026-04-26T10:50:48.002Z</time></trkpt><trkpt lat="43.47662188498859" lon="10.584481212825134"><ele>372.0</ele><time>2026-04-26T10:50:49.002Z</time></trkpt><trkpt lat="43.476637319775364" lon="10.584629539780313"><ele>372.0</ele><time>2026-04-26T10:50:51.002Z</time></trkpt><trkpt lat="43.47658044831599" lon="10.584731534792967"><ele>372.0</ele><time>2026-04-26T10:50:53.002Z</time></trkpt><trkpt lat="43.47646707881428" lon="10.58478974373824"><ele>372.0</ele><time>2026-04-26T10:50:55.002Z</time></trkpt><trkpt lat="43.4764140358124" lon="10.584865261660235"><ele>372.0</ele><time>2026-04-26T10:50:56.002Z</time></trkpt><trkpt lat="43.476346758717945" lon="10.58493058421454"><ele>372.0</ele><time>2026-04-26T10:50:57.002Z</time></trkpt><trkpt lat="43.47629749745873" lon="10.585015843354812"><ele>372.0</ele><time>2026-04-26T10:50:58.002Z</time></trkpt><trkpt lat="43.4762706050424" lon="10.585126839491481"><ele>372.0</ele><time>2026-04-26T10:50:59.002Z</time></trkpt><trkpt lat="43.47624823479811" lon="10.585251543210036"><ele>372.0</ele><time>2026-04-26T10:51:00.002Z</time></trkpt><trkpt lat="43.47622617502951" lon="10.58538182794879"><ele>372.0</ele><time>2026-04-26T10:51:01.002Z</time></trkpt><trkpt lat="43.4762237011225" lon="10.585506438706213"><ele>372.0</ele><time>2026-04-26T10:51:02.002Z</time></trkpt><trkpt lat="43.47621200675975" lon="10.585632090916045"><ele>372.0</ele><time>2026-04-26T10:51:03.002Z</time></trkpt><trkpt lat="43.47620546193212" lon="10.585758738526376"><ele>372.0</ele><time>2026-04-26T10:51:04.002Z</time></trkpt><trkpt lat="43.47622100376585" lon="10.585873369440117"><ele>372.0</ele><time>2026-04-26T10:51:05.002Z</time></trkpt><trkpt lat="43.47622792492025" lon="10.58596191517325"><ele>372.0</ele><time>2026-04-26T10:51:06.002Z</time></trkpt><trkpt lat="43.47621564484196" lon="10.586086596110235"><ele>372.0</ele><time>2026-04-26T10:51:08.002Z</time></trkpt><trkpt lat="43.476135091355644" lon="10.586116826418097"><ele>372.0</ele><time>2026-04-26T10:51:10.002Z</time></trkpt><trkpt lat="43.476066902110446" lon="10.58603323556942"><ele>372.0</ele><time>2026-04-26T10:51:11.002Z</time></trkpt><trkpt lat="43.47599807299832" lon="10.586033396344469"><ele>372.0</ele><time>2026-04-26T10:51:12.002Z</time></trkpt><trkpt lat="43.4759226596435" lon="10.586050101352438"><ele>372.0</ele><time>2026-04-26T10:51:13.002Z</time></trkpt><trkpt lat="43.475853444709365" lon="10.586105873848442"><ele>372.0</ele><time>2026-04-26T10:51:14.002Z</time></trkpt><trkpt lat="43.47581986309058" lon="10.586193273841838"><ele>374.40000000000003</ele><time>2026-04-26T10:51:15.002Z</time></trkpt><trkpt lat="43.47578979768403" lon="10.586292410211001"><ele>376.8</ele><time>2026-04-26T10:51:16.002Z</time></trkpt><trkpt lat="43.47579944284557" lon="10.586458638039721"><ele>379.2</ele><time>2026-04-26T10:51:17.002Z</time></trkpt><trkpt lat="43.47582364952377" lon="10.586593649623845"><ele>381.6</ele><time>2026-04-26T10:51:18.002Z</time></trkpt><trkpt lat="43.47586888376863" lon="10.586703023291653"><ele>384.0</ele><time>2026-04-26T10:51:19.002Z</time></trkpt><trkpt lat="43.47593312818099" lon="10.586796369715593"><ele>384.0</ele><time>2026-04-26T10:51:20.002Z</time></trkpt><trkpt lat="43.47597731077222" lon="10.586872707181735"><ele>384.0</ele><time>2026-04-26T10:51:21.002Z</time></trkpt><trkpt lat="43.475976098704734" lon="10.586986660991448"><ele>384.0</ele><time>2026-04-26T10:51:23.002Z</time></trkpt><trkpt lat="43.47589204318941" lon="10.586997265074128"><ele>384.0</ele><time>2026-04-26T10:51:25.002Z</time></trkpt><trkpt lat="43.47581764644553" lon="10.586897817998715"><ele>384.0</ele><time>2026-04-26T10:51:27.002Z</time></trkpt><trkpt lat="43.475738461234315" lon="10.586854786377277"><ele>384.0</ele><time>2026-04-26T10:51:28.002Z</time></trkpt><trkpt lat="43.475640058179906" lon="10.586804079858801"><ele>384.0</ele><time>2026-04-26T10:51:29.002Z</time></trkpt><trkpt lat="43.47554867171307" lon="10.586762662194928"><ele>384.0</ele><time>2026-04-26T10:51:30.002Z</time></trkpt><trkpt lat="43.475456772343364" lon="10.586750835597377"><ele>384.0</ele><time>2026-04-26T10:51:31.002Z</time></trkpt><trkpt lat="43.475365103989766" lon="10.586804346991938"><ele>384.0</ele><time>2026-04-26T10:51:32.002Z</time></trkpt><trkpt lat="43.475258716853666" lon="10.586928822002397"><ele>384.0</ele><time>2026-04-26T10:51:33.002Z</time></trkpt><trkpt lat="43.475171041481815" lon="10.587013347355438"><ele>385.79999999999995</ele><time>2026-04-26T10:51:34.002Z</time></trkpt><trkpt lat="43.47509477393285" lon="10.587103704031188"><ele>387.59999999999997</ele><time>2026-04-26T10:51:35.002Z</time></trkpt><trkpt lat="43.47503636812301" lon="10.587222452995075"><ele>389.4</ele><time>2026-04-26T10:51:36.002Z</time></trkpt><trkpt lat="43.475005027421666" lon="10.587377756919533"><ele>391.2</ele><time>2026-04-26T10:51:37.002Z</time></trkpt><trkpt lat="43.475005568624105" lon="10.587539423552052"><ele>393.0</ele><time>2026-04-26T10:51:38.002Z</time></trkpt><trkpt lat="43.47496635615829" lon="10.587640527477065"><ele>393.0</ele><time>2026-04-26T10:51:39.002Z</time></trkpt><trkpt lat="43.47490571314986" lon="10.587730293350852"><ele>393.0</ele><time>2026-04-26T10:51:41.002Z</time></trkpt><trkpt lat="43.47483879402149" lon="10.587697084179668"><ele>393.0</ele><time>2026-04-26T10:51:43.002Z</time></trkpt><trkpt lat="43.474773610594106" lon="10.58752677601389"><ele>393.0</ele><time>2026-04-26T10:51:45.002Z</time></trkpt><trkpt lat="43.47471119175866" lon="10.587410951695647"><ele>393.0</ele><time>2026-04-26T10:51:46.002Z</time></trkpt><trkpt lat="43.47466786776118" lon="10.587328383311785"><ele>391.25</ele><time>2026-04-26T10:51:47.002Z</time></trkpt><trkpt lat="43.47457805232414" lon="10.587303678750093"><ele>389.5</ele><time>2026-04-26T10:51:48.002Z</time></trkpt><trkpt lat="43.47446825086764" lon="10.587351217437606"><ele>387.75</ele><time>2026-04-26T10:51:49.002Z</time></trkpt><trkpt lat="43.47435112893388" lon="10.58741511715758"><ele>386.0</ele><time>2026-04-26T10:51:50.002Z</time></trkpt><trkpt lat="43.47422484191632" lon="10.587471292742077"><ele>386.0</ele><time>2026-04-26T10:51:51.002Z</time></trkpt><trkpt lat="43.47413431466488" lon="10.587560331463056"><ele>386.0</ele><time>2026-04-26T10:51:52.002Z</time></trkpt><trkpt lat="43.474054878278864" lon="10.587619772619668"><ele>386.0</ele><time>2026-04-26T10:51:53.002Z</time></trkpt><trkpt lat="43.474012686563526" lon="10.58775067588258"><ele>386.0</ele><time>2026-04-26T10:51:54.002Z</time></trkpt><trkpt lat="43.47396793722187" lon="10.587855603833779"><ele>386.0</ele><time>2026-04-26T10:51:55.002Z</time></trkpt><trkpt lat="43.473979821375636" lon="10.587974055721793"><ele>387.99999999999994</ele><time>2026-04-26T10:51:56.002Z</time></trkpt><trkpt lat="43.47400058837656" lon="10.588063796875328"><ele>390.0</ele><time>2026-04-26T10:51:57.002Z</time></trkpt><trkpt lat="43.474072750836996" lon="10.588133026858944"><ele>392.0</ele><time>2026-04-26T10:51:58.002Z</time></trkpt><trkpt lat="43.474091212633326" lon="10.588229313904609"><ele>394.0</ele><time>2026-04-26T10:51:59.002Z</time></trkpt><trkpt lat="43.47411415155534" lon="10.58835242335233"><ele>395.99999999999994</ele><time>2026-04-26T10:52:01.002Z</time></trkpt><trkpt lat="43.47404293566358" lon="10.588371117679907"><ele>398.0</ele><time>2026-04-26T10:52:02.002Z</time></trkpt><trkpt lat="43.47391243646146" lon="10.588476393795014"><ele>398.0</ele><time>2026-04-26T10:52:04.002Z</time></trkpt><trkpt lat="43.47381638788396" lon="10.588578846117331"><ele>398.0</ele><time>2026-04-26T10:52:05.002Z</time></trkpt><trkpt lat="43.47372271369518" lon="10.588693573968811"><ele>398.0</ele><time>2026-04-26T10:52:06.002Z</time></trkpt><trkpt lat="43.47366341086514" lon="10.58880739872642"><ele>398.0</ele><time>2026-04-26T10:52:07.002Z</time></trkpt><trkpt lat="43.4736349829173" lon="10.58892500114744"><ele>398.0</ele><time>2026-04-26T10:52:08.002Z</time></trkpt><trkpt lat="43.47365970431656" lon="10.589074746825338"><ele>397.0</ele><time>2026-04-26T10:52:09.002Z</time></trkpt><trkpt lat="43.473673300560925" lon="10.589246828939746"><ele>396.0</ele><time>2026-04-26T10:52:10.002Z</time></trkpt><trkpt lat="43.47371026103464" lon="10.589456578926116"><ele>395.0</ele><time>2026-04-26T10:52:11.003Z</time></trkpt><trkpt lat="43.473740265532186" lon="10.589613748862142"><ele>394.0</ele><time>2026-04-26T10:52:12.003Z</time></trkpt><trkpt lat="43.47376771531928" lon="10.589738486330418"><ele>397.0</ele><time>2026-04-26T10:52:13.003Z</time></trkpt><trkpt lat="43.47377396626056" lon="10.589863731571425"><ele>400.0</ele><time>2026-04-26T10:52:15.003Z</time></trkpt><trkpt lat="43.47367093300249" lon="10.589867835481474"><ele>403.0</ele><time>2026-04-26T10:52:17.003Z</time></trkpt><trkpt lat="43.47362938419289" lon="10.589767482617104"><ele>406.0</ele><time>2026-04-26T10:52:18.003Z</time></trkpt><trkpt lat="43.47348664442824" lon="10.589674958052983"><ele>409.0</ele><time>2026-04-26T10:52:20.003Z</time></trkpt><trkpt lat="43.47339098276628" lon="10.58962415292658"><ele>409.0</ele><time>2026-04-26T10:52:21.003Z</time></trkpt><trkpt lat="43.47326892935676" lon="10.589614435672923"><ele>409.0</ele><time>2026-04-26T10:52:22.003Z</time></trkpt><trkpt lat="43.47315994688104" lon="10.589657718160215"><ele>409.0</ele><time>2026-04-26T10:52:23.003Z</time></trkpt><trkpt lat="43.473060029861976" lon="10.589752020885442"><ele>409.0</ele><time>2026-04-26T10:52:24.003Z</time></trkpt><trkpt lat="43.47296807886674" lon="10.589899099477345"><ele>405.5</ele><time>2026-04-26T10:52:25.003Z</time></trkpt><trkpt lat="43.47288165791732" lon="10.5900231922838"><ele>402.0</ele><time>2026-04-26T10:52:26.003Z</time></trkpt><trkpt lat="43.47278596935447" lon="10.590133571741886"><ele>398.5</ele><time>2026-04-26T10:52:27.003Z</time></trkpt><trkpt lat="43.472699031651054" lon="10.590229024208107"><ele>395.0</ele><time>2026-04-26T10:52:28.003Z</time></trkpt><trkpt lat="43.47263258254917" lon="10.590313662489226"><ele>395.6</ele><time>2026-04-26T10:52:29.003Z</time></trkpt><trkpt lat="43.4726009409651" lon="10.590406421515885"><ele>396.2</ele><time>2026-04-26T10:52:30.003Z</time></trkpt><trkpt lat="43.47260882372706" lon="10.59051501027515"><ele>396.79999999999995</ele><time>2026-04-26T10:52:31.003Z</time></trkpt><trkpt lat="43.47267275893038" lon="10.5906462286811"><ele>397.4</ele><time>2026-04-26T10:52:32.003Z</time></trkpt><trkpt lat="43.47273110112777" lon="10.59078409739878"><ele>398.0</ele><time>2026-04-26T10:52:33.003Z</time></trkpt><trkpt lat="43.47282209662472" lon="10.590936237822685"><ele>398.0</ele><time>2026-04-26T10:52:34.003Z</time></trkpt><trkpt lat="43.47290439078535" lon="10.591044216859116"><ele>398.0</ele><time>2026-04-26T10:52:35.003Z</time></trkpt><trkpt lat="43.47300658258991" lon="10.59115854144276"><ele>398.0</ele><time>2026-04-26T10:52:36.003Z</time></trkpt><trkpt lat="43.47308994085164" lon="10.59128738269593"><ele>398.0</ele><time>2026-04-26T10:52:37.003Z</time></trkpt><trkpt lat="43.47317215871939" lon="10.591375643480227"><ele>400.79999999999995</ele><time>2026-04-26T10:52:38.003Z</time></trkpt><trkpt lat="43.473164428295235" lon="10.591501844210539"><ele>403.6</ele><time>2026-04-26T10:52:39.003Z</time></trkpt><trkpt lat="43.473182919363694" lon="10.59164089304448"><ele>406.4</ele><time>2026-04-26T10:52:40.003Z</time></trkpt><trkpt lat="43.47321432389461" lon="10.591751130285882"><ele>409.20000000000005</ele><time>2026-04-26T10:52:41.003Z</time></trkpt><trkpt lat="43.47329389189157" lon="10.591867006213068"><ele>412.0</ele><time>2026-04-26T10:52:42.003Z</time></trkpt><trkpt lat="43.47333873209278" lon="10.592034642979318"><ele>412.0</ele><time>2026-04-26T10:52:43.003Z</time></trkpt><trkpt lat="43.47336725317236" lon="10.592164510906365"><ele>412.0</ele><time>2026-04-26T10:52:44.003Z</time></trkpt><trkpt lat="43.47337839407645" lon="10.592297443157653"><ele>412.0</ele><time>2026-04-26T10:52:45.003Z</time></trkpt><trkpt lat="43.47339392067545" lon="10.592465076225828"><ele>412.0</ele><time>2026-04-26T10:52:46.003Z</time></trkpt><trkpt lat="43.47340247113478" lon="10.592641659521847"><ele>412.0</ele><time>2026-04-26T10:52:47.003Z</time></trkpt><trkpt lat="43.47340603823686" lon="10.59280079593834"><ele>411.5</ele><time>2026-04-26T10:52:48.003Z</time></trkpt><trkpt lat="43.473404711424145" lon="10.59295151391956"><ele>411.0</ele><time>2026-04-26T10:52:49.003Z</time></trkpt><trkpt lat="43.47341697241021" lon="10.593087509500766"><ele>410.5</ele><time>2026-04-26T10:52:50.003Z</time></trkpt><trkpt lat="43.473396888180794" lon="10.59326813037185"><ele>410.0</ele><time>2026-04-26T10:52:51.003Z</time></trkpt><trkpt lat="43.47340302857103" lon="10.593468791369808"><ele>410.0</ele><time>2026-04-26T10:52:52.003Z</time></trkpt><trkpt lat="43.473411791774964" lon="10.593661153718552"><ele>410.0</ele><time>2026-04-26T10:52:53.003Z</time></trkpt><trkpt lat="43.47342031570129" lon="10.593806454285104"><ele>410.0</ele><time>2026-04-26T10:52:54.003Z</time></trkpt><trkpt lat="43.47342949426703" lon="10.593954200167275"><ele>410.0</ele><time>2026-04-26T10:52:55.003Z</time></trkpt><trkpt lat="43.47343665141272" lon="10.594109957718674"><ele>410.75</ele><time>2026-04-26T10:52:56.003Z</time></trkpt><trkpt lat="43.47345880869107" lon="10.594277880032728"><ele>411.5</ele><time>2026-04-26T10:52:57.003Z</time></trkpt><trkpt lat="43.47350611202072" lon="10.594465151080955"><ele>412.25</ele><time>2026-04-26T10:52:58.003Z</time></trkpt><trkpt lat="43.473563100037275" lon="10.59464420053674"><ele>413.0</ele><time>2026-04-26T10:52:59.003Z</time></trkpt><trkpt lat="43.47362248461813" lon="10.594803844961598"><ele>414.2</ele><time>2026-04-26T10:53:00.003Z</time></trkpt><trkpt lat="43.4736974140822" lon="10.594950397471637"><ele>415.4</ele><time>2026-04-26T10:53:01.003Z</time></trkpt><trkpt lat="43.47378587110672" lon="10.59506625067394"><ele>416.59999999999997</ele><time>2026-04-26T10:53:02.003Z</time></trkpt><trkpt lat="43.47385435024835" lon="10.595173543266728"><ele>417.79999999999995</ele><time>2026-04-26T10:53:03.003Z</time></trkpt><trkpt lat="43.473911500309875" lon="10.59526308553453"><ele>419.0</ele><time>2026-04-26T10:53:04.003Z</time></trkpt><trkpt lat="43.47394342450016" lon="10.595344442888042"><ele>422.79999999999995</ele><time>2026-04-26T10:53:05.003Z</time></trkpt><trkpt lat="43.47402346971412" lon="10.595448816020781"><ele>426.59999999999997</ele><time>2026-04-26T10:53:07.003Z</time></trkpt><trkpt lat="43.47395458022288" lon="10.595597342728391"><ele>430.4</ele><time>2026-04-26T10:53:09.003Z</time></trkpt><trkpt lat="43.47386702219464" lon="10.595596514226012"><ele>434.2</ele><time>2026-04-26T10:53:10.003Z</time></trkpt><trkpt lat="43.4737943043076" lon="10.595569756856474"><ele>438.0</ele><time>2026-04-26T10:53:11.003Z</time></trkpt><trkpt lat="43.47369669104604" lon="10.59557132682427"><ele>438.0</ele><time>2026-04-26T10:53:12.003Z</time></trkpt><trkpt lat="43.473609146134265" lon="10.59554197495759"><ele>438.0</ele><time>2026-04-26T10:53:13.003Z</time></trkpt><trkpt lat="43.47350316017006" lon="10.595515018499901"><ele>438.0</ele><time>2026-04-26T10:53:14.003Z</time></trkpt><trkpt lat="43.47338499528244" lon="10.595473296515316"><ele>438.0</ele><time>2026-04-26T10:53:15.003Z</time></trkpt><trkpt lat="43.473255568247225" lon="10.595422826710214"><ele>438.0</ele><time>2026-04-26T10:53:16.003Z</time></trkpt><trkpt lat="43.47313862500616" lon="10.595403211419487"><ele>437.99999999999994</ele><time>2026-04-26T10:53:17.003Z</time></trkpt><trkpt lat="43.473047495764206" lon="10.595375288333654"><ele>437.99999999999994</ele><time>2026-04-26T10:53:18.003Z</time></trkpt><trkpt lat="43.472973624669535" lon="10.595373875143496"><ele>438.0</ele><time>2026-04-26T10:53:19.003Z</time></trkpt><trkpt lat="43.47289902604152" lon="10.595408126538192"><ele>438.0</ele><time>2026-04-26T10:53:20.003Z</time></trkpt><trkpt lat="43.47279729477622" lon="10.595533075699556"><ele>437.25</ele><time>2026-04-26T10:53:22.003Z</time></trkpt><trkpt lat="43.47276522971751" lon="10.595668746155251"><ele>436.5</ele><time>2026-04-26T10:53:23.003Z</time></trkpt><trkpt lat="43.47274797967466" lon="10.595813419013545"><ele>435.75</ele><time>2026-04-26T10:53:24.003Z</time></trkpt><trkpt lat="43.47274319808129" lon="10.596003086907865"><ele>435.0</ele><time>2026-04-26T10:53:25.003Z</time></trkpt><trkpt lat="43.47274057132269" lon="10.596198953616195"><ele>435.0</ele><time>2026-04-26T10:53:26.003Z</time></trkpt><trkpt lat="43.47274054350209" lon="10.596386435144952"><ele>435.0</ele><time>2026-04-26T10:53:27.003Z</time></trkpt><trkpt lat="43.472742978402565" lon="10.596542841176992"><ele>435.0</ele><time>2026-04-26T10:53:28.003Z</time></trkpt><trkpt lat="43.47272338216121" lon="10.596660080575552"><ele>435.0</ele><time>2026-04-26T10:53:29.003Z</time></trkpt><trkpt lat="43.47272888867714" lon="10.596774353761068"><ele>435.0</ele><time>2026-04-26T10:53:30.003Z</time></trkpt><trkpt lat="43.47276332610135" lon="10.596908811076801"><ele>438.8</ele><time>2026-04-26T10:53:31.003Z</time></trkpt><trkpt lat="43.47278732445793" lon="10.597052268431174"><ele>442.6</ele><time>2026-04-26T10:53:32.003Z</time></trkpt><trkpt lat="43.472834632302046" lon="10.59720059531502"><ele>446.4</ele><time>2026-04-26T10:53:33.003Z</time></trkpt><trkpt lat="43.472905737893846" lon="10.597295040081521"><ele>450.2</ele><time>2026-04-26T10:53:34.003Z</time></trkpt><trkpt lat="43.47295669219655" lon="10.597401383580433"><ele>454.0</ele><time>2026-04-26T10:53:35.003Z</time></trkpt><trkpt lat="43.473047781856685" lon="10.597495989679247"><ele>454.0</ele><time>2026-04-26T10:53:36.003Z</time></trkpt><trkpt lat="43.47311530862434" lon="10.597553276707085"><ele>454.0</ele><time>2026-04-26T10:53:37.003Z</time></trkpt><trkpt lat="43.47311984678188" lon="10.597677613841235"><ele>454.0</ele><time>2026-04-26T10:53:39.003Z</time></trkpt><trkpt lat="43.473015013449206" lon="10.59764242593636"><ele>454.0</ele><time>2026-04-26T10:53:41.003Z</time></trkpt><trkpt lat="43.47289199690652" lon="10.597571167659325"><ele>454.0</ele><time>2026-04-26T10:53:43.003Z</time></trkpt><trkpt lat="43.472804016786405" lon="10.597557208770185"><ele>454.5</ele><time>2026-04-26T10:53:44.003Z</time></trkpt><trkpt lat="43.47272538475622" lon="10.597514100318236"><ele>455.0</ele><time>2026-04-26T10:53:45.003Z</time></trkpt><trkpt lat="43.472639844432116" lon="10.59743621536632"><ele>455.5</ele><time>2026-04-26T10:53:46.003Z</time></trkpt><trkpt lat="43.472519445073544" lon="10.597314614357819"><ele>456.0</ele><time>2026-04-26T10:53:47.003Z</time></trkpt><trkpt lat="43.47240958975658" lon="10.597222244026733"><ele>456.0</ele><time>2026-04-26T10:53:48.003Z</time></trkpt><trkpt lat="43.47232726027942" lon="10.597149306690852"><ele>456.0</ele><time>2026-04-26T10:53:49.003Z</time></trkpt><trkpt lat="43.472238830046884" lon="10.59709390501499"><ele>456.0</ele><time>2026-04-26T10:53:50.003Z</time></trkpt><trkpt lat="43.472186941994025" lon="10.597030959775525"><ele>456.0</ele><time>2026-04-26T10:53:51.003Z</time></trkpt><trkpt lat="43.47212622162253" lon="10.596951372537557"><ele>456.0</ele><time>2026-04-26T10:53:53.003Z</time></trkpt><trkpt lat="43.47211041974001" lon="10.596824479805019"><ele>456.0</ele><time>2026-04-26T10:53:54.003Z</time></trkpt><trkpt lat="43.472060227099234" lon="10.596664687048301"><ele>458.5</ele><time>2026-04-26T10:53:55.003Z</time></trkpt><trkpt lat="43.47200881184675" lon="10.596545365241658"><ele>461.0</ele><time>2026-04-26T10:53:56.003Z</time></trkpt><trkpt lat="43.47194468233722" lon="10.596431160973584"><ele>463.5</ele><time>2026-04-26T10:53:57.003Z</time></trkpt><trkpt lat="43.47184924914042" lon="10.59632026718377"><ele>466.0</ele><time>2026-04-26T10:53:58.003Z</time></trkpt><trkpt lat="43.47176029472222" lon="10.596166173041283"><ele>461.6</ele><time>2026-04-26T10:53:59.003Z</time></trkpt><trkpt lat="43.47169599055992" lon="10.596002523480415"><ele>457.20000000000005</ele><time>2026-04-26T10:54:00.003Z</time></trkpt><trkpt lat="43.47164834239418" lon="10.595861948439467"><ele>452.79999999999995</ele><time>2026-04-26T10:54:01.003Z</time></trkpt><trkpt lat="43.47159783396987" lon="10.595734170883782"><ele>448.4</ele><time>2026-04-26T10:54:02.003Z</time></trkpt><trkpt lat="43.47155522098591" lon="10.595626753430665"><ele>444.0</ele><time>2026-04-26T10:54:03.003Z</time></trkpt><trkpt lat="43.47150360487903" lon="10.595526047220849"><ele>444.0</ele><time>2026-04-26T10:54:04.003Z</time></trkpt><trkpt lat="43.4714368959666" lon="10.59546244611695"><ele>444.0</ele><time>2026-04-26T10:54:05.003Z</time></trkpt><trkpt lat="43.471379156712615" lon="10.595397829577765"><ele>444.0</ele><time>2026-04-26T10:54:06.003Z</time></trkpt><trkpt lat="43.47128527853891" lon="10.595364827372155"><ele>444.0</ele><time>2026-04-26T10:54:07.003Z</time></trkpt><trkpt lat="43.471174659173215" lon="10.595321558301542"><ele>444.0</ele><time>2026-04-26T10:54:08.003Z</time></trkpt><trkpt lat="43.471067565020626" lon="10.595280060234257"><ele>445.6</ele><time>2026-04-26T10:54:09.003Z</time></trkpt><trkpt lat="43.47096872759093" lon="10.59524187695668"><ele>447.2</ele><time>2026-04-26T10:54:10.003Z</time></trkpt><trkpt lat="43.47089716151876" lon="10.595229373401194"><ele>448.80000000000007</ele><time>2026-04-26T10:54:11.003Z</time></trkpt><trkpt lat="43.47082003183962" lon="10.595152362421802"><ele>450.40000000000003</ele><time>2026-04-26T10:54:13.003Z</time></trkpt><trkpt lat="43.47076646927206" lon="10.595030129334958"><ele>452.0</ele><time>2026-04-26T10:54:15.003Z</time></trkpt><trkpt lat="43.47077564589346" lon="10.594910686119714"><ele>452.0</ele><time>2026-04-26T10:54:16.003Z</time></trkpt><trkpt lat="43.47079526194915" lon="10.594796871759797"><ele>452.00000000000006</ele><time>2026-04-26T10:54:17.003Z</time></trkpt><trkpt lat="43.47081450963348" lon="10.594618368459836"><ele>452.00000000000006</ele><time>2026-04-26T10:54:19.003Z</time></trkpt><trkpt lat="43.47080212757224" lon="10.594501421717114"><ele>452.0</ele><time>2026-04-26T10:54:20.003Z</time></trkpt><trkpt lat="43.470768379827035" lon="10.59437682561653"><ele>452.0</ele><time>2026-04-26T10:54:21.003Z</time></trkpt><trkpt lat="43.47066289729931" lon="10.594273108504051"><ele>453.25</ele><time>2026-04-26T10:54:22.003Z</time></trkpt><trkpt lat="43.47054301512239" lon="10.594142975286983"><ele>454.5</ele><time>2026-04-26T10:54:23.003Z</time></trkpt><trkpt lat="43.47041959520054" lon="10.594018508725759"><ele>455.75</ele><time>2026-04-26T10:54:24.003Z</time></trkpt><trkpt lat="43.47031871577289" lon="10.593905382923017"><ele>457.0</ele><time>2026-04-26T10:54:25.003Z</time></trkpt><trkpt lat="43.4702342558845" lon="10.593822530065227"><ele>457.0</ele><time>2026-04-26T10:54:26.003Z</time></trkpt><trkpt lat="43.470133847449816" lon="10.593700485246949"><ele>457.0</ele><time>2026-04-26T10:54:28.003Z</time></trkpt><trkpt lat="43.47005018900134" lon="10.593649932034317"><ele>457.0</ele><time>2026-04-26T10:54:29.003Z</time></trkpt><trkpt lat="43.46994798314246" lon="10.593630448539443"><ele>457.0</ele><time>2026-04-26T10:54:30.003Z</time></trkpt><trkpt lat="43.469816366148535" lon="10.593682121570948"><ele>457.0</ele><time>2026-04-26T10:54:31.003Z</time></trkpt><trkpt lat="43.46972633269019" lon="10.593737439391484"><ele>457.00000000000006</ele><time>2026-04-26T10:54:32.003Z</time></trkpt><trkpt lat="43.469640313988826" lon="10.593807316776756"><ele>457.00000000000006</ele><time>2026-04-26T10:54:33.003Z</time></trkpt><trkpt lat="43.46956683840123" lon="10.5938894408343"><ele>457.0</ele><time>2026-04-26T10:54:34.003Z</time></trkpt><trkpt lat="43.46951493081981" lon="10.594041545755042"><ele>457.0</ele><time>2026-04-26T10:54:35.003Z</time></trkpt><trkpt lat="43.46947151270569" lon="10.594208411125598"><ele>454.40000000000003</ele><time>2026-04-26T10:54:36.003Z</time></trkpt><trkpt lat="43.46944117651629" lon="10.594360828180077"><ele>451.80000000000007</ele><time>2026-04-26T10:54:37.003Z</time></trkpt><trkpt lat="43.469420983007566" lon="10.59451584864771"><ele>449.2</ele><time>2026-04-26T10:54:38.003Z</time></trkpt><trkpt lat="43.4694103402925" lon="10.594654722214186"><ele>446.6</ele><time>2026-04-26T10:54:39.003Z</time></trkpt><trkpt lat="43.46938543568222" lon="10.594788791336466"><ele>444.0</ele><time>2026-04-26T10:54:40.003Z</time></trkpt><trkpt lat="43.46932700299769" lon="10.59489785077906"><ele>444.0</ele><time>2026-04-26T10:54:41.003Z</time></trkpt><trkpt lat="43.469299856527925" lon="10.595007572259306"><ele>444.0</ele><time>2026-04-26T10:54:42.003Z</time></trkpt><trkpt lat="43.46927950599421" lon="10.595148802222466"><ele>444.0</ele><time>2026-04-26T10:54:43.003Z</time></trkpt><trkpt lat="43.469267929562875" lon="10.595293710567104"><ele>444.0</ele><time>2026-04-26T10:54:44.003Z</time></trkpt><trkpt lat="43.469239373041965" lon="10.595454779631178"><ele>444.0</ele><time>2026-04-26T10:54:45.003Z</time></trkpt><trkpt lat="43.46921139034358" lon="10.595591815219187"><ele>446.0</ele><time>2026-04-26T10:54:46.003Z</time></trkpt><trkpt lat="43.46917763488248" lon="10.59571656188947"><ele>448.0</ele><time>2026-04-26T10:54:47.003Z</time></trkpt><trkpt lat="43.46914248166605" lon="10.59583106728425"><ele>450.0</ele><time>2026-04-26T10:54:48.003Z</time></trkpt><trkpt lat="43.4691150028591" lon="10.595947841782529"><ele>452.0</ele><time>2026-04-26T10:54:49.003Z</time></trkpt><trkpt lat="43.46911336836629" lon="10.596054198466367"><ele>454.0</ele><time>2026-04-26T10:54:50.003Z</time></trkpt><trkpt lat="43.469123759024185" lon="10.596167862905663"><ele>456.0</ele><time>2026-04-26T10:54:51.003Z</time></trkpt><trkpt lat="43.46914226828312" lon="10.596296611712088"><ele>458.20000000000005</ele><time>2026-04-26T10:54:52.003Z</time></trkpt><trkpt lat="43.469138963947906" lon="10.596427833384142"><ele>460.40000000000003</ele><time>2026-04-26T10:54:53.003Z</time></trkpt><trkpt lat="43.46913390698951" lon="10.596576091887366"><ele>462.6</ele><time>2026-04-26T10:54:54.003Z</time></trkpt><trkpt lat="43.4691130503155" lon="10.596704639211412"><ele>464.8</ele><time>2026-04-26T10:54:55.003Z</time></trkpt><trkpt lat="43.46909384677921" lon="10.596837475591679"><ele>467.0</ele><time>2026-04-26T10:54:56.003Z</time></trkpt><trkpt lat="43.46905879588158" lon="10.5969313686119"><ele>468.66666666666663</ele><time>2026-04-26T10:54:57.003Z</time></trkpt><trkpt lat="43.469041738947446" lon="10.597101389885513"><ele>470.3333333333333</ele><time>2026-04-26T10:54:58.003Z</time></trkpt><trkpt lat="43.46903190351624" lon="10.597231892096627"><ele>472.0</ele><time>2026-04-26T10:54:59.003Z</time></trkpt><trkpt lat="43.46901980616412" lon="10.597334225238857"><ele>473.66666666666663</ele><time>2026-04-26T10:55:00.004Z</time></trkpt><trkpt lat="43.46902333762696" lon="10.597428726793769"><ele>475.3333333333333</ele><time>2026-04-26T10:55:01.004Z</time></trkpt><trkpt lat="43.46903482662725" lon="10.597516978530132"><ele>477.0</ele><time>2026-04-26T10:55:02.004Z</time></trkpt><trkpt lat="43.46899877944336" lon="10.597607860607605"><ele>477.0</ele><time>2026-04-26T10:55:04.004Z</time></trkpt><trkpt lat="43.468916445448954" lon="10.597736192851695"><ele>477.00000000000006</ele><time>2026-04-26T10:55:06.004Z</time></trkpt><trkpt lat="43.468886387457474" lon="10.59783229585197"><ele>477.00000000000006</ele><time>2026-04-26T10:55:07.004Z</time></trkpt><trkpt lat="43.46886112383031" lon="10.597950001337495"><ele>477.0</ele><time>2026-04-26T10:55:08.004Z</time></trkpt><trkpt lat="43.468806506972015" lon="10.598045992341484"><ele>477.0</ele><time>2026-04-26T10:55:09.004Z</time></trkpt><trkpt lat="43.468774190397404" lon="10.598188385171023"><ele>479.3333333333333</ele><time>2026-04-26T10:55:10.004Z</time></trkpt><trkpt lat="43.46874001596035" lon="10.598285325264774"><ele>481.66666666666663</ele><time>2026-04-26T10:55:11.004Z</time></trkpt><trkpt lat="43.46869650998456" lon="10.59837226485757"><ele>484.0</ele><time>2026-04-26T10:55:12.004Z</time></trkpt><trkpt lat="43.468633159093415" lon="10.598434291757403"><ele>486.3333333333333</ele><time>2026-04-26T10:55:14.004Z</time></trkpt><trkpt lat="43.46856329678443" lon="10.598414902825878"><ele>488.66666666666663</ele><time>2026-04-26T10:55:16.004Z</time></trkpt><trkpt lat="43.46853644575077" lon="10.598279995168502"><ele>491.0</ele><time>2026-04-26T10:55:18.004Z</time></trkpt><trkpt lat="43.46850071011377" lon="10.59815321268193"><ele>490.99999999999994</ele><time>2026-04-26T10:55:19.004Z</time></trkpt><trkpt lat="43.46846769669383" lon="10.598017666761333"><ele>491.0</ele><time>2026-04-26T10:55:20.004Z</time></trkpt><trkpt lat="43.4684386125267" lon="10.59792493359232"><ele>491.0</ele><time>2026-04-26T10:55:21.004Z</time></trkpt><trkpt lat="43.46841758550062" lon="10.597825828594468"><ele>491.0</ele><time>2026-04-26T10:55:23.004Z</time></trkpt><trkpt lat="43.468344721335804" lon="10.597736739792982"><ele>490.99999999999994</ele><time>2026-04-26T10:55:25.004Z</time></trkpt><trkpt lat="43.46826970091881" lon="10.597714414750362"><ele>491.0</ele><time>2026-04-26T10:55:26.004Z</time></trkpt><trkpt lat="43.46819672637408" lon="10.597694217213158"><ele>492.66666666666663</ele><time>2026-04-26T10:55:27.004Z</time></trkpt><trkpt lat="43.46812319147097" lon="10.597674793904918"><ele>494.3333333333333</ele><time>2026-04-26T10:55:28.004Z</time></trkpt><trkpt lat="43.46804287267753" lon="10.597650842903585"><ele>496.0</ele><time>2026-04-26T10:55:29.004Z</time></trkpt><trkpt lat="43.4679798589904" lon="10.59761891216439"><ele>497.66666666666663</ele><time>2026-04-26T10:55:30.004Z</time></trkpt><trkpt lat="43.4679055120929" lon="10.597529366860199"><ele>499.3333333333333</ele><time>2026-04-26T10:55:32.004Z</time></trkpt><trkpt lat="43.46786436000175" lon="10.597388217118349"><ele>501.0</ele><time>2026-04-26T10:55:34.004Z</time></trkpt><trkpt lat="43.46784601226754" lon="10.597281253955527"><ele>501.0</ele><time>2026-04-26T10:55:35.004Z</time></trkpt><trkpt lat="43.46782186922301" lon="10.59714117194886"><ele>501.0</ele><time>2026-04-26T10:55:36.004Z</time></trkpt><trkpt lat="43.467796771964416" lon="10.596990855643245"><ele>501.0</ele><time>2026-04-26T10:55:37.004Z</time></trkpt><trkpt lat="43.46776528007066" lon="10.59684142358058"><ele>501.0</ele><time>2026-04-26T10:55:38.004Z</time></trkpt><trkpt lat="43.46773293991044" lon="10.596705717767986"><ele>501.0</ele><time>2026-04-26T10:55:39.004Z</time></trkpt><trkpt lat="43.467701272969485" lon="10.596576551681627"><ele>499.5</ele><time>2026-04-26T10:55:40.004Z</time></trkpt><trkpt lat="43.46767292580138" lon="10.596464667413747"><ele>498.0</ele><time>2026-04-26T10:55:41.004Z</time></trkpt><trkpt lat="43.46765052843104" lon="10.596378154974389"><ele>496.5</ele><time>2026-04-26T10:55:42.004Z</time></trkpt><trkpt lat="43.46762895994843" lon="10.596291874357073"><ele>495.0</ele><time>2026-04-26T10:55:43.004Z</time></trkpt><trkpt lat="43.46760365757296" lon="10.596198482892143"><ele>493.5</ele><time>2026-04-26T10:55:44.004Z</time></trkpt><trkpt lat="43.46758616713844" lon="10.596096701926717"><ele>492.0</ele><time>2026-04-26T10:55:45.004Z</time></trkpt><trkpt lat="43.467567081406735" lon="10.595983773319002"><ele>490.8</ele><time>2026-04-26T10:55:46.004Z</time></trkpt><trkpt lat="43.46756788180493" lon="10.595866415488771"><ele>489.6</ele><time>2026-04-26T10:55:47.004Z</time></trkpt><trkpt lat="43.46756923066051" lon="10.5957395895339"><ele>488.40000000000003</ele><time>2026-04-26T10:55:48.004Z</time></trkpt><trkpt lat="43.46756652872147" lon="10.595608259252925"><ele>487.20000000000005</ele><time>2026-04-26T10:55:49.004Z</time></trkpt><trkpt lat="43.467563104577884" lon="10.595474613580171"><ele>486.0</ele><time>2026-04-26T10:55:50.004Z</time></trkpt><trkpt lat="43.46755098434029" lon="10.595334398323656"><ele>485.0</ele><time>2026-04-26T10:55:51.004Z</time></trkpt><trkpt lat="43.467538127680974" lon="10.595211647928997"><ele>484.0</ele><time>2026-04-26T10:55:52.004Z</time></trkpt><trkpt lat="43.467527792596606" lon="10.595097012922665"><ele>483.0</ele><time>2026-04-26T10:55:53.004Z</time></trkpt><trkpt lat="43.46751522291145" lon="10.59498453926729"><ele>482.0</ele><time>2026-04-26T10:55:54.004Z</time></trkpt><trkpt lat="43.46750127436275" lon="10.594860504843243"><ele>481.0</ele><time>2026-04-26T10:55:55.004Z</time></trkpt><trkpt lat="43.467476396924326" lon="10.59473318498222"><ele>480.0</ele><time>2026-04-26T10:55:56.004Z</time></trkpt><trkpt lat="43.46744537912511" lon="10.594597894085988"><ele>477.2</ele><time>2026-04-26T10:55:57.004Z</time></trkpt><trkpt lat="43.46742008001686" lon="10.594466961384157"><ele>474.4</ele><time>2026-04-26T10:55:58.004Z</time></trkpt><trkpt lat="43.46738595584472" lon="10.594337116698961"><ele>471.6</ele><time>2026-04-26T10:55:59.004Z</time></trkpt><trkpt lat="43.467355249670675" lon="10.594223274681955"><ele>468.8</ele><time>2026-04-26T10:56:00.004Z</time></trkpt><trkpt lat="43.4673185219121" lon="10.594131065490233"><ele>466.0</ele><time>2026-04-26T10:56:01.004Z</time></trkpt><trkpt lat="43.46724922235114" lon="10.593974787629692"><ele>466.00000000000006</ele><time>2026-04-26T10:56:03.004Z</time></trkpt><trkpt lat="43.46714757798315" lon="10.593907613340548"><ele>466.0</ele><time>2026-04-26T10:56:05.004Z</time></trkpt><trkpt lat="43.46706593355685" lon="10.59389860986492"><ele>466.0</ele><time>2026-04-26T10:56:06.004Z</time></trkpt><trkpt lat="43.46699370257446" lon="10.593881635092403"><ele>466.0</ele><time>2026-04-26T10:56:07.004Z</time></trkpt><trkpt lat="43.466948638245356" lon="10.593780648743822"><ele>466.00000000000006</ele><time>2026-04-26T10:56:09.004Z</time></trkpt><trkpt lat="43.46692160600086" lon="10.593675116876499"><ele>466.0</ele><time>2026-04-26T10:56:10.004Z</time></trkpt><trkpt lat="43.46687831960121" lon="10.593535862217784"><ele>468.83333333333337</ele><time>2026-04-26T10:56:11.004Z</time></trkpt><trkpt lat="43.466833587378034" lon="10.593424884093837"><ele>471.6666666666667</ele><time>2026-04-26T10:56:12.004Z</time></trkpt><trkpt lat="43.466777849868066" lon="10.59333702745242"><ele>474.5</ele><time>2026-04-26T10:56:13.004Z</time></trkpt><trkpt lat="43.466692865660775" lon="10.593261176248008"><ele>477.33333333333337</ele><time>2026-04-26T10:56:14.004Z</time></trkpt><trkpt lat="43.46662386756583" lon="10.593202838356708"><ele>480.1666666666667</ele><time>2026-04-26T10:56:15.004Z</time></trkpt><trkpt lat="43.466558635297346" lon="10.593167687370979"><ele>483.0</ele><time>2026-04-26T10:56:16.004Z</time></trkpt><trkpt lat="43.46646656051421" lon="10.59314285385112"><ele>483.0</ele><time>2026-04-26T10:56:18.004Z</time></trkpt><trkpt lat="43.466361553412" lon="10.593122288965535"><ele>483.0</ele><time>2026-04-26T10:56:20.004Z</time></trkpt><trkpt lat="43.46623484498173" lon="10.59316330677016"><ele>483.0</ele><time>2026-04-26T10:56:22.004Z</time></trkpt><trkpt lat="43.46616243250082" lon="10.59320951519258"><ele>483.0</ele><time>2026-04-26T10:56:23.004Z</time></trkpt><trkpt lat="43.466099605216236" lon="10.593224539711755"><ele>483.0</ele><time>2026-04-26T10:56:24.004Z</time></trkpt><trkpt lat="43.46603747314601" lon="10.593194041526653"><ele>483.0</ele><time>2026-04-26T10:56:25.004Z</time></trkpt><trkpt lat="43.46597935334431" lon="10.593127307870855"><ele>486.0</ele><time>2026-04-26T10:56:26.004Z</time></trkpt><trkpt lat="43.4658874867462" lon="10.592986834934756"><ele>488.99999999999994</ele><time>2026-04-26T10:56:28.004Z</time></trkpt><trkpt lat="43.46580650566" lon="10.592929118651691"><ele>491.99999999999994</ele><time>2026-04-26T10:56:29.004Z</time></trkpt><trkpt lat="43.465713445284344" lon="10.592891750589871"><ele>495.0</ele><time>2026-04-26T10:56:30.004Z</time></trkpt><trkpt lat="43.46560763963924" lon="10.592874187300916"><ele>498.0</ele><time>2026-04-26T10:56:31.004Z</time></trkpt><trkpt lat="43.46548186353111" lon="10.59287626691705"><ele>497.79999999999995</ele><time>2026-04-26T10:56:32.004Z</time></trkpt><trkpt lat="43.46536874307889" lon="10.59290394145601"><ele>497.59999999999997</ele><time>2026-04-26T10:56:33.004Z</time></trkpt><trkpt lat="43.46525966865832" lon="10.592908964663225"><ele>497.40000000000003</ele><time>2026-04-26T10:56:34.004Z</time></trkpt><trkpt lat="43.46514002086579" lon="10.592884852085998"><ele>497.20000000000005</ele><time>2026-04-26T10:56:35.004Z</time></trkpt><trkpt lat="43.46504353999948" lon="10.59287516757081"><ele>497.0</ele><time>2026-04-26T10:56:36.004Z</time></trkpt><trkpt lat="43.46496102173857" lon="10.592907097745973"><ele>496.99999999999994</ele><time>2026-04-26T10:56:37.004Z</time></trkpt><trkpt lat="43.4648896925046" lon="10.592972546067564"><ele>497.0</ele><time>2026-04-26T10:56:38.004Z</time></trkpt><trkpt lat="43.46482833665489" lon="10.59308379350385"><ele>497.0</ele><time>2026-04-26T10:56:39.004Z</time></trkpt><trkpt lat="43.46477544954922" lon="10.59318849694508"><ele>497.0</ele><time>2026-04-26T10:56:40.004Z</time></trkpt><trkpt lat="43.46473161049948" lon="10.593255551656245"><ele>496.99999999999994</ele><time>2026-04-26T10:56:41.004Z</time></trkpt><trkpt lat="43.464649343669564" lon="10.59325548461046"><ele>497.0</ele><time>2026-04-26T10:56:43.004Z</time></trkpt><trkpt lat="43.464601541091106" lon="10.593197811661764"><ele>496.8333333333333</ele><time>2026-04-26T10:56:44.004Z</time></trkpt><trkpt lat="43.46454469153749" lon="10.593041911145146"><ele>496.66666666666663</ele><time>2026-04-26T10:56:46.004Z</time></trkpt><trkpt lat="43.46449784175056" lon="10.592958483220288"><ele>496.5</ele><time>2026-04-26T10:56:47.004Z</time></trkpt><trkpt lat="43.46443899661547" lon="10.592919402157836"><ele>496.33333333333337</ele><time>2026-04-26T10:56:48.004Z</time></trkpt><trkpt lat="43.46436330858816" lon="10.592952544618873"><ele>496.1666666666667</ele><time>2026-04-26T10:56:50.004Z</time></trkpt><trkpt lat="43.46432889466346" lon="10.593046599398766"><ele>496.0</ele><time>2026-04-26T10:56:52.004Z</time></trkpt><trkpt lat="43.46437685844049" lon="10.59317806268903"><ele>496.00000000000006</ele><time>2026-04-26T10:56:54.004Z</time></trkpt><trkpt lat="43.46442617625162" lon="10.593256907196972"><ele>496.0</ele><time>2026-04-26T10:56:55.004Z</time></trkpt><trkpt lat="43.464489971721434" lon="10.593346999173798"><ele>496.0</ele><time>2026-04-26T10:56:56.004Z</time></trkpt><trkpt lat="43.4645653480534" lon="10.593426552080937"><ele>496.0</ele><time>2026-04-26T10:56:57.004Z</time></trkpt><trkpt lat="43.464645455251414" lon="10.593489187275031"><ele>496.00000000000006</ele><time>2026-04-26T10:56:58.004Z</time></trkpt><trkpt lat="43.46472248751164" lon="10.593550085215941"><ele>496.0</ele><time>2026-04-26T10:56:59.004Z</time></trkpt><trkpt lat="43.46479407735058" lon="10.593611023081069"><ele>497.8</ele><time>2026-04-26T10:57:00.004Z</time></trkpt><trkpt lat="43.46486959785151" lon="10.593675335606157"><ele>499.6</ele><time>2026-04-26T10:57:01.004Z</time></trkpt><trkpt lat="43.464937593825404" lon="10.593738073348213"><ele>501.4</ele><time>2026-04-26T10:57:02.004Z</time></trkpt><trkpt lat="43.46500500110169" lon="10.593816164138858"><ele>503.2</ele><time>2026-04-26T10:57:03.004Z</time></trkpt><trkpt lat="43.465059793828765" lon="10.593900385756575"><ele>505.0</ele><time>2026-04-26T10:57:04.004Z</time></trkpt><trkpt lat="43.46512035847506" lon="10.594051031586842"><ele>505.0</ele><time>2026-04-26T10:57:06.004Z</time></trkpt><trkpt lat="43.46512209394146" lon="10.59423117072754"><ele>505.0</ele><time>2026-04-26T10:57:08.004Z</time></trkpt><trkpt lat="43.465119025600465" lon="10.594353862769218"><ele>505.0</ele><time>2026-04-26T10:57:09.004Z</time></trkpt><trkpt lat="43.465106633530674" lon="10.594483814026754"><ele>505.0</ele><time>2026-04-26T10:57:10.004Z</time></trkpt><trkpt lat="43.46508650471932" lon="10.594612898012645"><ele>505.0</ele><time>2026-04-26T10:57:11.004Z</time></trkpt><trkpt lat="43.46507924467486" lon="10.594732412790913"><ele>505.00000000000006</ele><time>2026-04-26T10:57:12.004Z</time></trkpt><trkpt lat="43.46506900924183" lon="10.594832806114589"><ele>505.0</ele><time>2026-04-26T10:57:13.004Z</time></trkpt><trkpt lat="43.46507827651977" lon="10.594951970050229"><ele>505.0</ele><time>2026-04-26T10:57:14.004Z</time></trkpt><trkpt lat="43.46509705718487" lon="10.595070420700871"><ele>505.0</ele><time>2026-04-26T10:57:15.004Z</time></trkpt><trkpt lat="43.46512647031088" lon="10.595204030822137"><ele>505.00000000000006</ele><time>2026-04-26T10:57:16.004Z</time></trkpt><trkpt lat="43.46517490716976" lon="10.59532187706513"><ele>505.0</ele><time>2026-04-26T10:57:17.004Z</time></trkpt><trkpt lat="43.465233813281685" lon="10.595441976639782"><ele>504.4</ele><time>2026-04-26T10:57:18.004Z</time></trkpt><trkpt lat="43.46528646175388" lon="10.595550389499518"><ele>503.8</ele><time>2026-04-26T10:57:19.004Z</time></trkpt><trkpt lat="43.46533802001082" lon="10.595663301672055"><ele>503.20000000000005</ele><time>2026-04-26T10:57:20.004Z</time></trkpt><trkpt lat="43.46537912182458" lon="10.595753951880791"><ele>502.6</ele><time>2026-04-26T10:57:21.004Z</time></trkpt><trkpt lat="43.46540621066402" lon="10.595875613473291"><ele>502.0</ele><time>2026-04-26T10:57:23.004Z</time></trkpt><trkpt lat="43.46533622708625" lon="10.595967799579347"><ele>502.0</ele><time>2026-04-26T10:57:25.004Z</time></trkpt><trkpt lat="43.46520970264177" lon="10.5960020195629"><ele>502.00000000000006</ele><time>2026-04-26T10:57:27.004Z</time></trkpt><trkpt lat="43.46514048563279" lon="10.596002503014292"><ele>502.00000000000006</ele><time>2026-04-26T10:57:28.004Z</time></trkpt><trkpt lat="43.465038421297166" lon="10.596001024813427"><ele>502.0</ele><time>2026-04-26T10:57:29.004Z</time></trkpt><trkpt lat="43.464953517286915" lon="10.596015906575522"><ele>502.0</ele><time>2026-04-26T10:57:30.004Z</time></trkpt><trkpt lat="43.46489170132167" lon="10.596066155504111"><ele>502.0</ele><time>2026-04-26T10:57:31.004Z</time></trkpt><trkpt lat="43.46483299163297" lon="10.596154890989686"><ele>502.0</ele><time>2026-04-26T10:57:32.004Z</time></trkpt><trkpt lat="43.46479143002405" lon="10.596279323638782"><ele>502.0</ele><time>2026-04-26T10:57:33.004Z</time></trkpt><trkpt lat="43.46474497555179" lon="10.596461112247338"><ele>502.0</ele><time>2026-04-26T10:57:34.004Z</time></trkpt><trkpt lat="43.464688364520875" lon="10.596671606547803"><ele>502.75</ele><time>2026-04-26T10:57:35.004Z</time></trkpt><trkpt lat="43.46464096733135" lon="10.596861062095916"><ele>503.5</ele><time>2026-04-26T10:57:36.004Z</time></trkpt><trkpt lat="43.464610333360746" lon="10.597020806610912"><ele>504.25</ele><time>2026-04-26T10:57:37.004Z</time></trkpt><trkpt lat="43.464571687869665" lon="10.597161626732383"><ele>505.0</ele><time>2026-04-26T10:57:38.004Z</time></trkpt><trkpt lat="43.46452462434117" lon="10.597292099825362"><ele>504.6666666666667</ele><time>2026-04-26T10:57:39.004Z</time></trkpt><trkpt lat="43.46449501386379" lon="10.597418569010442"><ele>504.33333333333337</ele><time>2026-04-26T10:57:40.004Z</time></trkpt><trkpt lat="43.46446773115566" lon="10.59753901886777"><ele>504.0</ele><time>2026-04-26T10:57:41.004Z</time></trkpt><trkpt lat="43.464446938236286" lon="10.59765250633717"><ele>503.66666666666663</ele><time>2026-04-26T10:57:42.004Z</time></trkpt><trkpt lat="43.46441788066578" lon="10.59774626989665"><ele>503.3333333333333</ele><time>2026-04-26T10:57:43.004Z</time></trkpt><trkpt lat="43.46438182716667" lon="10.597821849560086"><ele>503.0</ele><time>2026-04-26T10:57:44.004Z</time></trkpt><trkpt lat="43.46431830152692" lon="10.597883456273166"><ele>502.99999999999994</ele><time>2026-04-26T10:57:45.004Z</time></trkpt><trkpt lat="43.464249477877075" lon="10.59792730718132"><ele>503.0</ele><time>2026-04-26T10:57:46.004Z</time></trkpt><trkpt lat="43.4641764022377" lon="10.597930645154632"><ele>503.0</ele><time>2026-04-26T10:57:47.004Z</time></trkpt><trkpt lat="43.46408053604984" lon="10.597924918849863"><ele>503.0</ele><time>2026-04-26T10:57:48.004Z</time></trkpt><trkpt lat="43.4639801494198" lon="10.59794073135943"><ele>502.99999999999994</ele><time>2026-04-26T10:57:49.005Z</time></trkpt><trkpt lat="43.4638818524585" lon="10.597957287897131"><ele>503.0</ele><time>2026-04-26T10:57:50.005Z</time></trkpt><trkpt lat="43.46380000159596" lon="10.598003343497863"><ele>498.0</ele><time>2026-04-26T10:57:51.005Z</time></trkpt><trkpt lat="43.46374327340509" lon="10.598089588788259"><ele>492.99999999999994</ele><time>2026-04-26T10:57:52.005Z</time></trkpt><trkpt lat="43.4636930975874" lon="10.59817191804889"><ele>487.99999999999994</ele><time>2026-04-26T10:57:53.005Z</time></trkpt><trkpt lat="43.46365193625181" lon="10.598294327292637"><ele>483.0</ele><time>2026-04-26T10:57:54.005Z</time></trkpt><trkpt lat="43.46361605611016" lon="10.59844853954831"><ele>478.0</ele><time>2026-04-26T10:57:55.005Z</time></trkpt><trkpt lat="43.46360946730331" lon="10.598607471220932"><ele>478.0</ele><time>2026-04-26T10:57:56.005Z</time></trkpt><trkpt lat="43.46359902525685" lon="10.59875034975012"><ele>477.99999999999994</ele><time>2026-04-26T10:57:57.005Z</time></trkpt><trkpt lat="43.46360265199024" lon="10.598868275262225"><ele>477.99999999999994</ele><time>2026-04-26T10:57:58.005Z</time></trkpt><trkpt lat="43.46358906271732" lon="10.598984530629345"><ele>478.0</ele><time>2026-04-26T10:57:59.005Z</time></trkpt><trkpt lat="43.46358145540881" lon="10.599110495715777"><ele>478.0</ele><time>2026-04-26T10:58:00.005Z</time></trkpt><trkpt lat="43.46357988101861" lon="10.599259677441529"><ele>478.0</ele><time>2026-04-26T10:58:01.005Z</time></trkpt><trkpt lat="43.463584180362574" lon="10.599414345231489"><ele>477.99999999999994</ele><time>2026-04-26T10:58:02.005Z</time></trkpt><trkpt lat="43.46359239225905" lon="10.599553433071128"><ele>477.99999999999994</ele><time>2026-04-26T10:58:03.005Z</time></trkpt><trkpt lat="43.46360318800327" lon="10.599687476795648"><ele>478.0</ele><time>2026-04-26T10:58:04.005Z</time></trkpt><trkpt lat="43.463610477187686" lon="10.599815849280983"><ele>478.0</ele><time>2026-04-26T10:58:05.005Z</time></trkpt><trkpt lat="43.46361806018431" lon="10.599948469015123"><ele>477.50000000000006</ele><time>2026-04-26T10:58:06.005Z</time></trkpt><trkpt lat="43.46362272075026" lon="10.600060324177395"><ele>477.0</ele><time>2026-04-26T10:58:07.005Z</time></trkpt><trkpt lat="43.463635455208625" lon="10.600170813011516"><ele>476.5</ele><time>2026-04-26T10:58:08.005Z</time></trkpt><trkpt lat="43.46364440808057" lon="10.600290793924753"><ele>476.0</ele><time>2026-04-26T10:58:09.005Z</time></trkpt><trkpt lat="43.46365345450871" lon="10.600421236144808"><ele>475.50000000000006</ele><time>2026-04-26T10:58:10.005Z</time></trkpt><trkpt lat="43.463662321811064" lon="10.600552930879005"><ele>475.0</ele><time>2026-04-26T10:58:11.005Z</time></trkpt><trkpt lat="43.46367313134271" lon="10.600689829291806"><ele>474.6666666666667</ele><time>2026-04-26T10:58:12.005Z</time></trkpt><trkpt lat="43.463697927349834" lon="10.600818265679083"><ele>474.33333333333337</ele><time>2026-04-26T10:58:13.005Z</time></trkpt><trkpt lat="43.46371695381949" lon="10.600933230960333"><ele>474.0</ele><time>2026-04-26T10:58:14.005Z</time></trkpt><trkpt lat="43.463745654646715" lon="10.601032429642515"><ele>473.66666666666663</ele><time>2026-04-26T10:58:15.005Z</time></trkpt><trkpt lat="43.46379034016482" lon="10.601099651851282"><ele>473.3333333333333</ele><time>2026-04-26T10:58:16.005Z</time></trkpt><trkpt lat="43.46386117510881" lon="10.601144855011567"><ele>473.0</ele><time>2026-04-26T10:58:17.005Z</time></trkpt><trkpt lat="43.46393728494885" lon="10.601180206567863"><ele>473.8333333333333</ele><time>2026-04-26T10:58:18.005Z</time></trkpt><trkpt lat="43.464000350170465" lon="10.601193080243048"><ele>474.66666666666663</ele><time>2026-04-26T10:58:19.005Z</time></trkpt><trkpt lat="43.46407106610635" lon="10.601183552765495"><ele>475.5</ele><time>2026-04-26T10:58:20.005Z</time></trkpt><trkpt lat="43.464150472248924" lon="10.601187313238787"><ele>476.33333333333337</ele><time>2026-04-26T10:58:21.005Z</time></trkpt><trkpt lat="43.46424581047951" lon="10.60122150189806"><ele>477.1666666666667</ele><time>2026-04-26T10:58:23.005Z</time></trkpt><trkpt lat="43.46426659612176" lon="10.60132987655325"><ele>478.0</ele><time>2026-04-26T10:58:25.005Z</time></trkpt><trkpt lat="43.46423767469182" lon="10.601469922173397"><ele>478.00000000000006</ele><time>2026-04-26T10:58:27.005Z</time></trkpt><trkpt lat="43.46421753302942" lon="10.601580768214022"><ele>478.0</ele><time>2026-04-26T10:58:28.005Z</time></trkpt><trkpt lat="43.46420572067032" lon="10.60167913009106"><ele>478.0</ele><time>2026-04-26T10:58:29.005Z</time></trkpt><trkpt lat="43.4641922525358" lon="10.60177217357786"><ele>478.0</ele><time>2026-04-26T10:58:30.005Z</time></trkpt><trkpt lat="43.46414796810779" lon="10.60183475812764"><ele>478.00000000000006</ele><time>2026-04-26T10:58:31.005Z</time></trkpt><trkpt lat="43.46406843330788" lon="10.601912377768624"><ele>478.0</ele><time>2026-04-26T10:58:33.005Z</time></trkpt><trkpt lat="43.46397676124472" lon="10.601987520625055"><ele>479.1666666666667</ele><time>2026-04-26T10:58:35.005Z</time></trkpt><trkpt lat="43.463908312288396" lon="10.602051167920003"><ele>480.33333333333337</ele><time>2026-04-26T10:58:36.005Z</time></trkpt><trkpt lat="43.46384285305514" lon="10.602155157091795"><ele>481.5</ele><time>2026-04-26T10:58:37.005Z</time></trkpt><trkpt lat="43.46377899683832" lon="10.602258990557582"><ele>482.66666666666663</ele><time>2026-04-26T10:58:38.005Z</time></trkpt><trkpt lat="43.463727080603064" lon="10.602346074695037"><ele>483.8333333333333</ele><time>2026-04-26T10:58:39.005Z</time></trkpt><trkpt lat="43.463680726644085" lon="10.602435602176282"><ele>485.0</ele><time>2026-04-26T10:58:40.005Z</time></trkpt><trkpt lat="43.463640078599944" lon="10.602537929824665"><ele>479.16666666666663</ele><time>2026-04-26T10:58:41.005Z</time></trkpt><trkpt lat="43.463612970087006" lon="10.602650537070021"><ele>473.3333333333333</ele><time>2026-04-26T10:58:42.005Z</time></trkpt><trkpt lat="43.4636113732787" lon="10.602772437590277"><ele>467.5</ele><time>2026-04-26T10:58:43.005Z</time></trkpt><trkpt lat="43.46362453669628" lon="10.602882638802827"><ele>461.66666666666663</ele><time>2026-04-26T10:58:44.005Z</time></trkpt><trkpt lat="43.463645352258396" lon="10.602987137477903"><ele>455.8333333333333</ele><time>2026-04-26T10:58:45.005Z</time></trkpt><trkpt lat="43.46368025256073" lon="10.603076498852122"><ele>450.0</ele><time>2026-04-26T10:58:46.005Z</time></trkpt><trkpt lat="43.463741049766256" lon="10.603197352482741"><ele>454.6</ele><time>2026-04-26T10:58:47.005Z</time></trkpt><trkpt lat="43.46380851395016" lon="10.603315374468478"><ele>459.2</ele><time>2026-04-26T10:58:48.005Z</time></trkpt><trkpt lat="43.46385957530332" lon="10.603434777997501"><ele>463.79999999999995</ele><time>2026-04-26T10:58:49.005Z</time></trkpt><trkpt lat="43.46390633784967" lon="10.603553478889863"><ele>468.4</ele><time>2026-04-26T10:58:50.005Z</time></trkpt><trkpt lat="43.4639525244468" lon="10.603658876095974"><ele>473.0</ele><time>2026-04-26T10:58:51.005Z</time></trkpt><trkpt lat="43.46399035391941" lon="10.603747776135029"><ele>472.99999999999994</ele><time>2026-04-26T10:58:52.005Z</time></trkpt><trkpt lat="43.4640416403603" lon="10.60383414445673"><ele>473.0</ele><time>2026-04-26T10:58:53.005Z</time></trkpt><trkpt lat="43.464076786722075" lon="10.603932797178523"><ele>473.0</ele><time>2026-04-26T10:58:54.005Z</time></trkpt><trkpt lat="43.464107743470414" lon="10.604037419480255"><ele>473.0</ele><time>2026-04-26T10:58:55.005Z</time></trkpt><trkpt lat="43.46412753127626" lon="10.604121460356218"><ele>472.99999999999994</ele><time>2026-04-26T10:58:56.005Z</time></trkpt><trkpt lat="43.46415251678976" lon="10.604204299614631"><ele>473.0</ele><time>2026-04-26T10:58:57.005Z</time></trkpt><trkpt lat="43.464113717377565" lon="10.604332004859764"><ele>473.0</ele><time>2026-04-26T10:58:59.005Z</time></trkpt><trkpt lat="43.46406313694017" lon="10.604392551636517"><ele>472.99999999999994</ele><time>2026-04-26T10:59:00.005Z</time></trkpt><trkpt lat="43.46400204839628" lon="10.604433202532224"><ele>472.99999999999994</ele><time>2026-04-26T10:59:01.005Z</time></trkpt><trkpt lat="43.46387273552407" lon="10.604412235219591"><ele>473.0</ele><time>2026-04-26T10:59:03.005Z</time></trkpt><trkpt lat="43.463782148734055" lon="10.60437393292695"><ele>473.0</ele><time>2026-04-26T10:59:04.005Z</time></trkpt><trkpt lat="43.4636873457883" lon="10.604326069677331"><ele>470.8333333333333</ele><time>2026-04-26T10:59:05.005Z</time></trkpt><trkpt lat="43.46360052529051" lon="10.60426752382734"><ele>468.66666666666663</ele><time>2026-04-26T10:59:06.005Z</time></trkpt><trkpt lat="43.463497479214816" lon="10.604203134046408"><ele>466.5</ele><time>2026-04-26T10:59:07.005Z</time></trkpt><trkpt lat="43.46341220470091" lon="10.604170630701544"><ele>464.33333333333337</ele><time>2026-04-26T10:59:08.005Z</time></trkpt><trkpt lat="43.46335619204896" lon="10.604115590080752"><ele>462.1666666666667</ele><time>2026-04-26T10:59:09.005Z</time></trkpt><trkpt lat="43.46330441470556" lon="10.60405690305577"><ele>460.0</ele><time>2026-04-26T10:59:10.005Z</time></trkpt><trkpt lat="43.46322535932693" lon="10.604003206540472"><ele>460.00000000000006</ele><time>2026-04-26T10:59:11.005Z</time></trkpt><trkpt lat="43.463143972629496" lon="10.603967990915704"><ele>460.0</ele><time>2026-04-26T10:59:12.005Z</time></trkpt><trkpt lat="43.46307681929087" lon="10.603913928672588"><ele>460.0</ele><time>2026-04-26T10:59:13.005Z</time></trkpt><trkpt lat="43.463003722024794" lon="10.603869009530477"><ele>460.0</ele><time>2026-04-26T10:59:14.005Z</time></trkpt><trkpt lat="43.462922129937674" lon="10.60383206666076"><ele>460.00000000000006</ele><time>2026-04-26T10:59:15.005Z</time></trkpt><trkpt lat="43.46284841948243" lon="10.603803893360373"><ele>460.0</ele><time>2026-04-26T10:59:16.005Z</time></trkpt><trkpt lat="43.462718406119144" lon="10.603793242964342"><ele>457.2</ele><time>2026-04-26T10:59:18.005Z</time></trkpt><trkpt lat="43.462593616938754" lon="10.603856157907785"><ele>454.4</ele><time>2026-04-26T10:59:20.005Z</time></trkpt><trkpt lat="43.46252606250812" lon="10.603904572315212"><ele>451.6</ele><time>2026-04-26T10:59:21.005Z</time></trkpt><trkpt lat="43.46245822522522" lon="10.603992582824604"><ele>448.8</ele><time>2026-04-26T10:59:22.005Z</time></trkpt><trkpt lat="43.46239877791593" lon="10.60409576486916"><ele>446.0</ele><time>2026-04-26T10:59:23.005Z</time></trkpt><trkpt lat="43.46233402905141" lon="10.604204033488132"><ele>446.0</ele><time>2026-04-26T10:59:24.005Z</time></trkpt><trkpt lat="43.462283116024" lon="10.60430037288358"><ele>446.0</ele><time>2026-04-26T10:59:25.005Z</time></trkpt><trkpt lat="43.46224076318898" lon="10.604398986016085"><ele>446.0</ele><time>2026-04-26T10:59:26.005Z</time></trkpt><trkpt lat="43.462186203516595" lon="10.604501200194766"><ele>446.0</ele><time>2026-04-26T10:59:27.005Z</time></trkpt><trkpt lat="43.46211273776107" lon="10.604616795640567"><ele>446.0</ele><time>2026-04-26T10:59:28.005Z</time></trkpt><trkpt lat="43.462050798865015" lon="10.6047606136517"><ele>441.8</ele><time>2026-04-26T10:59:29.005Z</time></trkpt><trkpt lat="43.46197756904274" lon="10.604882600684281"><ele>437.6</ele><time>2026-04-26T10:59:30.005Z</time></trkpt><trkpt lat="43.46191957489555" lon="10.604994460936016"><ele>433.4</ele><time>2026-04-26T10:59:31.005Z</time></trkpt><trkpt lat="43.46186572746135" lon="10.605101333372865"><ele>429.2</ele><time>2026-04-26T10:59:32.005Z</time></trkpt><trkpt lat="43.461816808407505" lon="10.605210340106003"><ele>425.0</ele><time>2026-04-26T10:59:33.005Z</time></trkpt><trkpt lat="43.46177584487353" lon="10.605312036714533"><ele>425.0</ele><time>2026-04-26T10:59:34.005Z</time></trkpt><trkpt lat="43.461737531368435" lon="10.605446221427234"><ele>425.0</ele><time>2026-04-26T10:59:36.005Z</time></trkpt><trkpt lat="43.461674393908666" lon="10.605476178885688"><ele>425.0</ele><time>2026-04-26T10:59:39.005Z</time></trkpt><trkpt lat="43.461679893976616" lon="10.605329838982962"><ele>425.0</ele><time>2026-04-26T10:59:43.005Z</time></trkpt><trkpt lat="43.46172032291879" lon="10.605225716724455"><ele>425.0</ele><time>2026-04-26T10:59:44.005Z</time></trkpt><trkpt lat="43.461768264047336" lon="10.605118319040912"><ele>425.0</ele><time>2026-04-26T10:59:45.005Z</time></trkpt><trkpt lat="43.46180570722679" lon="10.605028193792027"><ele>425.0</ele><time>2026-04-26T10:59:46.005Z</time></trkpt><trkpt lat="43.46184188676316" lon="10.604948363210125"><ele>425.0</ele><time>2026-04-26T10:59:47.005Z</time></trkpt><trkpt lat="43.461906464282464" lon="10.604817259081491"><ele>425.0</ele><time>2026-04-26T10:59:49.005Z</time></trkpt><trkpt lat="43.4619680778392" lon="10.604684072316363"><ele>425.0</ele><time>2026-04-26T10:59:51.005Z</time></trkpt><trkpt lat="43.46201387405585" lon="10.604531536405853"><ele>423.3333333333333</ele><time>2026-04-26T10:59:53.005Z</time></trkpt><trkpt lat="43.4620396074337" lon="10.604427595702845"><ele>421.66666666666663</ele><time>2026-04-26T10:59:54.005Z</time></trkpt><trkpt lat="43.46207387474125" lon="10.60431976694888"><ele>420.0</ele><time>2026-04-26T10:59:55.005Z</time></trkpt><trkpt lat="43.46211524637565" lon="10.604205838761853"><ele>418.33333333333337</ele><time>2026-04-26T10:59:56.005Z</time></trkpt><trkpt lat="43.4621615522113" lon="10.604098071650617"><ele>416.6666666666667</ele><time>2026-04-26T10:59:57.005Z</time></trkpt><trkpt lat="43.462192327577135" lon="10.60400324577018"><ele>415.0</ele><time>2026-04-26T10:59:58.005Z</time></trkpt><trkpt lat="43.462223713309946" lon="10.603917668146352"><ele>416.57142857142856</ele><time>2026-04-26T10:59:59.005Z</time></trkpt><trkpt lat="43.46223967953365" lon="10.603814275780454"><ele>418.14285714285717</ele><time>2026-04-26T11:00:00.005Z</time></trkpt><trkpt lat="43.462262807496224" lon="10.60372282206956"><ele>419.71428571428567</ele><time>2026-04-26T11:00:01.005Z</time></trkpt><trkpt lat="43.462290117491335" lon="10.60363222468214"><ele>421.2857142857143</ele><time>2026-04-26T11:00:02.005Z</time></trkpt><trkpt lat="43.462336178806495" lon="10.603561229309483"><ele>422.85714285714283</ele><time>2026-04-26T11:00:03.005Z</time></trkpt><trkpt lat="43.462391943074515" lon="10.603506276908979"><ele>424.4285714285714</ele><time>2026-04-26T11:00:04.005Z</time></trkpt><trkpt lat="43.462453369359324" lon="10.603462614316493"><ele>426.0</ele><time>2026-04-26T11:00:05.005Z</time></trkpt><trkpt lat="43.46251266511743" lon="10.603419790209017"><ele>426.0</ele><time>2026-04-26T11:00:06.005Z</time></trkpt><trkpt lat="43.462606706069685" lon="10.603310837312788"><ele>426.0</ele><time>2026-04-26T11:00:08.005Z</time></trkpt><trkpt lat="43.46263619338808" lon="10.603233868810122"><ele>426.0</ele><time>2026-04-26T11:00:09.005Z</time></trkpt><trkpt lat="43.462651460859824" lon="10.603076564216007"><ele>426.0</ele><time>2026-04-26T11:00:11.005Z</time></trkpt><trkpt lat="43.46263442002511" lon="10.602992575102615"><ele>426.0</ele><time>2026-04-26T11:00:12.005Z</time></trkpt><trkpt lat="43.462593191401595" lon="10.602890580795941"><ele>426.0</ele><time>2026-04-26T11:00:13.005Z</time></trkpt><trkpt lat="43.46254159796549" lon="10.602828762665935"><ele>425.8333333333333</ele><time>2026-04-26T11:00:14.005Z</time></trkpt><trkpt lat="43.462464199913505" lon="10.602758760195009"><ele>425.66666666666663</ele><time>2026-04-26T11:00:15.005Z</time></trkpt><trkpt lat="43.462383810394876" lon="10.602702046502293"><ele>425.5</ele><time>2026-04-26T11:00:16.005Z</time></trkpt><trkpt lat="43.46230985411647" lon="10.602644876837708"><ele>425.3333333333333</ele><time>2026-04-26T11:00:17.005Z</time></trkpt><trkpt lat="43.46223832896863" lon="10.602584977092887"><ele>425.16666666666663</ele><time>2026-04-26T11:00:18.005Z</time></trkpt><trkpt lat="43.46216723489099" lon="10.602526761627303"><ele>425.0</ele><time>2026-04-26T11:00:19.005Z</time></trkpt><trkpt lat="43.462106387920414" lon="10.602487744221682"><ele>427.0</ele><time>2026-04-26T11:00:20.005Z</time></trkpt><trkpt lat="43.46204628926499" lon="10.602459439807088"><ele>429.0</ele><time>2026-04-26T11:00:21.005Z</time></trkpt><trkpt lat="43.46193665564131" lon="10.602577788991347"><ele>431.0</ele><time>2026-04-26T11:00:24.005Z</time></trkpt><trkpt lat="43.46189045548732" lon="10.60266237565056"><ele>433.0</ele><time>2026-04-26T11:00:25.005Z</time></trkpt><trkpt lat="43.46184361499314" lon="10.602765651244697"><ele>435.0</ele><time>2026-04-26T11:00:26.005Z</time></trkpt><trkpt lat="43.4618070364513" lon="10.602868100519867"><ele>432.14285714285717</ele><time>2026-04-26T11:00:27.006Z</time></trkpt><trkpt lat="43.46178946452479" lon="10.602965421307829"><ele>429.2857142857143</ele><time>2026-04-26T11:00:28.005Z</time></trkpt><trkpt lat="43.46176807350778" lon="10.603050720604971"><ele>426.42857142857144</ele><time>2026-04-26T11:00:29.005Z</time></trkpt><trkpt lat="43.46172151533544" lon="10.603178885613424"><ele>423.57142857142856</ele><time>2026-04-26T11:00:31.005Z</time></trkpt><trkpt lat="43.4616617147618" lon="10.603229958826114"><ele>420.7142857142857</ele><time>2026-04-26T11:00:32.005Z</time></trkpt><trkpt lat="43.461607162812705" lon="10.603276796628618"><ele>417.8571428571429</ele><time>2026-04-26T11:00:33.005Z</time></trkpt><trkpt lat="43.46154024464888" lon="10.603314104097509"><ele>415.0</ele><time>2026-04-26T11:00:34.005Z</time></trkpt><trkpt lat="43.46148124642639" lon="10.60335903437628"><ele>415.00000000000006</ele><time>2026-04-26T11:00:35.005Z</time></trkpt><trkpt lat="43.46141611149879" lon="10.603397486497094"><ele>415.0</ele><time>2026-04-26T11:00:36.005Z</time></trkpt><trkpt lat="43.46134368080654" lon="10.603427453129521"><ele>415.0</ele><time>2026-04-26T11:00:37.005Z</time></trkpt><trkpt lat="43.46126740131373" lon="10.603452295191563"><ele>415.0</ele><time>2026-04-26T11:00:38.006Z</time></trkpt><trkpt lat="43.46117844714494" lon="10.603479859911463"><ele>415.00000000000006</ele><time>2026-04-26T11:00:40.006Z</time></trkpt><trkpt lat="43.461123309186306" lon="10.603566114443591"><ele>415.0</ele><time>2026-04-26T11:00:42.006Z</time></trkpt><trkpt lat="43.461114019326494" lon="10.603699966641306"><ele>416.33333333333337</ele><time>2026-04-26T11:00:44.006Z</time></trkpt><trkpt lat="43.461076450761695" lon="10.603789914124237"><ele>417.6666666666667</ele><time>2026-04-26T11:00:46.006Z</time></trkpt><trkpt lat="43.46101750015383" lon="10.603867759817504"><ele>419.0</ele><time>2026-04-26T11:00:48.006Z</time></trkpt><trkpt lat="43.46097687980754" lon="10.60397971052522"><ele>420.33333333333337</ele><time>2026-04-26T11:00:50.006Z</time></trkpt><trkpt lat="43.46092940959505" lon="10.604071585675468"><ele>421.6666666666667</ele><time>2026-04-26T11:00:52.006Z</time></trkpt><trkpt lat="43.46087521855607" lon="10.604144208938393"><ele>423.0</ele><time>2026-04-26T11:00:56.006Z</time></trkpt><trkpt lat="43.46084014043628" lon="10.60422095588921"><ele>423.0</ele><time>2026-04-26T11:01:41.006Z</time></trkpt><trkpt lat="43.460776420994655" lon="10.604328724931806"><ele>423.0</ele><time>2026-04-26T11:01:43.006Z</time></trkpt><trkpt lat="43.46070937824994" lon="10.604447991649863"><ele>423.0</ele><time>2026-04-26T11:01:44.006Z</time></trkpt><trkpt lat="43.46064989117329" lon="10.604571173192447"><ele>423.0</ele><time>2026-04-26T11:01:45.006Z</time></trkpt><trkpt lat="43.46056491833784" lon="10.604687829848789"><ele>423.0</ele><time>2026-04-26T11:01:46.006Z</time></trkpt><trkpt lat="43.4604982981854" lon="10.604787150560071"><ele>427.0</ele><time>2026-04-26T11:01:47.006Z</time></trkpt><trkpt lat="43.460427360298695" lon="10.604869286093779"><ele>431.0</ele><time>2026-04-26T11:01:48.006Z</time></trkpt><trkpt lat="43.46035906228354" lon="10.604954208074334"><ele>434.99999999999994</ele><time>2026-04-26T11:01:49.006Z</time></trkpt><trkpt lat="43.46028430752928" lon="10.605054782012454"><ele>439.0</ele><time>2026-04-26T11:01:50.006Z</time></trkpt><trkpt lat="43.4602118821818" lon="10.605161227545432"><ele>443.0</ele><time>2026-04-26T11:01:51.006Z</time></trkpt><trkpt lat="43.460142280697596" lon="10.605272682585902"><ele>436.4</ele><time>2026-04-26T11:01:52.006Z</time></trkpt><trkpt lat="43.46007162756667" lon="10.605382398871207"><ele>429.79999999999995</ele><time>2026-04-26T11:01:53.006Z</time></trkpt><trkpt lat="43.45999527995969" lon="10.605468915455608"><ele>423.2</ele><time>2026-04-26T11:01:54.006Z</time></trkpt><trkpt lat="43.459911318670486" lon="10.605557246125294"><ele>416.6</ele><time>2026-04-26T11:01:55.006Z</time></trkpt><trkpt lat="43.45983069965037" lon="10.605637761160544"><ele>410.0</ele><time>2026-04-26T11:01:56.006Z</time></trkpt><trkpt lat="43.45975049830983" lon="10.60571719330691"><ele>410.0</ele><time>2026-04-26T11:01:57.006Z</time></trkpt><trkpt lat="43.45967263911658" lon="10.605798607003909"><ele>410.0</ele><time>2026-04-26T11:01:58.006Z</time></trkpt><trkpt lat="43.45959793891182" lon="10.605885013297423"><ele>410.0</ele><time>2026-04-26T11:01:59.006Z</time></trkpt><trkpt lat="43.45952633155577" lon="10.605969918691642"><ele>410.0</ele><time>2026-04-26T11:02:00.006Z</time></trkpt><trkpt lat="43.45944045671081" lon="10.606051846234337"><ele>410.0</ele><time>2026-04-26T11:02:01.006Z</time></trkpt><trkpt lat="43.459352122843306" lon="10.606119619158923"><ele>407.8</ele><time>2026-04-26T11:02:02.006Z</time></trkpt><trkpt lat="43.45926451272517" lon="10.60617959033831"><ele>405.6</ele><time>2026-04-26T11:02:03.006Z</time></trkpt><trkpt lat="43.45918208030833" lon="10.60621864984984"><ele>403.4</ele><time>2026-04-26T11:02:04.006Z</time></trkpt><trkpt lat="43.459083073026" lon="10.606253158054535"><ele>401.2</ele><time>2026-04-26T11:02:05.006Z</time></trkpt><trkpt lat="43.45899177200947" lon="10.606292116386797"><ele>399.0</ele><time>2026-04-26T11:02:06.006Z</time></trkpt><trkpt lat="43.458892164970436" lon="10.606337855216152"><ele>399.0</ele><time>2026-04-26T11:02:07.006Z</time></trkpt><trkpt lat="43.45878818215327" lon="10.606387105822183"><ele>399.0</ele><time>2026-04-26T11:02:08.006Z</time></trkpt><trkpt lat="43.45869123465392" lon="10.606457913061005"><ele>399.0</ele><time>2026-04-26T11:02:09.006Z</time></trkpt><trkpt lat="43.45860233231638" lon="10.60651858857062"><ele>399.0</ele><time>2026-04-26T11:02:10.006Z</time></trkpt><trkpt lat="43.45852550369794" lon="10.606575001620259"><ele>399.0</ele><time>2026-04-26T11:02:11.006Z</time></trkpt><trkpt lat="43.458455256141804" lon="10.606620962307671"><ele>400.3333333333333</ele><time>2026-04-26T11:02:12.006Z</time></trkpt><trkpt lat="43.45839055318921" lon="10.606650282754872"><ele>401.66666666666663</ele><time>2026-04-26T11:02:13.006Z</time></trkpt><trkpt lat="43.458324995745095" lon="10.606660235194804"><ele>403.0</ele><time>2026-04-26T11:02:14.006Z</time></trkpt><trkpt lat="43.458240601807" lon="10.606619480422378"><ele>404.3333333333333</ele><time>2026-04-26T11:02:16.006Z</time></trkpt><trkpt lat="43.458162518826036" lon="10.606491153454408"><ele>405.66666666666663</ele><time>2026-04-26T11:02:18.006Z</time></trkpt><trkpt lat="43.45812733810063" lon="10.606403632390567"><ele>407.0</ele><time>2026-04-26T11:02:19.006Z</time></trkpt><trkpt lat="43.45809631170623" lon="10.606307688585701"><ele>407.0</ele><time>2026-04-26T11:02:20.006Z</time></trkpt><trkpt lat="43.45806945811167" lon="10.606198373439641"><ele>407.0</ele><time>2026-04-26T11:02:21.006Z</time></trkpt><trkpt lat="43.458023998530955" lon="10.606066321183818"><ele>407.0</ele><time>2026-04-26T11:02:22.006Z</time></trkpt><trkpt lat="43.457975929758376" lon="10.605931384673974"><ele>407.0</ele><time>2026-04-26T11:02:23.006Z</time></trkpt><trkpt lat="43.45792714859653" lon="10.605781603030698"><ele>407.0</ele><time>2026-04-26T11:02:24.006Z</time></trkpt><trkpt lat="43.45788637767985" lon="10.605609902015813"><ele>407.40000000000003</ele><time>2026-04-26T11:02:25.006Z</time></trkpt><trkpt lat="43.4578596050985" lon="10.605464170065146"><ele>407.8</ele><time>2026-04-26T11:02:26.006Z</time></trkpt><trkpt lat="43.45783211877502" lon="10.605321602547047"><ele>408.2</ele><time>2026-04-26T11:02:27.006Z</time></trkpt><trkpt lat="43.457806107834934" lon="10.605184633612582"><ele>408.6</ele><time>2026-04-26T11:02:28.006Z</time></trkpt><trkpt lat="43.4577712279453" lon="10.605054898540418"><ele>409.0</ele><time>2026-04-26T11:02:29.006Z</time></trkpt><trkpt lat="43.457737473893935" lon="10.604931735614102"><ele>411.6</ele><time>2026-04-26T11:02:30.006Z</time></trkpt><trkpt lat="43.457702006939485" lon="10.604810978493555"><ele>414.2</ele><time>2026-04-26T11:02:31.006Z</time></trkpt><trkpt lat="43.45765687246407" lon="10.60469504359545"><ele>416.8</ele><time>2026-04-26T11:02:32.006Z</time></trkpt><trkpt lat="43.45761273421909" lon="10.604583909016835"><ele>419.40000000000003</ele><time>2026-04-26T11:02:33.006Z</time></trkpt><trkpt lat="43.457564911352705" lon="10.604474348923947"><ele>422.0</ele><time>2026-04-26T11:02:34.006Z</time></trkpt><trkpt lat="43.45752449884577" lon="10.604349123193781"><ele>425.40000000000003</ele><time>2026-04-26T11:02:35.006Z</time></trkpt><trkpt lat="43.45748599187809" lon="10.60422407758108"><ele>428.8</ele><time>2026-04-26T11:02:36.006Z</time></trkpt><trkpt lat="43.457428803695464" lon="10.604112070320356"><ele>432.2</ele><time>2026-04-26T11:02:37.006Z</time></trkpt><trkpt lat="43.457364188147125" lon="10.604022691296112"><ele>435.6</ele><time>2026-04-26T11:02:38.006Z</time></trkpt><trkpt lat="43.45729877358897" lon="10.603948773861827"><ele>439.0</ele><time>2026-04-26T11:02:39.006Z</time></trkpt><trkpt lat="43.457242181123355" lon="10.603870433004406"><ele>439.0</ele><time>2026-04-26T11:02:40.006Z</time></trkpt><trkpt lat="43.45715526181539" lon="10.603802600297776"><ele>439.0</ele><time>2026-04-26T11:02:42.006Z</time></trkpt><trkpt lat="43.45708058816363" lon="10.603845541423656"><ele>439.0</ele><time>2026-04-26T11:02:44.006Z</time></trkpt><trkpt lat="43.45703029247915" lon="10.603973334892832"><ele>439.0</ele><time>2026-04-26T11:02:46.006Z</time></trkpt><trkpt lat="43.45703406973472" lon="10.60407121300944"><ele>439.0</ele><time>2026-04-26T11:02:47.006Z</time></trkpt><trkpt lat="43.4570243376242" lon="10.60421291525205"><ele>438.5</ele><time>2026-04-26T11:02:48.006Z</time></trkpt><trkpt lat="43.45699931414243" lon="10.60439572313933"><ele>438.0</ele><time>2026-04-26T11:02:49.006Z</time></trkpt><trkpt lat="43.45700776293262" lon="10.604561098332523"><ele>437.5</ele><time>2026-04-26T11:02:50.006Z</time></trkpt><trkpt lat="43.45701181896391" lon="10.604737599659988"><ele>437.0</ele><time>2026-04-26T11:02:51.006Z</time></trkpt><trkpt lat="43.457022586692716" lon="10.604888733909636"><ele>436.99999999999994</ele><time>2026-04-26T11:02:52.006Z</time></trkpt><trkpt lat="43.45702294466621" lon="10.60499545479364"><ele>437.0</ele><time>2026-04-26T11:02:53.006Z</time></trkpt><trkpt lat="43.457007703031394" lon="10.605102045437096"><ele>437.0</ele><time>2026-04-26T11:02:54.006Z</time></trkpt><trkpt lat="43.45695748215957" lon="10.605238342749725"><ele>437.0</ele><time>2026-04-26T11:02:56.006Z</time></trkpt><trkpt lat="43.456904972519254" lon="10.605286786775245"><ele>436.99999999999994</ele><time>2026-04-26T11:02:57.006Z</time></trkpt><trkpt lat="43.45684321465402" lon="10.605317956592412"><ele>437.0</ele><time>2026-04-26T11:02:58.006Z</time></trkpt><trkpt lat="43.456742919961954" lon="10.60533661759902"><ele>437.0</ele><time>2026-04-26T11:02:59.006Z</time></trkpt><trkpt lat="43.45663477629897" lon="10.605326033903056"><ele>437.00000000000006</ele><time>2026-04-26T11:03:00.006Z</time></trkpt><trkpt lat="43.456529143976894" lon="10.605320760803432"><ele>437.00000000000006</ele><time>2026-04-26T11:03:01.006Z</time></trkpt><trkpt lat="43.45644431421862" lon="10.605310555143657"><ele>437.0</ele><time>2026-04-26T11:03:02.006Z</time></trkpt><trkpt lat="43.456374878226185" lon="10.60529732198948"><ele>437.0</ele><time>2026-04-26T11:03:03.006Z</time></trkpt><trkpt lat="43.45626656775486" lon="10.605228108022063"><ele>440.8</ele><time>2026-04-26T11:03:05.006Z</time></trkpt><trkpt lat="43.45617058786339" lon="10.605189536032453"><ele>444.6</ele><time>2026-04-26T11:03:06.006Z</time></trkpt><trkpt lat="43.45610542243067" lon="10.605160296427321"><ele>448.40000000000003</ele><time>2026-04-26T11:03:07.006Z</time></trkpt><trkpt lat="43.45602765868918" lon="10.605311693177836"><ele>452.20000000000005</ele><time>2026-04-26T11:03:09.006Z</time></trkpt><trkpt lat="43.45604164683988" lon="10.605411081095918"><ele>456.0</ele><time>2026-04-26T11:03:10.006Z</time></trkpt><trkpt lat="43.45606678551483" lon="10.605526178100247"><ele>457.0</ele><time>2026-04-26T11:03:11.006Z</time></trkpt><trkpt lat="43.45610855782325" lon="10.605665866639077"><ele>458.0</ele><time>2026-04-26T11:03:12.006Z</time></trkpt><trkpt lat="43.45614991974008" lon="10.605786116791894"><ele>459.0</ele><time>2026-04-26T11:03:13.006Z</time></trkpt><trkpt lat="43.456194460860544" lon="10.605877380563177"><ele>460.0</ele><time>2026-04-26T11:03:14.006Z</time></trkpt><trkpt lat="43.456221597682664" lon="10.605957095243426"><ele>461.0</ele><time>2026-04-26T11:03:15.006Z</time></trkpt><trkpt lat="43.45625537150442" lon="10.606051066447769"><ele>462.0</ele><time>2026-04-26T11:03:17.006Z</time></trkpt><trkpt lat="43.45634069879106" lon="10.60616436183894"><ele>457.5</ele><time>2026-04-26T11:03:19.006Z</time></trkpt><trkpt lat="43.45637915573927" lon="10.606239666444397"><ele>453.0</ele><time>2026-04-26T11:03:20.006Z</time></trkpt><trkpt lat="43.4564123138611" lon="10.606321455548997"><ele>448.5</ele><time>2026-04-26T11:03:21.006Z</time></trkpt><trkpt lat="43.4564302157429" lon="10.606492137184427"><ele>444.0</ele><time>2026-04-26T11:03:23.006Z</time></trkpt><trkpt lat="43.45641268369138" lon="10.606580088731844"><ele>439.5</ele><time>2026-04-26T11:03:25.006Z</time></trkpt><trkpt lat="43.45641395383034" lon="10.606749389529858"><ele>435.0</ele><time>2026-04-26T11:03:27.006Z</time></trkpt><trkpt lat="43.45640351725736" lon="10.606867608048516"><ele>435.0</ele><time>2026-04-26T11:03:28.006Z</time></trkpt><trkpt lat="43.45641087982522" lon="10.606983602136403"><ele>435.0</ele><time>2026-04-26T11:03:29.006Z</time></trkpt><trkpt lat="43.456450777579896" lon="10.607098743662043"><ele>435.0</ele><time>2026-04-26T11:03:30.006Z</time></trkpt><trkpt lat="43.45648194643903" lon="10.607207931916202"><ele>435.0</ele><time>2026-04-26T11:03:31.007Z</time></trkpt><trkpt lat="43.45650173476983" lon="10.607334042561515"><ele>435.0</ele><time>2026-04-26T11:03:32.007Z</time></trkpt><trkpt lat="43.456519787623485" lon="10.607441026679437"><ele>435.0</ele><time>2026-04-26T11:03:33.007Z</time></trkpt><trkpt lat="43.456524739029064" lon="10.60758428589641"><ele>434.4</ele><time>2026-04-26T11:03:35.007Z</time></trkpt><trkpt lat="43.45650349659938" lon="10.607753702780524"><ele>433.8</ele><time>2026-04-26T11:03:37.007Z</time></trkpt><trkpt lat="43.45647182210121" lon="10.60786636008942"><ele>433.20000000000005</ele><time>2026-04-26T11:03:38.007Z</time></trkpt><trkpt lat="43.456441481862974" lon="10.607984321642471"><ele>432.6</ele><time>2026-04-26T11:03:39.007Z</time></trkpt><trkpt lat="43.45640050655298" lon="10.608079827538887"><ele>432.0</ele><time>2026-04-26T11:03:40.007Z</time></trkpt><trkpt lat="43.456355980105954" lon="10.608165571717954"><ele>432.0</ele><time>2026-04-26T11:03:41.007Z</time></trkpt><trkpt lat="43.456307633898184" lon="10.608225674116344"><ele>432.00000000000006</ele><time>2026-04-26T11:03:42.007Z</time></trkpt><trkpt lat="43.45626923446325" lon="10.608326508529782"><ele>432.00000000000006</ele><time>2026-04-26T11:03:44.007Z</time></trkpt><trkpt lat="43.45626947692903" lon="10.608468991342574"><ele>432.0</ele><time>2026-04-26T11:03:46.007Z</time></trkpt><trkpt lat="43.45621667339827" lon="10.608590162209401"><ele>432.0</ele><time>2026-04-26T11:03:48.007Z</time></trkpt><trkpt lat="43.45615346498069" lon="10.608694915990604"><ele>436.6666666666667</ele><time>2026-04-26T11:03:50.007Z</time></trkpt><trkpt lat="43.456090910803844" lon="10.608761451027028"><ele>441.33333333333337</ele><time>2026-04-26T11:03:59.007Z</time></trkpt><trkpt lat="43.45601508793215" lon="10.608827161897437"><ele>446.0</ele><time>2026-04-26T11:04:01.007Z</time></trkpt><trkpt lat="43.45595672403104" lon="10.608897229339084"><ele>450.6666666666667</ele><time>2026-04-26T11:04:02.007Z</time></trkpt><trkpt lat="43.455898943202676" lon="10.60897062455094"><ele>455.33333333333337</ele><time>2026-04-26T11:04:03.007Z</time></trkpt><trkpt lat="43.45586362956392" lon="10.609051107132276"><ele>460.0</ele><time>2026-04-26T11:04:04.007Z</time></trkpt><trkpt lat="43.45582119741678" lon="10.6091208234372"><ele>459.99999999999994</ele><time>2026-04-26T11:04:05.007Z</time></trkpt><trkpt lat="43.45578055622643" lon="10.609203343012704"><ele>460.0</ele><time>2026-04-26T11:04:06.007Z</time></trkpt><trkpt lat="43.45573607306357" lon="10.60929698168609"><ele>459.99999999999994</ele><time>2026-04-26T11:04:07.007Z</time></trkpt><trkpt lat="43.45570362998714" lon="10.6093767175886"><ele>459.99999999999994</ele><time>2026-04-26T11:04:08.007Z</time></trkpt><trkpt lat="43.45567507179182" lon="10.609460922040677"><ele>460.0</ele><time>2026-04-26T11:04:09.007Z</time></trkpt><trkpt lat="43.455644417606905" lon="10.609543585998756"><ele>459.99999999999994</ele><time>2026-04-26T11:04:10.007Z</time></trkpt><trkpt lat="43.45561522976639" lon="10.609633326589533"><ele>459.99999999999994</ele><time>2026-04-26T11:04:11.007Z</time></trkpt><trkpt lat="43.45559636385524" lon="10.609720507946474"><ele>458.71428571428567</ele><time>2026-04-26T11:04:12.007Z</time></trkpt><trkpt lat="43.45557018321572" lon="10.609823496800766"><ele>457.42857142857144</ele><time>2026-04-26T11:04:13.007Z</time></trkpt><trkpt lat="43.45555383624037" lon="10.609915590562473"><ele>456.1428571428571</ele><time>2026-04-26T11:04:14.007Z</time></trkpt><trkpt lat="43.45553761161113" lon="10.61001257266963"><ele>454.85714285714283</ele><time>2026-04-26T11:04:15.007Z</time></trkpt><trkpt lat="43.45551229844259" lon="10.610099535315788"><ele>453.57142857142856</ele><time>2026-04-26T11:04:16.007Z</time></trkpt><trkpt lat="43.45548394361324" lon="10.610187377480198"><ele>452.2857142857143</ele><time>2026-04-26T11:04:17.007Z</time></trkpt><trkpt lat="43.45544885636366" lon="10.610269645976876"><ele>451.0</ele><time>2026-04-26T11:04:18.007Z</time></trkpt><trkpt lat="43.45539182246708" lon="10.610385447705223"><ele>451.0</ele><time>2026-04-26T11:04:20.007Z</time></trkpt><trkpt lat="43.45529441483136" lon="10.610464450266418"><ele>451.0</ele><time>2026-04-26T11:04:22.007Z</time></trkpt><trkpt lat="43.455185807759435" lon="10.610492264300722"><ele>451.0</ele><time>2026-04-26T11:04:24.007Z</time></trkpt><trkpt lat="43.45507950676653" lon="10.610474965906498"><ele>451.0</ele><time>2026-04-26T11:04:26.007Z</time></trkpt><trkpt lat="43.455007043690095" lon="10.610464839913018"><ele>451.0</ele><time>2026-04-26T11:04:27.007Z</time></trkpt><trkpt lat="43.454929714766614" lon="10.61046613228407"><ele>451.0</ele><time>2026-04-26T11:04:28.007Z</time></trkpt><trkpt lat="43.45482245421663" lon="10.610502285450943"><ele>451.0</ele><time>2026-04-26T11:04:30.007Z</time></trkpt><trkpt lat="43.454750265385854" lon="10.610495740459601"><ele>451.0</ele><time>2026-04-26T11:04:32.007Z</time></trkpt><trkpt lat="43.454624614215014" lon="10.610527178604563"><ele>451.0</ele><time>2026-04-26T11:04:33.996Z</time></trkpt><trkpt lat="43.45456214940075" lon="10.61054470601607"><ele>451.0</ele><time>2026-04-26T11:04:34.996Z</time></trkpt><trkpt lat="43.454469071711536" lon="10.610634462217291"><ele>451.83333333333337</ele><time>2026-04-26T11:04:36.996Z</time></trkpt><trkpt lat="43.45438914569626" lon="10.610700925992562"><ele>452.6666666666667</ele><time>2026-04-26T11:04:37.996Z</time></trkpt><trkpt lat="43.4542953361576" lon="10.610752665462027"><ele>453.5</ele><time>2026-04-26T11:04:38.996Z</time></trkpt><trkpt lat="43.45421846513586" lon="10.610780381479955"><ele>454.33333333333337</ele><time>2026-04-26T11:04:39.996Z</time></trkpt><trkpt lat="43.45413295597054" lon="10.610785281834872"><ele>455.1666666666667</ele><time>2026-04-26T11:04:40.996Z</time></trkpt><trkpt lat="43.45406315681821" lon="10.610760767836545"><ele>456.0</ele><time>2026-04-26T11:04:41.996Z</time></trkpt><trkpt lat="43.45399916694818" lon="10.610733462176166"><ele>456.0</ele><time>2026-04-26T11:04:42.996Z</time></trkpt><trkpt lat="43.453937333408454" lon="10.610701249456561"><ele>456.0</ele><time>2026-04-26T11:04:43.996Z</time></trkpt><trkpt lat="43.45385641796773" lon="10.610667975255978"><ele>456.0</ele><time>2026-04-26T11:04:44.996Z</time></trkpt><trkpt lat="43.45374793162222" lon="10.610610424423388"><ele>456.0</ele><time>2026-04-26T11:04:45.996Z</time></trkpt><trkpt lat="43.453654199035874" lon="10.610566958520867"><ele>456.0</ele><time>2026-04-26T11:04:46.996Z</time></trkpt><trkpt lat="43.45358485433729" lon="10.61053576623548"><ele>456.0</ele><time>2026-04-26T11:04:47.996Z</time></trkpt><trkpt lat="43.45351434234759" lon="10.610506216660006"><ele>454.8333333333333</ele><time>2026-04-26T11:04:48.996Z</time></trkpt><trkpt lat="43.45343366013587" lon="10.610479402544"><ele>453.66666666666663</ele><time>2026-04-26T11:04:49.996Z</time></trkpt><trkpt lat="43.453357694118615" lon="10.610447189746132"><ele>452.5</ele><time>2026-04-26T11:04:50.996Z</time></trkpt><trkpt lat="43.45329599355756" lon="10.61040526427973"><ele>451.3333333333333</ele><time>2026-04-26T11:04:51.996Z</time></trkpt><trkpt lat="43.45324529209785" lon="10.610351947534978"><ele>450.16666666666663</ele><time>2026-04-26T11:04:52.996Z</time></trkpt><trkpt lat="43.45319523714784" lon="10.610272977879724"><ele>449.0</ele><time>2026-04-26T11:04:53.996Z</time></trkpt><trkpt lat="43.45314811939748" lon="10.610180643707098"><ele>451.6</ele><time>2026-04-26T11:04:54.996Z</time></trkpt><trkpt lat="43.45310751411774" lon="10.610083420596132"><ele>454.2</ele><time>2026-04-26T11:04:55.996Z</time></trkpt><trkpt lat="43.4530483427561" lon="10.6099829621044"><ele>456.80000000000007</ele><time>2026-04-26T11:04:56.996Z</time></trkpt><trkpt lat="43.45297689982773" lon="10.609888259092104"><ele>459.40000000000003</ele><time>2026-04-26T11:04:57.996Z</time></trkpt><trkpt lat="43.45288393590788" lon="10.609812513222074"><ele>462.0</ele><time>2026-04-26T11:04:58.996Z</time></trkpt><trkpt lat="43.45279721472715" lon="10.609744530206111"><ele>462.0</ele><time>2026-04-26T11:04:59.996Z</time></trkpt><trkpt lat="43.45271636864865" lon="10.609685703928943"><ele>462.0</ele><time>2026-04-26T11:05:00.996Z</time></trkpt><trkpt lat="43.45264521918893" lon="10.609618746621797"><ele>462.0</ele><time>2026-04-26T11:05:01.996Z</time></trkpt><trkpt lat="43.45256143339045" lon="10.609557982122231"><ele>462.0</ele><time>2026-04-26T11:05:02.996Z</time></trkpt><trkpt lat="43.45248322479894" lon="10.609499411338724"><ele>462.0</ele><time>2026-04-26T11:05:03.996Z</time></trkpt><trkpt lat="43.452421178528574" lon="10.609436150617281"><ele>462.0</ele><time>2026-04-26T11:05:04.996Z</time></trkpt><trkpt lat="43.452370331213785" lon="10.609355796297956"><ele>464.0</ele><time>2026-04-26T11:05:05.996Z</time></trkpt><trkpt lat="43.45233227915517" lon="10.609272938670586"><ele>466.0</ele><time>2026-04-26T11:05:06.996Z</time></trkpt><trkpt lat="43.45229150957721" lon="10.609187549739815"><ele>468.0</ele><time>2026-04-26T11:05:07.996Z</time></trkpt><trkpt lat="43.452268403457055" lon="10.60909530975135"><ele>470.0</ele><time>2026-04-26T11:05:08.996Z</time></trkpt><trkpt lat="43.45222868034073" lon="10.608981375335983"><ele>472.0</ele><time>2026-04-26T11:05:10.996Z</time></trkpt><trkpt lat="43.45215912785072" lon="10.609009867826416"><ele>474.0</ele><time>2026-04-26T11:05:12.996Z</time></trkpt><trkpt lat="43.45210349625566" lon="10.609050791013162"><ele>476.0</ele><time>2026-04-26T11:05:13.996Z</time></trkpt><trkpt lat="43.45204611538676" lon="10.609120433011833"><ele>477.4</ele><time>2026-04-26T11:05:14.996Z</time></trkpt><trkpt lat="43.4520122223051" lon="10.609204073367316"><ele>478.8</ele><time>2026-04-26T11:05:15.996Z</time></trkpt><trkpt lat="43.45201655301679" lon="10.609350204226953"><ele>480.19999999999993</ele><time>2026-04-26T11:05:17.996Z</time></trkpt><trkpt lat="43.45204271747452" lon="10.609527007621338"><ele>481.59999999999997</ele><time>2026-04-26T11:05:19.995Z</time></trkpt><trkpt lat="43.45207153441885" lon="10.609645485087555"><ele>483.0</ele><time>2026-04-26T11:05:20.995Z</time></trkpt><trkpt lat="43.4520833329117" lon="10.609782179905896"><ele>485.0</ele><time>2026-04-26T11:05:21.995Z</time></trkpt><trkpt lat="43.45207699913557" lon="10.609913005441346"><ele>486.99999999999994</ele><time>2026-04-26T11:05:22.995Z</time></trkpt><trkpt lat="43.452068314385286" lon="10.61002159626884"><ele>488.99999999999994</ele><time>2026-04-26T11:05:23.995Z</time></trkpt><trkpt lat="43.45205361300516" lon="10.61012952058004"><ele>491.0</ele><time>2026-04-26T11:05:24.995Z</time></trkpt><trkpt lat="43.45204963014097" lon="10.610321912268077"><ele>493.0</ele><time>2026-04-26T11:05:26.995Z</time></trkpt><trkpt lat="43.45205721954379" lon="10.610414581703397"><ele>494.59999999999997</ele><time>2026-04-26T11:05:27.995Z</time></trkpt><trkpt lat="43.45207269137338" lon="10.61053100777509"><ele>496.19999999999993</ele><time>2026-04-26T11:05:28.995Z</time></trkpt><trkpt lat="43.45209261290847" lon="10.610660539322147"><ele>497.8</ele><time>2026-04-26T11:05:29.995Z</time></trkpt><trkpt lat="43.452121484192354" lon="10.610780170960787"><ele>499.4</ele><time>2026-04-26T11:05:30.995Z</time></trkpt><trkpt lat="43.45214875451153" lon="10.610896006830469"><ele>501.0</ele><time>2026-04-26T11:05:31.995Z</time></trkpt><trkpt lat="43.45216735721916" lon="10.611013985169608"><ele>491.4</ele><time>2026-04-26T11:05:32.995Z</time></trkpt><trkpt lat="43.45220232974724" lon="10.611131930762658"><ele>481.8</ele><time>2026-04-26T11:05:33.995Z</time></trkpt><trkpt lat="43.45222973255704" lon="10.61123516760239"><ele>472.19999999999993</ele><time>2026-04-26T11:05:34.995Z</time></trkpt><trkpt lat="43.45225793547412" lon="10.61136333677874"><ele>462.59999999999997</ele><time>2026-04-26T11:05:35.995Z</time></trkpt><trkpt lat="43.45227953367173" lon="10.611483419960594"><ele>453.0</ele><time>2026-04-26T11:05:36.995Z</time></trkpt><trkpt lat="43.45231231967539" lon="10.611607440644807"><ele>453.0</ele><time>2026-04-26T11:05:37.995Z</time></trkpt><trkpt lat="43.45234280723898" lon="10.61172054582929"><ele>452.99999999999994</ele><time>2026-04-26T11:05:38.995Z</time></trkpt><trkpt lat="43.45236930323872" lon="10.6118261517934"><ele>452.99999999999994</ele><time>2026-04-26T11:05:39.995Z</time></trkpt><trkpt lat="43.45238337725122" lon="10.611923204933108"><ele>453.0</ele><time>2026-04-26T11:05:40.995Z</time></trkpt><trkpt lat="43.45238948332221" lon="10.612059633107918"><ele>453.0</ele><time>2026-04-26T11:05:42.995Z</time></trkpt><trkpt lat="43.4523801193469" lon="10.61224798412535"><ele>453.3333333333333</ele><time>2026-04-26T11:05:44.995Z</time></trkpt><trkpt lat="43.45237634127583" lon="10.61235730203952"><ele>453.66666666666663</ele><time>2026-04-26T11:05:45.995Z</time></trkpt><trkpt lat="43.45234155659341" lon="10.612492360258496"><ele>454.0</ele><time>2026-04-26T11:05:46.995Z</time></trkpt><trkpt lat="43.45233392559619" lon="10.61261397157527"><ele>454.3333333333333</ele><time>2026-04-26T11:05:47.995Z</time></trkpt><trkpt lat="43.4523436848691" lon="10.612723126018462"><ele>454.66666666666663</ele><time>2026-04-26T11:05:48.995Z</time></trkpt><trkpt lat="43.45237663183768" lon="10.612844778389185"><ele>455.0</ele><time>2026-04-26T11:05:49.995Z</time></trkpt><trkpt lat="43.452430044836646" lon="10.612959438866223"><ele>457.8</ele><time>2026-04-26T11:05:50.995Z</time></trkpt><trkpt lat="43.452488717249864" lon="10.613082832203752"><ele>460.6</ele><time>2026-04-26T11:05:51.995Z</time></trkpt><trkpt lat="43.452554081075014" lon="10.613187268637263"><ele>463.4</ele><time>2026-04-26T11:05:52.995Z</time></trkpt><trkpt lat="43.4526133438077" lon="10.613274751229378"><ele>466.2</ele><time>2026-04-26T11:05:53.995Z</time></trkpt><trkpt lat="43.45267066026925" lon="10.613353212624066"><ele>469.0</ele><time>2026-04-26T11:05:54.995Z</time></trkpt><trkpt lat="43.452731733004875" lon="10.61343491532983"><ele>469.00000000000006</ele><time>2026-04-26T11:05:55.995Z</time></trkpt><trkpt lat="43.452775798487274" lon="10.613506899564017"><ele>469.0</ele><time>2026-04-26T11:05:56.995Z</time></trkpt><trkpt lat="43.45283431923746" lon="10.613609027114679"><ele>469.0</ele><time>2026-04-26T11:05:57.995Z</time></trkpt><trkpt lat="43.45288520672899" lon="10.61370274036012"><ele>469.0</ele><time>2026-04-26T11:05:58.995Z</time></trkpt><trkpt lat="43.45292829312981" lon="10.613803882394754"><ele>469.00000000000006</ele><time>2026-04-26T11:05:59.995Z</time></trkpt><trkpt lat="43.45296835536343" lon="10.613899310050403"><ele>469.0</ele><time>2026-04-26T11:06:00.995Z</time></trkpt><trkpt lat="43.452990358957045" lon="10.614006220334254"><ele>466.6666666666667</ele><time>2026-04-26T11:06:01.995Z</time></trkpt><trkpt lat="43.45298537665342" lon="10.614099244750728"><ele>464.33333333333337</ele><time>2026-04-26T11:06:02.995Z</time></trkpt><trkpt lat="43.45297600927974" lon="10.614194728687158"><ele>462.0</ele><time>2026-04-26T11:06:03.995Z</time></trkpt><trkpt lat="43.452986114438545" lon="10.614293847098573"><ele>459.66666666666663</ele><time>2026-04-26T11:06:04.995Z</time></trkpt><trkpt lat="43.45301662231916" lon="10.614454219613002"><ele>457.3333333333333</ele><time>2026-04-26T11:06:06.995Z</time></trkpt><trkpt lat="43.45306047576464" lon="10.614526768281682"><ele>455.0</ele><time>2026-04-26T11:06:07.995Z</time></trkpt><trkpt lat="43.4531508078547" lon="10.614601168129823"><ele>455.0</ele><time>2026-04-26T11:06:08.995Z</time></trkpt><trkpt lat="43.4532504568235" lon="10.614668657259928"><ele>455.0</ele><time>2026-04-26T11:06:09.995Z</time></trkpt><trkpt lat="43.453329014276896" lon="10.614716287809685"><ele>455.0</ele><time>2026-04-26T11:06:10.995Z</time></trkpt><trkpt lat="43.45343916290739" lon="10.614736573602416"><ele>455.0</ele><time>2026-04-26T11:06:12.995Z</time></trkpt><trkpt lat="43.45348526569174" lon="10.614802602725934"><ele>455.0</ele><time>2026-04-26T11:06:13.995Z</time></trkpt><trkpt lat="43.453527732842005" lon="10.6148974915788"><ele>455.0</ele><time>2026-04-26T11:06:14.995Z</time></trkpt><trkpt lat="43.45357271630429" lon="10.614999835193467"><ele>455.0</ele><time>2026-04-26T11:06:15.995Z</time></trkpt><trkpt lat="43.453608108076295" lon="10.615100694973544"><ele>455.0</ele><time>2026-04-26T11:06:16.995Z</time></trkpt><trkpt lat="43.453607301146086" lon="10.615205058511993"><ele>455.0</ele><time>2026-04-26T11:06:17.995Z</time></trkpt><trkpt lat="43.45362141154261" lon="10.615357858931834"><ele>455.0</ele><time>2026-04-26T11:06:18.995Z</time></trkpt><trkpt lat="43.45362337485341" lon="10.615522687864459"><ele>454.66666666666663</ele><time>2026-04-26T11:06:19.995Z</time></trkpt><trkpt lat="43.45361589339989" lon="10.615672718675867"><ele>454.3333333333333</ele><time>2026-04-26T11:06:20.995Z</time></trkpt><trkpt lat="43.45360260230446" lon="10.615787603395468"><ele>454.0</ele><time>2026-04-26T11:06:21.995Z</time></trkpt><trkpt lat="43.453585755134604" lon="10.615890652737265"><ele>453.66666666666663</ele><time>2026-04-26T11:06:22.995Z</time></trkpt><trkpt lat="43.45355745838917" lon="10.615982435065776"><ele>453.3333333333333</ele><time>2026-04-26T11:06:23.995Z</time></trkpt><trkpt lat="43.45352023098059" lon="10.616071692059702"><ele>453.0</ele><time>2026-04-26T11:06:24.995Z</time></trkpt><trkpt lat="43.453465977012904" lon="10.616159941653827"><ele>450.59999999999997</ele><time>2026-04-26T11:06:25.995Z</time></trkpt><trkpt lat="43.453387516675704" lon="10.616235611581539"><ele>448.19999999999993</ele><time>2026-04-26T11:06:26.995Z</time></trkpt><trkpt lat="43.45327762643272" lon="10.616331050381673"><ele>445.8</ele><time>2026-04-26T11:06:27.995Z</time></trkpt><trkpt lat="43.453187991210875" lon="10.616425700310025"><ele>443.4</ele><time>2026-04-26T11:06:28.995Z</time></trkpt><trkpt lat="43.4531193670429" lon="10.616503401326295"><ele>441.0</ele><time>2026-04-26T11:06:29.995Z</time></trkpt><trkpt lat="43.45304466212644" lon="10.616596255744863"><ele>441.0</ele><time>2026-04-26T11:06:30.995Z</time></trkpt><trkpt lat="43.452970856006075" lon="10.616683620660304"><ele>441.0</ele><time>2026-04-26T11:06:31.995Z</time></trkpt><trkpt lat="43.45290091577612" lon="10.616729651605715"><ele>441.0</ele><time>2026-04-26T11:06:32.995Z</time></trkpt><trkpt lat="43.45282499056835" lon="10.616744903408854"><ele>441.0</ele><time>2026-04-26T11:06:33.995Z</time></trkpt><trkpt lat="43.45275646037086" lon="10.616716112479828"><ele>441.0</ele><time>2026-04-26T11:06:34.995Z</time></trkpt><trkpt lat="43.45268535772897" lon="10.616682065562594"><ele>441.0</ele><time>2026-04-26T11:06:35.995Z</time></trkpt><trkpt lat="43.45260663966429" lon="10.616641994461066"><ele>439.6666666666667</ele><time>2026-04-26T11:06:36.995Z</time></trkpt><trkpt lat="43.452529256575986" lon="10.616624870937088"><ele>438.33333333333337</ele><time>2026-04-26T11:06:37.995Z</time></trkpt><trkpt lat="43.452409690099365" lon="10.616720302592034"><ele>437.0</ele><time>2026-04-26T11:06:39.995Z</time></trkpt><trkpt lat="43.452341273668935" lon="10.616774790903376"><ele>435.6666666666667</ele><time>2026-04-26T11:06:40.995Z</time></trkpt><trkpt lat="43.452272312562684" lon="10.616834726542661"><ele>434.33333333333337</ele><time>2026-04-26T11:06:41.995Z</time></trkpt><trkpt lat="43.452226306525844" lon="10.616894808158248"><ele>433.0</ele><time>2026-04-26T11:06:42.995Z</time></trkpt><trkpt lat="43.45214041885588" lon="10.616988029069445"><ele>439.0</ele><time>2026-04-26T11:06:43.995Z</time></trkpt><trkpt lat="43.45205646017074" lon="10.617087000771935"><ele>445.0</ele><time>2026-04-26T11:06:44.995Z</time></trkpt><trkpt lat="43.45197351635963" lon="10.6172082336902"><ele>451.0</ele><time>2026-04-26T11:06:45.995Z</time></trkpt><trkpt lat="43.45189598866116" lon="10.617320514678168"><ele>457.0</ele><time>2026-04-26T11:06:46.995Z</time></trkpt><trkpt lat="43.45181724539836" lon="10.617447008377397"><ele>457.0</ele><time>2026-04-26T11:06:47.995Z</time></trkpt><trkpt lat="43.451751982199724" lon="10.61755931497183"><ele>457.00000000000006</ele><time>2026-04-26T11:06:48.995Z</time></trkpt><trkpt lat="43.45170397283649" lon="10.617681488172808"><ele>457.00000000000006</ele><time>2026-04-26T11:06:49.995Z</time></trkpt><trkpt lat="43.4516465053569" lon="10.617806826134606"><ele>457.0</ele><time>2026-04-26T11:06:50.995Z</time></trkpt><trkpt lat="43.451596846046385" lon="10.617933433334912"><ele>457.0</ele><time>2026-04-26T11:06:51.995Z</time></trkpt><trkpt lat="43.45155889404318" lon="10.618046604525537"><ele>454.20000000000005</ele><time>2026-04-26T11:06:52.995Z</time></trkpt><trkpt lat="43.45151547099873" lon="10.6181451817958"><ele>451.40000000000003</ele><time>2026-04-26T11:06:53.995Z</time></trkpt><trkpt lat="43.45147748309067" lon="10.618237996459971"><ele>448.59999999999997</ele><time>2026-04-26T11:06:54.995Z</time></trkpt><trkpt lat="43.451441335683896" lon="10.618340332343909"><ele>445.79999999999995</ele><time>2026-04-26T11:06:55.995Z</time></trkpt><trkpt lat="43.45141490832378" lon="10.618468225142484"><ele>443.0</ele><time>2026-04-26T11:06:56.995Z</time></trkpt><trkpt lat="43.451412931414424" lon="10.618627702014809"><ele>442.0</ele><time>2026-04-26T11:06:57.995Z</time></trkpt><trkpt lat="43.45141694957323" lon="10.61878152347665"><ele>440.99999999999994</ele><time>2026-04-26T11:06:58.995Z</time></trkpt><trkpt lat="43.45143209994067" lon="10.618925075211257"><ele>439.99999999999994</ele><time>2026-04-26T11:06:59.995Z</time></trkpt><trkpt lat="43.45144589210547" lon="10.61906058369045"><ele>439.0</ele><time>2026-04-26T11:07:00.995Z</time></trkpt><trkpt lat="43.451421568010126" lon="10.619205724309476"><ele>438.0</ele><time>2026-04-26T11:07:01.995Z</time></trkpt><trkpt lat="43.451392441485744" lon="10.619356096890302"><ele>438.4</ele><time>2026-04-26T11:07:02.995Z</time></trkpt><trkpt lat="43.45137096630286" lon="10.61952165033358"><ele>438.79999999999995</ele><time>2026-04-26T11:07:03.995Z</time></trkpt><trkpt lat="43.4513467828133" lon="10.6196871911942"><ele>439.2</ele><time>2026-04-26T11:07:04.995Z</time></trkpt><trkpt lat="43.4513348915088" lon="10.619814682973951"><ele>439.6</ele><time>2026-04-26T11:07:05.995Z</time></trkpt><trkpt lat="43.451323099239595" lon="10.619938779795948"><ele>440.0</ele><time>2026-04-26T11:07:06.995Z</time></trkpt><trkpt lat="43.45135608693403" lon="10.620059529140985"><ele>440.0</ele><time>2026-04-26T11:07:07.995Z</time></trkpt><trkpt lat="43.45140650663184" lon="10.620176703153225"><ele>440.0</ele><time>2026-04-26T11:07:08.995Z</time></trkpt><trkpt lat="43.45146411918612" lon="10.62026882964715"><ele>440.0</ele><time>2026-04-26T11:07:09.995Z</time></trkpt><trkpt lat="43.451531545149216" lon="10.620357081627107"><ele>440.0</ele><time>2026-04-26T11:07:10.995Z</time></trkpt><trkpt lat="43.451625888786786" lon="10.620407562107024"><ele>440.0</ele><time>2026-04-26T11:07:11.995Z</time></trkpt><trkpt lat="43.45171883277526" lon="10.620479409199326"><ele>442.6</ele><time>2026-04-26T11:07:12.995Z</time></trkpt><trkpt lat="43.45179596724166" lon="10.620538927745255"><ele>445.2</ele><time>2026-04-26T11:07:13.995Z</time></trkpt><trkpt lat="43.451852050749984" lon="10.620610138703901"><ele>447.79999999999995</ele><time>2026-04-26T11:07:14.995Z</time></trkpt><trkpt lat="43.45190246350172" lon="10.62077748542566"><ele>450.4</ele><time>2026-04-26T11:07:16.996Z</time></trkpt><trkpt lat="43.45192020279612" lon="10.620936221950167"><ele>453.0</ele><time>2026-04-26T11:07:17.996Z</time></trkpt><trkpt lat="43.45195470521191" lon="10.621107840579372"><ele>450.79999999999995</ele><time>2026-04-26T11:07:18.996Z</time></trkpt><trkpt lat="43.4520079667681" lon="10.62124489897067"><ele>448.59999999999997</ele><time>2026-04-26T11:07:19.996Z</time></trkpt><trkpt lat="43.452051271821446" lon="10.621340630412734"><ele>446.40000000000003</ele><time>2026-04-26T11:07:20.996Z</time></trkpt><trkpt lat="43.45211261059156" lon="10.62143849429304"><ele>444.20000000000005</ele><time>2026-04-26T11:07:21.996Z</time></trkpt><trkpt lat="43.45221496607023" lon="10.621483121583962"><ele>442.0</ele><time>2026-04-26T11:07:22.996Z</time></trkpt><trkpt lat="43.45230763293906" lon="10.621534176104296"><ele>442.0</ele><time>2026-04-26T11:07:23.996Z</time></trkpt><trkpt lat="43.4524012525138" lon="10.621592511597692"><ele>442.00000000000006</ele><time>2026-04-26T11:07:24.995Z</time></trkpt><trkpt lat="43.45248777187181" lon="10.621633868262835"><ele>442.00000000000006</ele><time>2026-04-26T11:07:25.995Z</time></trkpt><trkpt lat="43.45258568779463" lon="10.62167570559756"><ele>442.0</ele><time>2026-04-26T11:07:26.995Z</time></trkpt><trkpt lat="43.452672770911306" lon="10.621722062826642"><ele>442.0</ele><time>2026-04-26T11:07:27.994Z</time></trkpt><trkpt lat="43.45276244839188" lon="10.621755673899417"><ele>442.00000000000006</ele><time>2026-04-26T11:07:28.995Z</time></trkpt><trkpt lat="43.452856228536476" lon="10.62178128049791"><ele>442.0</ele><time>2026-04-26T11:07:29.995Z</time></trkpt><trkpt lat="43.452938556552375" lon="10.621815340752837"><ele>442.0</ele><time>2026-04-26T11:07:30.995Z</time></trkpt><trkpt lat="43.453003667037116" lon="10.621855393261287"><ele>442.0</ele><time>2026-04-26T11:07:31.995Z</time></trkpt><trkpt lat="43.45306367138885" lon="10.621923624849758"><ele>442.00000000000006</ele><time>2026-04-26T11:07:32.995Z</time></trkpt><trkpt lat="43.453112506918465" lon="10.622004166573179"><ele>442.0</ele><time>2026-04-26T11:07:33.994Z</time></trkpt><trkpt lat="43.453161099102594" lon="10.622099364024653"><ele>441.50000000000006</ele><time>2026-04-26T11:07:34.995Z</time></trkpt><trkpt lat="43.45321247323523" lon="10.62219673945822"><ele>441.0</ele><time>2026-04-26T11:07:35.995Z</time></trkpt><trkpt lat="43.453281392251164" lon="10.622274859101301"><ele>440.5</ele><time>2026-04-26T11:07:36.995Z</time></trkpt><trkpt lat="43.45334368049281" lon="10.622344322338346"><ele>440.0</ele><time>2026-04-26T11:07:37.995Z</time></trkpt><trkpt lat="43.45340125662985" lon="10.622424482024797"><ele>439.50000000000006</ele><time>2026-04-26T11:07:38.995Z</time></trkpt><trkpt lat="43.45345259412118" lon="10.622501486491686"><ele>439.0</ele><time>2026-04-26T11:07:39.995Z</time></trkpt><trkpt lat="43.453485084891994" lon="10.622608850047781"><ele>439.0</ele><time>2026-04-26T11:07:40.995Z</time></trkpt><trkpt lat="43.45351544157357" lon="10.62270051028302"><ele>439.0</ele><time>2026-04-26T11:07:41.995Z</time></trkpt><trkpt lat="43.453531432891346" lon="10.622787014477678"><ele>439.0</ele><time>2026-04-26T11:07:42.995Z</time></trkpt><trkpt lat="43.45352825344048" lon="10.622883761567502"><ele>439.0</ele><time>2026-04-26T11:07:43.995Z</time></trkpt><trkpt lat="43.45352815899274" lon="10.622982250618167"><ele>439.0</ele><time>2026-04-26T11:07:44.995Z</time></trkpt><trkpt lat="43.45352387093373" lon="10.623073539467295"><ele>439.0</ele><time>2026-04-26T11:07:45.995Z</time></trkpt><trkpt lat="43.45352187918055" lon="10.623186328710217"><ele>439.0</ele><time>2026-04-26T11:07:46.995Z</time></trkpt><trkpt lat="43.45353725482605" lon="10.623324773798396"><ele>439.7142857142857</ele><time>2026-04-26T11:07:47.995Z</time></trkpt><trkpt lat="43.453565252873084" lon="10.623456636510534"><ele>440.42857142857144</ele><time>2026-04-26T11:07:48.995Z</time></trkpt><trkpt lat="43.453599749360805" lon="10.623553770927636"><ele>441.1428571428571</ele><time>2026-04-26T11:07:49.995Z</time></trkpt><trkpt lat="43.45363108340834" lon="10.623629166252636"><ele>441.8571428571429</ele><time>2026-04-26T11:07:50.995Z</time></trkpt><trkpt lat="43.45366060883852" lon="10.623719598754384"><ele>442.5714285714286</ele><time>2026-04-26T11:07:51.995Z</time></trkpt><trkpt lat="43.453689201188865" lon="10.62380108008984"><ele>443.2857142857143</ele><time>2026-04-26T11:07:52.995Z</time></trkpt><trkpt lat="43.45370873957646" lon="10.623883529605305"><ele>444.0</ele><time>2026-04-26T11:07:53.995Z</time></trkpt><trkpt lat="43.45373428807848" lon="10.623988461536706"><ele>444.0</ele><time>2026-04-26T11:07:55.995Z</time></trkpt><trkpt lat="43.453732690205086" lon="10.62412619308727"><ele>444.0</ele><time>2026-04-26T11:07:58.995Z</time></trkpt><trkpt lat="43.45368726537345" lon="10.624199843823291"><ele>444.0</ele><time>2026-04-26T11:07:59.995Z</time></trkpt><trkpt lat="43.45363310833938" lon="10.62425164686381"><ele>444.0</ele><time>2026-04-26T11:08:00.995Z</time></trkpt><trkpt lat="43.453560158048305" lon="10.624316232636064"><ele>444.0</ele><time>2026-04-26T11:08:01.995Z</time></trkpt><trkpt lat="43.453472007386665" lon="10.624380939977005"><ele>444.0</ele><time>2026-04-26T11:08:02.995Z</time></trkpt><trkpt lat="43.45338601782782" lon="10.62443382133051"><ele>439.6</ele><time>2026-04-26T11:08:03.995Z</time></trkpt><trkpt lat="43.45330831913775" lon="10.624488726692652"><ele>435.2</ele><time>2026-04-26T11:08:04.995Z</time></trkpt><trkpt lat="43.453217358724906" lon="10.62456322313458"><ele>430.8</ele><time>2026-04-26T11:08:05.995Z</time></trkpt><trkpt lat="43.45311058062234" lon="10.624641432221052"><ele>426.40000000000003</ele><time>2026-04-26T11:08:06.995Z</time></trkpt><trkpt lat="43.45303892170834" lon="10.624701757937572"><ele>422.0</ele><time>2026-04-26T11:08:07.995Z</time></trkpt><trkpt lat="43.45298420117712" lon="10.624791866019827"><ele>421.0</ele><time>2026-04-26T11:08:08.995Z</time></trkpt><trkpt lat="43.45294488745921" lon="10.624882555327428"><ele>420.0</ele><time>2026-04-26T11:08:09.995Z</time></trkpt><trkpt lat="43.452887493822395" lon="10.625009567076255"><ele>419.0</ele><time>2026-04-26T11:08:10.995Z</time></trkpt><trkpt lat="43.45283627537157" lon="10.625132821943447"><ele>418.0</ele><time>2026-04-26T11:08:11.995Z</time></trkpt><trkpt lat="43.45278950177383" lon="10.625221614191636"><ele>417.0</ele><time>2026-04-26T11:08:12.995Z</time></trkpt><trkpt lat="43.4526973915539" lon="10.625314508969137"><ele>417.0</ele><time>2026-04-26T11:08:14.995Z</time></trkpt><trkpt lat="43.452621938217725" lon="10.625335958121081"><ele>417.0</ele><time>2026-04-26T11:08:15.995Z</time></trkpt><trkpt lat="43.45254857796538" lon="10.625356969637133"><ele>417.0</ele><time>2026-04-26T11:08:16.995Z</time></trkpt><trkpt lat="43.45246955822481" lon="10.625361925438208"><ele>417.0</ele><time>2026-04-26T11:08:17.996Z</time></trkpt><trkpt lat="43.4523973262675" lon="10.62534431559611"><ele>417.0</ele><time>2026-04-26T11:08:18.996Z</time></trkpt><trkpt lat="43.45228532574397" lon="10.625320087367385"><ele>417.0</ele><time>2026-04-26T11:08:20.996Z</time></trkpt><trkpt lat="43.452192947109474" lon="10.625288143149923"><ele>419.1666666666667</ele><time>2026-04-26T11:08:22.996Z</time></trkpt><trkpt lat="43.45210362348126" lon="10.625237576961716"><ele>421.33333333333337</ele><time>2026-04-26T11:08:24.996Z</time></trkpt><trkpt lat="43.45204572357189" lon="10.62517618556413"><ele>423.5</ele><time>2026-04-26T11:08:25.996Z</time></trkpt><trkpt lat="43.45197885562459" lon="10.62512171642808"><ele>425.6666666666667</ele><time>2026-04-26T11:08:26.996Z</time></trkpt><trkpt lat="43.45189970629221" lon="10.625069025489212"><ele>427.83333333333337</ele><time>2026-04-26T11:08:27.996Z</time></trkpt><trkpt lat="43.45182886893789" lon="10.625036525819862"><ele>430.0</ele><time>2026-04-26T11:08:28.996Z</time></trkpt><trkpt lat="43.45175546828956" lon="10.625036171089114"><ele>430.00000000000006</ele><time>2026-04-26T11:08:29.996Z</time></trkpt><trkpt lat="43.45167601745276" lon="10.625054656290878"><ele>430.0</ele><time>2026-04-26T11:08:30.996Z</time></trkpt><trkpt lat="43.451616545771664" lon="10.625087901018961"><ele>430.0</ele><time>2026-04-26T11:08:31.996Z</time></trkpt><trkpt lat="43.451549023288464" lon="10.625179177895026"><ele>430.0</ele><time>2026-04-26T11:08:33.996Z</time></trkpt><trkpt lat="43.451597361343005" lon="10.625312575177876"><ele>430.00000000000006</ele><time>2026-04-26T11:08:37.996Z</time></trkpt><trkpt lat="43.45167583304027" lon="10.625353933824236"><ele>430.0</ele><time>2026-04-26T11:08:38.996Z</time></trkpt><trkpt lat="43.45177021244503" lon="10.625410410802292"><ele>427.4</ele><time>2026-04-26T11:08:39.996Z</time></trkpt><trkpt lat="43.45186041966996" lon="10.625485378521889"><ele>424.8</ele><time>2026-04-26T11:08:40.996Z</time></trkpt><trkpt lat="43.4519454982023" lon="10.625591915917044"><ele>422.20000000000005</ele><time>2026-04-26T11:08:41.996Z</time></trkpt><trkpt lat="43.452027156305626" lon="10.625695293348418"><ele>419.6</ele><time>2026-04-26T11:08:42.996Z</time></trkpt><trkpt lat="43.45209967832275" lon="10.62580168102506"><ele>417.0</ele><time>2026-04-26T11:08:43.996Z</time></trkpt><trkpt lat="43.45217266867295" lon="10.625899978328865"><ele>417.0</ele><time>2026-04-26T11:08:44.996Z</time></trkpt><trkpt lat="43.452240271557265" lon="10.625994332586327"><ele>417.0</ele><time>2026-04-26T11:08:45.996Z</time></trkpt><trkpt lat="43.45230048017225" lon="10.62608567119662"><ele>417.0</ele><time>2026-04-26T11:08:46.996Z</time></trkpt><trkpt lat="43.45236514843931" lon="10.626172399262032"><ele>417.0</ele><time>2026-04-26T11:08:47.996Z</time></trkpt><trkpt lat="43.45244041343461" lon="10.626257400481004"><ele>417.0</ele><time>2026-04-26T11:08:48.996Z</time></trkpt><trkpt lat="43.45251827915381" lon="10.626324010728867"><ele>415.5</ele><time>2026-04-26T11:08:49.996Z</time></trkpt><trkpt lat="43.45259787996091" lon="10.626392401096027"><ele>414.0</ele><time>2026-04-26T11:08:50.996Z</time></trkpt><trkpt lat="43.452679424787405" lon="10.626465838133566"><ele>412.5</ele><time>2026-04-26T11:08:51.996Z</time></trkpt><trkpt lat="43.45274901353563" lon="10.626528731423697"><ele>411.0</ele><time>2026-04-26T11:08:52.996Z</time></trkpt><trkpt lat="43.45281660265762" lon="10.626588334344543"><ele>409.5</ele><time>2026-04-26T11:08:53.996Z</time></trkpt><trkpt lat="43.45288320603225" lon="10.626644081918688"><ele>408.0</ele><time>2026-04-26T11:08:54.996Z</time></trkpt><trkpt lat="43.4529643472151" lon="10.626717031752744"><ele>405.25</ele><time>2026-04-26T11:08:55.996Z</time></trkpt><trkpt lat="43.45303919502132" lon="10.626821085564135"><ele>402.5</ele><time>2026-04-26T11:08:56.996Z</time></trkpt><trkpt lat="43.4531035462869" lon="10.62694886594732"><ele>399.75</ele><time>2026-04-26T11:08:57.996Z</time></trkpt><trkpt lat="43.45315938543865" lon="10.627109914548706"><ele>397.0</ele><time>2026-04-26T11:08:58.996Z</time></trkpt><trkpt lat="43.45319968765498" lon="10.627274270247906"><ele>396.5</ele><time>2026-04-26T11:08:59.996Z</time></trkpt><trkpt lat="43.4532335290319" lon="10.627429492239802"><ele>396.0</ele><time>2026-04-26T11:09:00.996Z</time></trkpt><trkpt lat="43.453266614594256" lon="10.627582441300436"><ele>395.5</ele><time>2026-04-26T11:09:01.996Z</time></trkpt><trkpt lat="43.45330127363725" lon="10.627730690577485"><ele>395.0</ele><time>2026-04-26T11:09:02.996Z</time></trkpt><trkpt lat="43.45333656155338" lon="10.627873593303976"><ele>394.4</ele><time>2026-04-26T11:09:03.996Z</time></trkpt><trkpt lat="43.45336831858649" lon="10.628010242923246"><ele>393.8</ele><time>2026-04-26T11:09:04.996Z</time></trkpt><trkpt lat="43.453393882699714" lon="10.628137196207412"><ele>393.20000000000005</ele><time>2026-04-26T11:09:05.996Z</time></trkpt><trkpt lat="43.4534203467958" lon="10.628266157363969"><ele>392.6</ele><time>2026-04-26T11:09:06.996Z</time></trkpt><trkpt lat="43.45344181982307" lon="10.628388578159447"><ele>392.0</ele><time>2026-04-26T11:09:07.996Z</time></trkpt><trkpt lat="43.45346188689845" lon="10.62851383822382"><ele>392.0</ele><time>2026-04-26T11:09:08.996Z</time></trkpt><trkpt lat="43.45348387828181" lon="10.628642162257808"><ele>392.0</ele><time>2026-04-26T11:09:09.996Z</time></trkpt><trkpt lat="43.45350369443778" lon="10.628770669284455"><ele>392.0</ele><time>2026-04-26T11:09:10.996Z</time></trkpt><trkpt lat="43.45352882028078" lon="10.6289060601884"><ele>392.0</ele><time>2026-04-26T11:09:11.996Z</time></trkpt><trkpt lat="43.4535468915547" lon="10.629059180783685"><ele>392.0</ele><time>2026-04-26T11:09:12.996Z</time></trkpt><trkpt lat="43.453565482870104" lon="10.629213129557144"><ele>390.5</ele><time>2026-04-26T11:09:13.996Z</time></trkpt><trkpt lat="43.4535856037261" lon="10.629365678232666"><ele>389.0</ele><time>2026-04-26T11:09:14.996Z</time></trkpt><trkpt lat="43.453614955050675" lon="10.62954091033779"><ele>387.5</ele><time>2026-04-26T11:09:15.996Z</time></trkpt><trkpt lat="43.45364460899632" lon="10.629709166884961"><ele>386.0</ele><time>2026-04-26T11:09:16.996Z</time></trkpt><trkpt lat="43.45367044710116" lon="10.62986765077589"><ele>384.20000000000005</ele><time>2026-04-26T11:09:17.996Z</time></trkpt><trkpt lat="43.45369697807016" lon="10.63001847222556"><ele>382.40000000000003</ele><time>2026-04-26T11:09:18.996Z</time></trkpt><trkpt lat="43.45372055051416" lon="10.63016232533424"><ele>380.6</ele><time>2026-04-26T11:09:19.996Z</time></trkpt><trkpt lat="43.45374571039309" lon="10.63030941746444"><ele>378.8</ele><time>2026-04-26T11:09:20.996Z</time></trkpt><trkpt lat="43.45375846653685" lon="10.630449239123426"><ele>377.0</ele><time>2026-04-26T11:09:21.996Z</time></trkpt><trkpt lat="43.453771475309395" lon="10.630593890553168"><ele>374.6</ele><time>2026-04-26T11:09:22.996Z</time></trkpt><trkpt lat="43.45377586736035" lon="10.630738415013532"><ele>372.20000000000005</ele><time>2026-04-26T11:09:23.996Z</time></trkpt><trkpt lat="43.453770983383656" lon="10.630884581785"><ele>369.8</ele><time>2026-04-26T11:09:24.996Z</time></trkpt><trkpt lat="43.45375805394264" lon="10.631031050373133"><ele>367.4</ele><time>2026-04-26T11:09:25.996Z</time></trkpt><trkpt lat="43.45374276785651" lon="10.631179374369328"><ele>365.0</ele><time>2026-04-26T11:09:26.996Z</time></trkpt><trkpt lat="43.45372907078168" lon="10.631324793581987"><ele>364.0</ele><time>2026-04-26T11:09:27.996Z</time></trkpt><trkpt lat="43.45371818365584" lon="10.631469220365522"><ele>363.0</ele><time>2026-04-26T11:09:28.996Z</time></trkpt><trkpt lat="43.45370540493856" lon="10.631618943574793"><ele>362.0</ele><time>2026-04-26T11:09:29.996Z</time></trkpt><trkpt lat="43.453691897204784" lon="10.631768511860193"><ele>361.0</ele><time>2026-04-26T11:09:30.994Z</time></trkpt><trkpt lat="43.45368636765121" lon="10.631923083789504"><ele>360.0</ele><time>2026-04-26T11:09:31.994Z</time></trkpt><trkpt lat="43.45368963481139" lon="10.632081708033027"><ele>358.5</ele><time>2026-04-26T11:09:32.994Z</time></trkpt><trkpt lat="43.4537006982564" lon="10.632238564254623"><ele>357.0</ele><time>2026-04-26T11:09:33.994Z</time></trkpt><trkpt lat="43.45372519949866" lon="10.63239887935967"><ele>355.5</ele><time>2026-04-26T11:09:34.994Z</time></trkpt><trkpt lat="43.45376627893574" lon="10.632552028741573"><ele>354.0</ele><time>2026-04-26T11:09:35.994Z</time></trkpt><trkpt lat="43.45380977057783" lon="10.632700916786508"><ele>356.25</ele><time>2026-04-26T11:09:36.994Z</time></trkpt><trkpt lat="43.45386381707466" lon="10.632841711542588"><ele>358.5</ele><time>2026-04-26T11:09:37.994Z</time></trkpt><trkpt lat="43.453917215229175" lon="10.63299325222557"><ele>360.75</ele><time>2026-04-26T11:09:38.994Z</time></trkpt><trkpt lat="43.453971572318636" lon="10.633136016603228"><ele>363.0</ele><time>2026-04-26T11:09:39.994Z</time></trkpt><trkpt lat="43.45403151854878" lon="10.633284789470808"><ele>363.0</ele><time>2026-04-26T11:09:40.994Z</time></trkpt><trkpt lat="43.45408383717539" lon="10.633442975347158"><ele>363.0</ele><time>2026-04-26T11:09:41.994Z</time></trkpt><trkpt lat="43.45413941780801" lon="10.63360104142041"><ele>363.0</ele><time>2026-04-26T11:09:42.994Z</time></trkpt><trkpt lat="43.454200855028944" lon="10.633762618501581"><ele>363.0</ele><time>2026-04-26T11:09:43.994Z</time></trkpt><trkpt lat="43.45426102012096" lon="10.633924076497422"><ele>362.25</ele><time>2026-04-26T11:09:44.994Z</time></trkpt><trkpt lat="43.454313748704536" lon="10.63408350133068"><ele>361.5</ele><time>2026-04-26T11:09:45.994Z</time></trkpt><trkpt lat="43.45436922650169" lon="10.634233196221402"><ele>360.75</ele><time>2026-04-26T11:09:46.994Z</time></trkpt><trkpt lat="43.454417933612156" lon="10.634381820340693"><ele>360.0</ele><time>2026-04-26T11:09:47.994Z</time></trkpt><trkpt lat="43.45445719162612" lon="10.634533600605874"><ele>359.0</ele><time>2026-04-26T11:09:48.994Z</time></trkpt><trkpt lat="43.4544832151236" lon="10.634694762895464"><ele>358.0</ele><time>2026-04-26T11:09:49.994Z</time></trkpt><trkpt lat="43.45449227149484" lon="10.634869208430464"><ele>357.0</ele><time>2026-04-26T11:09:50.994Z</time></trkpt><trkpt lat="43.45450512318172" lon="10.635046183003416"><ele>356.0</ele><time>2026-04-26T11:09:51.994Z</time></trkpt><trkpt lat="43.45451094238358" lon="10.635218062307473"><ele>355.5</ele><time>2026-04-26T11:09:52.994Z</time></trkpt><trkpt lat="43.454509892852585" lon="10.635398803281946"><ele>355.0</ele><time>2026-04-26T11:09:53.994Z</time></trkpt><trkpt lat="43.454507191392985" lon="10.635570858520408"><ele>354.5</ele><time>2026-04-26T11:09:54.994Z</time></trkpt><trkpt lat="43.45450846766011" lon="10.635734979321464"><ele>354.0</ele><time>2026-04-26T11:09:55.994Z</time></trkpt><trkpt lat="43.45450214990414" lon="10.63590652036762"><ele>354.0</ele><time>2026-04-26T11:09:56.994Z</time></trkpt><trkpt lat="43.45449476811097" lon="10.636077655331245"><ele>354.0</ele><time>2026-04-26T11:09:57.994Z</time></trkpt><trkpt lat="43.454482085368106" lon="10.636241448416364"><ele>354.0</ele><time>2026-04-26T11:09:58.994Z</time></trkpt><trkpt lat="43.45446237137414" lon="10.636408731530992"><ele>354.0</ele><time>2026-04-26T11:09:59.994Z</time></trkpt><trkpt lat="43.454440910800145" lon="10.63657178186957"><ele>353.75</ele><time>2026-04-26T11:10:00.994Z</time></trkpt><trkpt lat="43.4544223970414" lon="10.636739734521315"><ele>353.5</ele><time>2026-04-26T11:10:01.994Z</time></trkpt><trkpt lat="43.454400558893646" lon="10.63690946116038"><ele>353.25</ele><time>2026-04-26T11:10:02.994Z</time></trkpt><trkpt lat="43.454378607603445" lon="10.637082028815385"><ele>353.0</ele><time>2026-04-26T11:10:03.994Z</time></trkpt><trkpt lat="43.45435811883005" lon="10.637248694534296"><ele>352.5</ele><time>2026-04-26T11:10:04.994Z</time></trkpt><trkpt lat="43.4543376817797" lon="10.637421994675723"><ele>352.0</ele><time>2026-04-26T11:10:05.994Z</time></trkpt><trkpt lat="43.45431755250367" lon="10.637596001801425"><ele>351.5</ele><time>2026-04-26T11:10:06.994Z</time></trkpt><trkpt lat="43.45429477179179" lon="10.63777071909606"><ele>351.0</ele><time>2026-04-26T11:10:07.994Z</time></trkpt><trkpt lat="43.4542738080058" lon="10.637945568294572"><ele>348.75</ele><time>2026-04-26T11:10:08.994Z</time></trkpt><trkpt lat="43.45425676618012" lon="10.638113376255793"><ele>346.5</ele><time>2026-04-26T11:10:09.994Z</time></trkpt><trkpt lat="43.4542511387321" lon="10.638285107473171"><ele>344.25</ele><time>2026-04-26T11:10:10.994Z</time></trkpt><trkpt lat="43.45425231992796" lon="10.63845813296723"><ele>342.0</ele><time>2026-04-26T11:10:11.994Z</time></trkpt><trkpt lat="43.45427108693928" lon="10.638623551508942"><ele>339.5</ele><time>2026-04-26T11:10:12.994Z</time></trkpt><trkpt lat="43.45430657725438" lon="10.638783035677132"><ele>337.0</ele><time>2026-04-26T11:10:13.994Z</time></trkpt><trkpt lat="43.454342526969114" lon="10.638943401997555"><ele>334.5</ele><time>2026-04-26T11:10:14.994Z</time></trkpt><trkpt lat="43.45438290715605" lon="10.639095788149893"><ele>332.0</ele><time>2026-04-26T11:10:15.994Z</time></trkpt><trkpt lat="43.454419793942414" lon="10.639242352274756"><ele>332.0</ele><time>2026-04-26T11:10:16.994Z</time></trkpt><trkpt lat="43.454451918772506" lon="10.639399584872844"><ele>332.0</ele><time>2026-04-26T11:10:17.994Z</time></trkpt><trkpt lat="43.454485364735675" lon="10.639552444451533"><ele>332.0</ele><time>2026-04-26T11:10:18.994Z</time></trkpt><trkpt lat="43.45451590889199" lon="10.639708370861504"><ele>332.0</ele><time>2026-04-26T11:10:19.994Z</time></trkpt><trkpt lat="43.454539366352684" lon="10.639852460589664"><ele>328.6</ele><time>2026-04-26T11:10:20.994Z</time></trkpt><trkpt lat="43.45455894027476" lon="10.640011447138253"><ele>325.20000000000005</ele><time>2026-04-26T11:10:21.994Z</time></trkpt><trkpt lat="43.45457757173418" lon="10.640160560047915"><ele>321.8</ele><time>2026-04-26T11:10:22.994Z</time></trkpt><trkpt lat="43.45459454952429" lon="10.640307523215371"><ele>318.4</ele><time>2026-04-26T11:10:23.994Z</time></trkpt><trkpt lat="43.45461119023611" lon="10.64045742868389"><ele>315.0</ele><time>2026-04-26T11:10:24.994Z</time></trkpt><trkpt lat="43.45462534112855" lon="10.640603937117108"><ele>315.0</ele><time>2026-04-26T11:10:25.994Z</time></trkpt><trkpt lat="43.45463834136087" lon="10.640749765082585"><ele>315.0</ele><time>2026-04-26T11:10:26.994Z</time></trkpt><trkpt lat="43.454651300233515" lon="10.640900599273312"><ele>315.0</ele><time>2026-04-26T11:10:27.994Z</time></trkpt><trkpt lat="43.45466584882533" lon="10.64105325811862"><ele>315.0</ele><time>2026-04-26T11:10:28.994Z</time></trkpt><trkpt lat="43.45468588461371" lon="10.641214925648224"><ele>315.0</ele><time>2026-04-26T11:10:29.994Z</time></trkpt><trkpt lat="43.454703297646375" lon="10.641381025712331"><ele>313.5</ele><time>2026-04-26T11:10:30.994Z</time></trkpt><trkpt lat="43.454721831862145" lon="10.641552002048662"><ele>312.0</ele><time>2026-04-26T11:10:31.994Z</time></trkpt><trkpt lat="43.45473897538406" lon="10.641726694214674"><ele>310.5</ele><time>2026-04-26T11:10:32.994Z</time></trkpt><trkpt lat="43.45475679737688" lon="10.641898245077385"><ele>309.0</ele><time>2026-04-26T11:10:33.994Z</time></trkpt><trkpt lat="43.4547753650131" lon="10.64207142173476"><ele>307.0</ele><time>2026-04-26T11:10:34.994Z</time></trkpt><trkpt lat="43.45479348012522" lon="10.642242362536408"><ele>305.0</ele><time>2026-04-26T11:10:35.994Z</time></trkpt><trkpt lat="43.45480897783321" lon="10.642416049721456"><ele>303.0</ele><time>2026-04-26T11:10:36.994Z</time></trkpt><trkpt lat="43.45482206809887" lon="10.642589229525347"><ele>301.0</ele><time>2026-04-26T11:10:37.994Z</time></trkpt><trkpt lat="43.45483481152799" lon="10.642758698851082"><ele>299.25</ele><time>2026-04-26T11:10:38.994Z</time></trkpt><trkpt lat="43.454846855840465" lon="10.642927598690777"><ele>297.5</ele><time>2026-04-26T11:10:39.994Z</time></trkpt><trkpt lat="43.45485797636494" lon="10.64309308193304"><ele>295.75</ele><time>2026-04-26T11:10:40.994Z</time></trkpt><trkpt lat="43.454866571448974" lon="10.643255768259378"><ele>294.0</ele><time>2026-04-26T11:10:41.994Z</time></trkpt><trkpt lat="43.45486954611749" lon="10.643416888343534"><ele>294.0</ele><time>2026-04-26T11:10:42.994Z</time></trkpt><trkpt lat="43.45486850398964" lon="10.643576020129645"><ele>294.0</ele><time>2026-04-26T11:10:43.994Z</time></trkpt><trkpt lat="43.45487214590327" lon="10.643729941062716"><ele>294.0</ele><time>2026-04-26T11:10:44.994Z</time></trkpt><trkpt lat="43.45487714591683" lon="10.64388216638671"><ele>294.0</ele><time>2026-04-26T11:10:45.994Z</time></trkpt><trkpt lat="43.454883307005126" lon="10.644031544762322"><ele>294.0</ele><time>2026-04-26T11:10:46.994Z</time></trkpt><trkpt lat="43.45488839007081" lon="10.644177135216973"><ele>293.1666666666667</ele><time>2026-04-26T11:10:47.994Z</time></trkpt><trkpt lat="43.454895223324584" lon="10.644309041112157"><ele>292.3333333333333</ele><time>2026-04-26T11:10:48.994Z</time></trkpt><trkpt lat="43.45489657466548" lon="10.644430136687783"><ele>291.5</ele><time>2026-04-26T11:10:49.994Z</time></trkpt><trkpt lat="43.45488832887241" lon="10.644536708759366"><ele>290.66666666666663</ele><time>2026-04-26T11:10:50.994Z</time></trkpt><trkpt lat="43.454867017866825" lon="10.644624443787981"><ele>289.8333333333333</ele><time>2026-04-26T11:10:51.994Z</time></trkpt><trkpt lat="43.45482876137323" lon="10.644694112005267"><ele>289.0</ele><time>2026-04-26T11:10:52.994Z</time></trkpt><trkpt lat="43.454709234636624" lon="10.64476177673032"><ele>288.4</ele><time>2026-04-26T11:10:54.994Z</time></trkpt><trkpt lat="43.45463070622128" lon="10.644740337712525"><ele>287.79999999999995</ele><time>2026-04-26T11:10:55.994Z</time></trkpt><trkpt lat="43.45453726212176" lon="10.644699871149962"><ele>287.20000000000005</ele><time>2026-04-26T11:10:56.994Z</time></trkpt><trkpt lat="43.45444070566196" lon="10.644657156249227"><ele>286.6</ele><time>2026-04-26T11:10:57.994Z</time></trkpt><trkpt lat="43.454326494741004" lon="10.644618486686289"><ele>286.0</ele><time>2026-04-26T11:10:58.994Z</time></trkpt><trkpt lat="43.454198903001476" lon="10.644591646059178"><ele>283.25</ele><time>2026-04-26T11:10:59.994Z</time></trkpt><trkpt lat="43.4540646173156" lon="10.644568416351882"><ele>280.5</ele><time>2026-04-26T11:11:00.994Z</time></trkpt><trkpt lat="43.45393500784014" lon="10.644554973181789"><ele>277.75</ele><time>2026-04-26T11:11:01.994Z</time></trkpt><trkpt lat="43.45381176631336" lon="10.644551706211336"><ele>275.0</ele><time>2026-04-26T11:11:02.994Z</time></trkpt><trkpt lat="43.453704691521125" lon="10.644549190058022"><ele>273.6666666666667</ele><time>2026-04-26T11:11:03.994Z</time></trkpt><trkpt lat="43.453606027818054" lon="10.644555441425233"><ele>272.33333333333337</ele><time>2026-04-26T11:11:04.994Z</time></trkpt><trkpt lat="43.4535173504455" lon="10.644554742187262"><ele>271.0</ele><time>2026-04-26T11:11:05.994Z</time></trkpt><trkpt lat="43.45343648133093" lon="10.64452900706205"><ele>269.6666666666667</ele><time>2026-04-26T11:11:06.994Z</time></trkpt><trkpt lat="43.45337928023225" lon="10.644455807335866"><ele>268.3333333333333</ele><time>2026-04-26T11:11:07.994Z</time></trkpt><trkpt lat="43.45334895419591" lon="10.644340198122205"><ele>267.0</ele><time>2026-04-26T11:11:08.994Z</time></trkpt><trkpt lat="43.453358493112326" lon="10.644210577573714"><ele>267.0</ele><time>2026-04-26T11:11:09.994Z</time></trkpt><trkpt lat="43.453400782192176" lon="10.644073854674113"><ele>267.0</ele><time>2026-04-26T11:11:10.994Z</time></trkpt><trkpt lat="43.453454538865955" lon="10.64392746852532"><ele>267.0</ele><time>2026-04-26T11:11:11.994Z</time></trkpt><trkpt lat="43.45349788709869" lon="10.643793278783892"><ele>267.0</ele><time>2026-04-26T11:11:12.994Z</time></trkpt><trkpt lat="43.45351773987766" lon="10.643682682436765"><ele>267.0</ele><time>2026-04-26T11:11:13.994Z</time></trkpt><trkpt lat="43.45351161819024" lon="10.643589652124739"><ele>267.0</ele><time>2026-04-26T11:11:14.994Z</time></trkpt><trkpt lat="43.453474226171565" lon="10.643510309247917"><ele>267.0</ele><time>2026-04-26T11:11:15.994Z</time></trkpt><trkpt lat="43.45339598037869" lon="10.643455784836151"><ele>267.0</ele><time>2026-04-26T11:11:16.994Z</time></trkpt><trkpt lat="43.45330187568341" lon="10.64344817885155"><ele>267.0</ele><time>2026-04-26T11:11:17.994Z</time></trkpt><trkpt lat="43.45321952924088" lon="10.643494189395126"><ele>267.0</ele><time>2026-04-26T11:11:18.994Z</time></trkpt><trkpt lat="43.45316324585686" lon="10.643600708160553"><ele>267.0</ele><time>2026-04-26T11:11:19.994Z</time></trkpt><trkpt lat="43.45310721498915" lon="10.643747248357922"><ele>267.0</ele><time>2026-04-26T11:11:20.994Z</time></trkpt><trkpt lat="43.453039831813946" lon="10.643917076650041"><ele>267.0</ele><time>2026-04-26T11:11:21.994Z</time></trkpt><trkpt lat="43.452960713209634" lon="10.64406105138349"><ele>267.0</ele><time>2026-04-26T11:11:22.994Z</time></trkpt><trkpt lat="43.45288073743034" lon="10.644196150821214"><ele>267.0</ele><time>2026-04-26T11:11:23.994Z</time></trkpt><trkpt lat="43.45281912242298" lon="10.644332229407778"><ele>264.0</ele><time>2026-04-26T11:11:24.994Z</time></trkpt><trkpt lat="43.452790848485044" lon="10.644471326399726"><ele>261.0</ele><time>2026-04-26T11:11:25.994Z</time></trkpt><trkpt lat="43.45280824469659" lon="10.644614967558443"><ele>258.0</ele><time>2026-04-26T11:11:26.994Z</time></trkpt><trkpt lat="43.45287828782787" lon="10.64475626855589"><ele>255.0</ele><time>2026-04-26T11:11:27.994Z</time></trkpt><trkpt lat="43.45298506219019" lon="10.64489213991773"><ele>255.0</ele><time>2026-04-26T11:11:28.994Z</time></trkpt><trkpt lat="43.45308436624928" lon="10.645023638580414"><ele>255.0</ele><time>2026-04-26T11:11:29.994Z</time></trkpt><trkpt lat="43.4531536251125" lon="10.645155304090936"><ele>255.0</ele><time>2026-04-26T11:11:30.994Z</time></trkpt><trkpt lat="43.45319663267869" lon="10.645288836970478"><ele>255.0</ele><time>2026-04-26T11:11:31.994Z</time></trkpt><trkpt lat="43.45319887201408" lon="10.645441738864454"><ele>251.8</ele><time>2026-04-26T11:11:32.994Z</time></trkpt><trkpt lat="43.45316264728282" lon="10.645566111063925"><ele>248.6</ele><time>2026-04-26T11:11:33.994Z</time></trkpt><trkpt lat="43.453099469050954" lon="10.645679126264803"><ele>245.39999999999998</ele><time>2026-04-26T11:11:34.994Z</time></trkpt><trkpt lat="43.45300064422805" lon="10.64573961009073"><ele>242.2</ele><time>2026-04-26T11:11:35.994Z</time></trkpt><trkpt lat="43.452893984889705" lon="10.645746441179265"><ele>239.0</ele><time>2026-04-26T11:11:36.992Z</time></trkpt><trkpt lat="43.45279812032479" lon="10.645702003395671"><ele>236.5</ele><time>2026-04-26T11:11:37.993Z</time></trkpt><trkpt lat="43.4527102846982" lon="10.645611575675973"><ele>234.0</ele><time>2026-04-26T11:11:38.993Z</time></trkpt><trkpt lat="43.452654989668744" lon="10.645458115643152"><ele>231.5</ele><time>2026-04-26T11:11:39.993Z</time></trkpt><trkpt lat="43.45261484733709" lon="10.645273930807702"><ele>229.0</ele><time>2026-04-26T11:11:40.993Z</time></trkpt><trkpt lat="43.45256952332966" lon="10.645095118563445"><ele>229.0</ele><time>2026-04-26T11:11:41.993Z</time></trkpt><trkpt lat="43.45250871524009" lon="10.64499532205656"><ele>228.99999999999997</ele><time>2026-04-26T11:11:42.992Z</time></trkpt><trkpt lat="43.45243041404307" lon="10.644966434245896"><ele>228.99999999999997</ele><time>2026-04-26T11:11:43.993Z</time></trkpt><trkpt lat="43.452339303331975" lon="10.645006096793805"><ele>229.0</ele><time>2026-04-26T11:11:44.993Z</time></trkpt><trkpt lat="43.452268623329324" lon="10.645112702126402"><ele>229.0</ele><time>2026-04-26T11:11:45.993Z</time></trkpt><trkpt lat="43.45224614368709" lon="10.6452680240192"><ele>225.66666666666666</ele><time>2026-04-26T11:11:46.993Z</time></trkpt><trkpt lat="43.4522743497276" lon="10.645417059732166"><ele>222.33333333333331</ele><time>2026-04-26T11:11:47.993Z</time></trkpt><trkpt lat="43.452353178670805" lon="10.645606235717523"><ele>219.0</ele><time>2026-04-26T11:11:48.993Z</time></trkpt><trkpt lat="43.452438889474756" lon="10.64584094973969"><ele>219.0</ele><time>2026-04-26T11:11:49.992Z</time></trkpt><trkpt lat="43.45245577086529" lon="10.646059843680096"><ele>219.0</ele><time>2026-04-26T11:11:50.992Z</time></trkpt><trkpt lat="43.452442868690774" lon="10.646267336209041"><ele>219.0</ele><time>2026-04-26T11:11:51.992Z</time></trkpt><trkpt lat="43.452424785843625" lon="10.646445495692502"><ele>219.0</ele><time>2026-04-26T11:11:52.992Z</time></trkpt><trkpt lat="43.45243620116197" lon="10.64658919847681"><ele>216.66666666666669</ele><time>2026-04-26T11:11:53.992Z</time></trkpt><trkpt lat="43.45249340835613" lon="10.646748774004992"><ele>214.33333333333334</ele><time>2026-04-26T11:11:54.992Z</time></trkpt><trkpt lat="43.45258829207817" lon="10.646949292264537"><ele>212.0</ele><time>2026-04-26T11:11:55.992Z</time></trkpt><trkpt lat="43.45271806451779" lon="10.647190711810092"><ele>211.0</ele><time>2026-04-26T11:11:56.992Z</time></trkpt><trkpt lat="43.452857640914665" lon="10.647443097005699"><ele>210.0</ele><time>2026-04-26T11:11:57.992Z</time></trkpt><trkpt lat="43.45298040511157" lon="10.647666896967461"><ele>209.0</ele><time>2026-04-26T11:11:58.992Z</time></trkpt><trkpt lat="43.45308499414043" lon="10.647857115700997"><ele>209.0</ele><time>2026-04-26T11:11:59.992Z</time></trkpt><trkpt lat="43.45318641000553" lon="10.648031301740556"><ele>209.0</ele><time>2026-04-26T11:12:00.992Z</time></trkpt><trkpt lat="43.453283305921225" lon="10.648209679131634"><ele>209.0</ele><time>2026-04-26T11:12:01.992Z</time></trkpt><trkpt lat="43.45336804552018" lon="10.648396797163874"><ele>209.0</ele><time>2026-04-26T11:12:02.992Z</time></trkpt><trkpt lat="43.453436055438466" lon="10.648590276144029"><ele>209.0</ele><time>2026-04-26T11:12:03.992Z</time></trkpt><trkpt lat="43.45347634160758" lon="10.648785469906292"><ele>209.0</ele><time>2026-04-26T11:12:04.992Z</time></trkpt><trkpt lat="43.45349563264487" lon="10.648989689351742"><ele>206.33333333333334</ele><time>2026-04-26T11:12:05.992Z</time></trkpt><trkpt lat="43.45349725964805" lon="10.649212412500573"><ele>203.66666666666669</ele><time>2026-04-26T11:12:06.992Z</time></trkpt><trkpt lat="43.45350274102108" lon="10.649436082133326"><ele>201.0</ele><time>2026-04-26T11:12:07.992Z</time></trkpt><trkpt lat="43.453507305748154" lon="10.649661150752818"><ele>199.5</ele><time>2026-04-26T11:12:08.992Z</time></trkpt><trkpt lat="43.45351516949489" lon="10.649871240754054"><ele>198.0</ele><time>2026-04-26T11:12:09.992Z</time></trkpt><trkpt lat="43.453535472623535" lon="10.650053974386822"><ele>196.5</ele><time>2026-04-26T11:12:10.992Z</time></trkpt><trkpt lat="43.45358024186677" lon="10.650214910733725"><ele>195.0</ele><time>2026-04-26T11:12:11.992Z</time></trkpt><trkpt lat="43.45365763526775" lon="10.65037343383908"><ele>195.66666666666669</ele><time>2026-04-26T11:12:12.992Z</time></trkpt><trkpt lat="43.45374629841753" lon="10.650539054227322"><ele>196.33333333333334</ele><time>2026-04-26T11:12:13.992Z</time></trkpt><trkpt lat="43.45384437503185" lon="10.650706464536913"><ele>197.0</ele><time>2026-04-26T11:12:14.992Z</time></trkpt><trkpt lat="43.453940061847746" lon="10.650877807116649"><ele>197.0</ele><time>2026-04-26T11:12:15.992Z</time></trkpt><trkpt lat="43.454032090465496" lon="10.65104779238661"><ele>197.0</ele><time>2026-04-26T11:12:16.992Z</time></trkpt><trkpt lat="43.45412773435402" lon="10.651217736385629"><ele>197.0</ele><time>2026-04-26T11:12:17.992Z</time></trkpt><trkpt lat="43.45422447427993" lon="10.65138971198352"><ele>194.66666666666669</ele><time>2026-04-26T11:12:18.992Z</time></trkpt><trkpt lat="43.45432501569988" lon="10.65156341998081"><ele>192.33333333333334</ele><time>2026-04-26T11:12:19.992Z</time></trkpt><trkpt lat="43.45442462103905" lon="10.651737003282337"><ele>190.0</ele><time>2026-04-26T11:12:20.992Z</time></trkpt><trkpt lat="43.454525360539016" lon="10.651889393235367"><ele>190.5</ele><time>2026-04-26T11:12:21.992Z</time></trkpt><trkpt lat="43.45463398105695" lon="10.652017466809482"><ele>191.0</ele><time>2026-04-26T11:12:22.992Z</time></trkpt><trkpt lat="43.45475401660538" lon="10.652126382116997"><ele>191.5</ele><time>2026-04-26T11:12:23.992Z</time></trkpt><trkpt lat="43.45487758712787" lon="10.652226895768848"><ele>192.0</ele><time>2026-04-26T11:12:24.992Z</time></trkpt><trkpt lat="43.454998622026594" lon="10.652323739617355"><ele>192.0</ele><time>2026-04-26T11:12:25.992Z</time></trkpt><trkpt lat="43.45510770561757" lon="10.652429695622235"><ele>192.0</ele><time>2026-04-26T11:12:26.992Z</time></trkpt><trkpt lat="43.455191887509734" lon="10.652556608359628"><ele>192.0</ele><time>2026-04-26T11:12:27.992Z</time></trkpt><trkpt lat="43.455248509340315" lon="10.652708325149451"><ele>192.0</ele><time>2026-04-26T11:12:28.992Z</time></trkpt><trkpt lat="43.455279018540494" lon="10.652888328122868"><ele>189.5</ele><time>2026-04-26T11:12:29.992Z</time></trkpt><trkpt lat="43.455266106176964" lon="10.653056114440524"><ele>187.0</ele><time>2026-04-26T11:12:30.992Z</time></trkpt><trkpt lat="43.45523697980446" lon="10.65323099472254"><ele>184.5</ele><time>2026-04-26T11:12:31.992Z</time></trkpt><trkpt lat="43.455223996702806" lon="10.653385206883122"><ele>182.0</ele><time>2026-04-26T11:12:32.992Z</time></trkpt><trkpt lat="43.45525402681506" lon="10.653530757263862"><ele>181.75</ele><time>2026-04-26T11:12:33.993Z</time></trkpt><trkpt lat="43.45530388637279" lon="10.653669266902236"><ele>181.5</ele><time>2026-04-26T11:12:34.993Z</time></trkpt><trkpt lat="43.45539386528826" lon="10.653798525063213"><ele>181.25</ele><time>2026-04-26T11:12:35.993Z</time></trkpt><trkpt lat="43.45550062497891" lon="10.653923283022811"><ele>181.0</ele><time>2026-04-26T11:12:36.993Z</time></trkpt><trkpt lat="43.45558230219756" lon="10.654056943603097"><ele>181.0</ele><time>2026-04-26T11:12:37.993Z</time></trkpt><trkpt lat="43.455633903451826" lon="10.654221738455051"><ele>181.0</ele><time>2026-04-26T11:12:38.993Z</time></trkpt><trkpt lat="43.4556586393386" lon="10.654411972319153"><ele>181.0</ele><time>2026-04-26T11:12:39.993Z</time></trkpt><trkpt lat="43.45567503445887" lon="10.654614629425762"><ele>181.0</ele><time>2026-04-26T11:12:40.993Z</time></trkpt><trkpt lat="43.45569671776636" lon="10.654820201917389"><ele>177.66666666666669</ele><time>2026-04-26T11:12:41.993Z</time></trkpt><trkpt lat="43.455723404187935" lon="10.655034085009445"><ele>174.33333333333334</ele><time>2026-04-26T11:12:42.993Z</time></trkpt><trkpt lat="43.455753868367545" lon="10.655247693282524"><ele>171.0</ele><time>2026-04-26T11:12:43.993Z</time></trkpt><trkpt lat="43.45579727969343" lon="10.655454305687941"><ele>169.66666666666666</ele><time>2026-04-26T11:12:44.993Z</time></trkpt><trkpt lat="43.45586932578943" lon="10.655648993899732"><ele>168.33333333333331</ele><time>2026-04-26T11:12:45.993Z</time></trkpt><trkpt lat="43.45597150046818" lon="10.655818510777847"><ele>167.0</ele><time>2026-04-26T11:12:46.993Z</time></trkpt><trkpt lat="43.45609769970268" lon="10.655963136156062"><ele>167.0</ele><time>2026-04-26T11:12:47.993Z</time></trkpt><trkpt lat="43.45623803900639" lon="10.656079401566725"><ele>167.0</ele><time>2026-04-26T11:12:48.993Z</time></trkpt><trkpt lat="43.45639216199551" lon="10.65617665386911"><ele>167.0</ele><time>2026-04-26T11:12:49.993Z</time></trkpt><trkpt lat="43.45654781991544" lon="10.656250764793436"><ele>166.25</ele><time>2026-04-26T11:12:50.993Z</time></trkpt><trkpt lat="43.45668147754936" lon="10.656324618795638"><ele>165.5</ele><time>2026-04-26T11:12:51.993Z</time></trkpt><trkpt lat="43.456788621918484" lon="10.65641284510271"><ele>164.75</ele><time>2026-04-26T11:12:52.993Z</time></trkpt><trkpt lat="43.45687131102438" lon="10.65652750488941"><ele>164.0</ele><time>2026-04-26T11:12:53.993Z</time></trkpt><trkpt lat="43.45692984384171" lon="10.656677908766499"><ele>164.0</ele><time>2026-04-26T11:12:54.993Z</time></trkpt><trkpt lat="43.45695740967292" lon="10.656857637856774"><ele>164.0</ele><time>2026-04-26T11:12:55.993Z</time></trkpt><trkpt lat="43.456949147657696" lon="10.657052161559719"><ele>164.0</ele><time>2026-04-26T11:12:56.993Z</time></trkpt><trkpt lat="43.45690657021508" lon="10.657280442238111"><ele>164.0</ele><time>2026-04-26T11:12:57.993Z</time></trkpt><trkpt lat="43.45684798371416" lon="10.657542754643977"><ele>163.66666666666666</ele><time>2026-04-26T11:12:58.993Z</time></trkpt><trkpt lat="43.45679216835039" lon="10.657838898082543"><ele>163.33333333333334</ele><time>2026-04-26T11:12:59.993Z</time></trkpt><trkpt lat="43.45675299234796" lon="10.658131222376179"><ele>163.0</ele><time>2026-04-26T11:13:00.993Z</time></trkpt><trkpt lat="43.45672663905453" lon="10.658405430204999"><ele>163.33333333333334</ele><time>2026-04-26T11:13:01.993Z</time></trkpt><trkpt lat="43.45670727134151" lon="10.658664571391196"><ele>163.66666666666666</ele><time>2026-04-26T11:13:02.993Z</time></trkpt><trkpt lat="43.45669826182248" lon="10.658925550409572"><ele>164.0</ele><time>2026-04-26T11:13:03.993Z</time></trkpt><trkpt lat="43.4566924394986" lon="10.659184916486462"><ele>164.0</ele><time>2026-04-26T11:13:04.993Z</time></trkpt><trkpt lat="43.4566803971995" lon="10.659445381320664"><ele>164.0</ele><time>2026-04-26T11:13:05.993Z</time></trkpt><trkpt lat="43.45667095417232" lon="10.65970840053842"><ele>164.0</ele><time>2026-04-26T11:13:06.993Z</time></trkpt><trkpt lat="43.45665693852576" lon="10.659970987376122"><ele>164.0</ele><time>2026-04-26T11:13:07.993Z</time></trkpt><trkpt lat="43.45664841249457" lon="10.660234041492517"><ele>164.0</ele><time>2026-04-26T11:13:08.993Z</time></trkpt><trkpt lat="43.456636337210576" lon="10.660494086727292"><ele>164.0</ele><time>2026-04-26T11:13:09.993Z</time></trkpt><trkpt lat="43.45662361382938" lon="10.660750210091063"><ele>164.0</ele><time>2026-04-26T11:13:10.993Z</time></trkpt><trkpt lat="43.456613358468815" lon="10.661009315688709"><ele>164.0</ele><time>2026-04-26T11:13:11.993Z</time></trkpt><trkpt lat="43.4566052738874" lon="10.661269667504728"><ele>164.0</ele><time>2026-04-26T11:13:12.993Z</time></trkpt><trkpt lat="43.45659345961975" lon="10.661528245688734"><ele>164.0</ele><time>2026-04-26T11:13:13.993Z</time></trkpt><trkpt lat="43.45658062149712" lon="10.66178200754509"><ele>164.0</ele><time>2026-04-26T11:13:14.993Z</time></trkpt><trkpt lat="43.45656013157991" lon="10.662036512738323"><ele>164.0</ele><time>2026-04-26T11:13:15.993Z</time></trkpt><trkpt lat="43.45655241851818" lon="10.662291332404155"><ele>164.0</ele><time>2026-04-26T11:13:16.993Z</time></trkpt><trkpt lat="43.45654089269789" lon="10.662551928403634"><ele>164.0</ele><time>2026-04-26T11:13:17.993Z</time></trkpt><trkpt lat="43.456526894731724" lon="10.662809126187023"><ele>164.0</ele><time>2026-04-26T11:13:18.993Z</time></trkpt><trkpt lat="43.4565077608377" lon="10.663069569696585"><ele>161.66666666666666</ele><time>2026-04-26T11:13:19.993Z</time></trkpt><trkpt lat="43.456475254301495" lon="10.663324796355585"><ele>159.33333333333334</ele><time>2026-04-26T11:13:20.993Z</time></trkpt><trkpt lat="43.45642784100475" lon="10.663565800138883"><ele>157.0</ele><time>2026-04-26T11:13:21.993Z</time></trkpt><trkpt lat="43.456369446541316" lon="10.663796783156783"><ele>157.0</ele><time>2026-04-26T11:13:22.993Z</time></trkpt><trkpt lat="43.45630942974832" lon="10.664029326100183"><ele>157.0</ele><time>2026-04-26T11:13:23.993Z</time></trkpt><trkpt lat="43.456245031199444" lon="10.664260313582185"><ele>157.0</ele><time>2026-04-26T11:13:24.993Z</time></trkpt><trkpt lat="43.4561848216736" lon="10.66448570016721"><ele>153.66666666666669</ele><time>2026-04-26T11:13:25.993Z</time></trkpt><trkpt lat="43.456136385017274" lon="10.664720702451215"><ele>150.33333333333334</ele><time>2026-04-26T11:13:26.993Z</time></trkpt><trkpt lat="43.456110363904166" lon="10.664954736059176"><ele>147.0</ele><time>2026-04-26T11:13:27.993Z</time></trkpt><trkpt lat="43.456108228840456" lon="10.665195486144864"><ele>147.0</ele><time>2026-04-26T11:13:28.993Z</time></trkpt><trkpt lat="43.45613076642044" lon="10.665443075525925"><ele>147.0</ele><time>2026-04-26T11:13:29.993Z</time></trkpt><trkpt lat="43.4561718529525" lon="10.665684342353604"><ele>147.0</ele><time>2026-04-26T11:13:30.993Z</time></trkpt><trkpt lat="43.45622171152137" lon="10.665921053710266"><ele>146.66666666666666</ele><time>2026-04-26T11:13:31.993Z</time></trkpt><trkpt lat="43.456270653320495" lon="10.66616855898868"><ele>146.33333333333331</ele><time>2026-04-26T11:13:32.993Z</time></trkpt><trkpt lat="43.456317869768405" lon="10.666421469309995"><ele>146.0</ele><time>2026-04-26T11:13:33.993Z</time></trkpt><trkpt lat="43.456367267696905" lon="10.666671861564335"><ele>146.0</ele><time>2026-04-26T11:13:34.993Z</time></trkpt><trkpt lat="43.456413066525094" lon="10.666927628033108"><ele>146.0</ele><time>2026-04-26T11:13:35.993Z</time></trkpt><trkpt lat="43.45645730514665" lon="10.66718230640794"><ele>146.0</ele><time>2026-04-26T11:13:36.993Z</time></trkpt><trkpt lat="43.456504698842366" lon="10.66743930650168"><ele>145.0</ele><time>2026-04-26T11:13:37.993Z</time></trkpt><trkpt lat="43.456551896292396" lon="10.66768055700642"><ele>144.0</ele><time>2026-04-26T11:13:38.993Z</time></trkpt><trkpt lat="43.456587232479556" lon="10.667886834527858"><ele>143.0</ele><time>2026-04-26T11:13:39.993Z</time></trkpt><trkpt lat="43.456618063889096" lon="10.66806053066264"><ele>142.8</ele><time>2026-04-26T11:13:40.993Z</time></trkpt><trkpt lat="43.45663835213828" lon="10.66821662673349"><ele>142.60000000000002</ele><time>2026-04-26T11:13:41.992Z</time></trkpt><trkpt lat="43.45664584287805" lon="10.668340139174717"><ele>142.39999999999998</ele><time>2026-04-26T11:13:42.991Z</time></trkpt><trkpt lat="43.45663025619551" lon="10.668430125826136"><ele>142.2</ele><time>2026-04-26T11:13:43.991Z</time></trkpt><trkpt lat="43.456530043812585" lon="10.668497512628099"><ele>142.0</ele><time>2026-04-26T11:13:45.992Z</time></trkpt><trkpt lat="43.45645397665992" lon="10.66848541807807"><ele>142.0</ele><time>2026-04-26T11:13:46.992Z</time></trkpt><trkpt lat="43.456350869520215" lon="10.668437895214227"><ele>142.0</ele><time>2026-04-26T11:13:47.992Z</time></trkpt><trkpt lat="43.45620198364718" lon="10.668319446854257"><ele>142.0</ele><time>2026-04-26T11:13:48.992Z</time></trkpt><trkpt lat="43.45601108758662" lon="10.66816889464443"><ele>142.33333333333334</ele><time>2026-04-26T11:13:49.992Z</time></trkpt><trkpt lat="43.45580336629202" lon="10.668049729229558"><ele>142.66666666666666</ele><time>2026-04-26T11:13:50.992Z</time></trkpt><trkpt lat="43.4556231875303" lon="10.667972204417753"><ele>143.0</ele><time>2026-04-26T11:13:51.992Z</time></trkpt><trkpt lat="43.4554718043115" lon="10.667936631545954"><ele>143.25</ele><time>2026-04-26T11:13:52.992Z</time></trkpt><trkpt lat="43.455321583051756" lon="10.66791646712396"><ele>143.5</ele><time>2026-04-26T11:13:53.991Z</time></trkpt><trkpt lat="43.45517882205073" lon="10.667895798419957"><ele>143.75</ele><time>2026-04-26T11:13:54.992Z</time></trkpt><trkpt lat="43.45504168067097" lon="10.667868158038209"><ele>144.0</ele><time>2026-04-26T11:13:55.992Z</time></trkpt><trkpt lat="43.454894667072466" lon="10.667839596604017"><ele>144.0</ele><time>2026-04-26T11:13:56.992Z</time></trkpt><trkpt lat="43.45474553461985" lon="10.667818157339013"><ele>144.0</ele><time>2026-04-26T11:13:57.992Z</time></trkpt><trkpt lat="43.45459806120526" lon="10.667800588107992"><ele>144.0</ele><time>2026-04-26T11:13:58.992Z</time></trkpt><trkpt lat="43.4544494732508" lon="10.66777215026906"><ele>144.0</ele><time>2026-04-26T11:13:59.992Z</time></trkpt><trkpt lat="43.4542924167735" lon="10.667746716344087"><ele>144.33333333333334</ele><time>2026-04-26T11:14:00.992Z</time></trkpt><trkpt lat="43.45413414318423" lon="10.667714809268288"><ele>144.66666666666669</ele><time>2026-04-26T11:14:01.992Z</time></trkpt><trkpt lat="43.45397411318458" lon="10.6676809568342"><ele>145.0</ele><time>2026-04-26T11:14:02.992Z</time></trkpt><trkpt lat="43.453813352804104" lon="10.667645986040702"><ele>146.0</ele><time>2026-04-26T11:14:03.992Z</time></trkpt><trkpt lat="43.45365019202202" lon="10.667614299065042"><ele>147.0</ele><time>2026-04-26T11:14:04.992Z</time></trkpt><trkpt lat="43.45348546468255" lon="10.667588483209489"><ele>148.0</ele><time>2026-04-26T11:14:05.992Z</time></trkpt><trkpt lat="43.453319205453006" lon="10.667575105302326"><ele>148.0</ele><time>2026-04-26T11:14:06.992Z</time></trkpt><trkpt lat="43.45315365135339" lon="10.66756881661315"><ele>148.0</ele><time>2026-04-26T11:14:07.992Z</time></trkpt><trkpt lat="43.45298818716211" lon="10.66756918320032"><ele>148.0</ele><time>2026-04-26T11:14:08.992Z</time></trkpt><trkpt lat="43.45282265645446" lon="10.667577482892982"><ele>148.33333333333334</ele><time>2026-04-26T11:14:09.992Z</time></trkpt><trkpt lat="43.452661178589814" lon="10.667584242474737"><ele>148.66666666666666</ele><time>2026-04-26T11:14:10.992Z</time></trkpt><trkpt lat="43.45249990620458" lon="10.667588056286926"><ele>149.0</ele><time>2026-04-26T11:14:11.992Z</time></trkpt><trkpt lat="43.452333391608406" lon="10.667585503864537"><ele>149.0</ele><time>2026-04-26T11:14:12.992Z</time></trkpt><trkpt lat="43.452167752888954" lon="10.667563624896944"><ele>149.0</ele><time>2026-04-26T11:14:13.992Z</time></trkpt><trkpt lat="43.4520007205233" lon="10.667530728066392"><ele>149.0</ele><time>2026-04-26T11:14:14.992Z</time></trkpt><trkpt lat="43.451829350227676" lon="10.667494536210844"><ele>149.0</ele><time>2026-04-26T11:14:15.992Z</time></trkpt><trkpt lat="43.45165351561768" lon="10.667458201601825"><ele>149.0</ele><time>2026-04-26T11:14:16.992Z</time></trkpt><trkpt lat="43.45147565794181" lon="10.667429123367675"><ele>149.0</ele><time>2026-04-26T11:14:17.992Z</time></trkpt><trkpt lat="43.451127806545024" lon="10.667353054395932"><ele>149.0</ele><time>2026-04-26T11:14:19.992Z</time></trkpt><trkpt lat="43.450950513876734" lon="10.667313093846328"><ele>149.0</ele><time>2026-04-26T11:14:20.992Z</time></trkpt><trkpt lat="43.450778532266405" lon="10.667274206126534"><ele>149.0</ele><time>2026-04-26T11:14:21.992Z</time></trkpt><trkpt lat="43.45062153189968" lon="10.6672483125792"><ele>149.0</ele><time>2026-04-26T11:14:22.992Z</time></trkpt><trkpt lat="43.45047705646805" lon="10.667222820611496"><ele>149.0</ele><time>2026-04-26T11:14:23.992Z</time></trkpt><trkpt lat="43.4503341908883" lon="10.667217961951556"><ele>149.0</ele><time>2026-04-26T11:14:24.992Z</time></trkpt><trkpt lat="43.45018506830256" lon="10.667252986512027"><ele>149.0</ele><time>2026-04-26T11:14:25.992Z</time></trkpt><trkpt lat="43.45002228779949" lon="10.667318973043928"><ele>149.0</ele><time>2026-04-26T11:14:26.992Z</time></trkpt><trkpt lat="43.44986253342504" lon="10.667401488221014"><ele>149.0</ele><time>2026-04-26T11:14:27.992Z</time></trkpt><trkpt lat="43.44970742355451" lon="10.667486921879648"><ele>149.0</ele><time>2026-04-26T11:14:28.992Z</time></trkpt><trkpt lat="43.449563536715864" lon="10.667554586927084"><ele>150.0</ele><time>2026-04-26T11:14:29.992Z</time></trkpt><trkpt lat="43.44941825034444" lon="10.667607935795955"><ele>151.0</ele><time>2026-04-26T11:14:30.992Z</time></trkpt><trkpt lat="43.449103515824305" lon="10.667630470167612"><ele>151.0</ele><time>2026-04-26T11:14:32.992Z</time></trkpt><trkpt lat="43.44894169348951" lon="10.667610244506816"><ele>151.0</ele><time>2026-04-26T11:14:33.992Z</time></trkpt><trkpt lat="43.448780509495315" lon="10.667582042288899"><ele>151.0</ele><time>2026-04-26T11:14:34.992Z</time></trkpt><trkpt lat="43.448612651526076" lon="10.66754227385465"><ele>150.66666666666669</ele><time>2026-04-26T11:14:35.992Z</time></trkpt><trkpt lat="43.44844103990606" lon="10.667494466328007"><ele>150.33333333333334</ele><time>2026-04-26T11:14:36.992Z</time></trkpt><trkpt lat="43.44826892196044" lon="10.667438013379913"><ele>150.0</ele><time>2026-04-26T11:14:37.992Z</time></trkpt><trkpt lat="43.44809401038028" lon="10.667369991939173"><ele>150.0</ele><time>2026-04-26T11:14:38.992Z</time></trkpt><trkpt lat="43.44792270178045" lon="10.667298536205893"><ele>150.0</ele><time>2026-04-26T11:14:39.992Z</time></trkpt><trkpt lat="43.44774844031645" lon="10.667228734233204"><ele>150.0</ele><time>2026-04-26T11:14:40.992Z</time></trkpt><trkpt lat="43.447571298836685" lon="10.667160206528756"><ele>150.0</ele><time>2026-04-26T11:14:41.992Z</time></trkpt><trkpt lat="43.44739391696559" lon="10.667093866952783"><ele>150.0</ele><time>2026-04-26T11:14:42.992Z</time></trkpt><trkpt lat="43.44721306151906" lon="10.667023983250997"><ele>150.0</ele><time>2026-04-26T11:14:43.992Z</time></trkpt><trkpt lat="43.44703661046422" lon="10.666951606736198"><ele>150.33333333333334</ele><time>2026-04-26T11:14:44.992Z</time></trkpt><trkpt lat="43.44685728442316" lon="10.666878098152745"><ele>150.66666666666669</ele><time>2026-04-26T11:14:45.992Z</time></trkpt><trkpt lat="43.446674698274315" lon="10.666805268698901"><ele>151.0</ele><time>2026-04-26T11:14:46.992Z</time></trkpt><trkpt lat="43.446490115812054" lon="10.666735610255683"><ele>151.0</ele><time>2026-04-26T11:14:47.992Z</time></trkpt><trkpt lat="43.44630309643369" lon="10.6666645172992"><ele>151.0</ele><time>2026-04-26T11:14:48.992Z</time></trkpt><trkpt lat="43.44611877221572" lon="10.666589574009867"><ele>151.0</ele><time>2026-04-26T11:14:49.992Z</time></trkpt><trkpt lat="43.44593560677473" lon="10.666513011616384"><ele>151.66666666666669</ele><time>2026-04-26T11:14:50.992Z</time></trkpt><trkpt lat="43.44575034495544" lon="10.666437276855888"><ele>152.33333333333334</ele><time>2026-04-26T11:14:51.992Z</time></trkpt><trkpt lat="43.44556055964293" lon="10.666362912781628"><ele>153.0</ele><time>2026-04-26T11:14:52.992Z</time></trkpt><trkpt lat="43.44537212053979" lon="10.66628714930232"><ele>153.0</ele><time>2026-04-26T11:14:53.992Z</time></trkpt><trkpt lat="43.44518801699549" lon="10.666212010388975"><ele>153.0</ele><time>2026-04-26T11:14:54.992Z</time></trkpt><trkpt lat="43.44499522681244" lon="10.666135972671492"><ele>153.0</ele><time>2026-04-26T11:14:55.992Z</time></trkpt><trkpt lat="43.444803394044385" lon="10.666055021872129"><ele>154.33333333333334</ele><time>2026-04-26T11:14:56.992Z</time></trkpt><trkpt lat="43.44461377448533" lon="10.665979002533168"><ele>155.66666666666669</ele><time>2026-04-26T11:14:57.992Z</time></trkpt><trkpt lat="43.444422890275185" lon="10.665904693793932"><ele>157.0</ele><time>2026-04-26T11:14:58.992Z</time></trkpt><trkpt lat="43.444234085330024" lon="10.665830814328123"><ele>157.0</ele><time>2026-04-26T11:14:59.992Z</time></trkpt><trkpt lat="43.44404554581374" lon="10.665756809840616"><ele>157.0</ele><time>2026-04-26T11:15:00.992Z</time></trkpt><trkpt lat="43.44384976262821" lon="10.665686059835457"><ele>157.0</ele><time>2026-04-26T11:15:01.992Z</time></trkpt><trkpt lat="43.443659237115554" lon="10.665611117584646"><ele>157.0</ele><time>2026-04-26T11:15:02.992Z</time></trkpt><trkpt lat="43.44347336802686" lon="10.665540453107624"><ele>157.0</ele><time>2026-04-26T11:15:03.992Z</time></trkpt><trkpt lat="43.44327611925154" lon="10.665477176054198"><ele>157.0</ele><time>2026-04-26T11:15:04.992Z</time></trkpt><trkpt lat="43.44307965078542" lon="10.665418690056093"><ele>157.66666666666669</ele><time>2026-04-26T11:15:05.992Z</time></trkpt><trkpt lat="43.442883265718685" lon="10.66536034940565"><ele>158.33333333333334</ele><time>2026-04-26T11:15:06.992Z</time></trkpt><trkpt lat="43.44268545338153" lon="10.665299528287488"><ele>159.0</ele><time>2026-04-26T11:15:07.992Z</time></trkpt><trkpt lat="43.44248923629729" lon="10.66523636398095"><ele>159.66666666666666</ele><time>2026-04-26T11:15:08.992Z</time></trkpt><trkpt lat="43.44229123105541" lon="10.665174498577226"><ele>160.33333333333331</ele><time>2026-04-26T11:15:09.992Z</time></trkpt><trkpt lat="43.442092907779454" lon="10.665112674526629"><ele>161.0</ele><time>2026-04-26T11:15:10.992Z</time></trkpt><trkpt lat="43.44190422379497" lon="10.665047035956842"><ele>161.0</ele><time>2026-04-26T11:15:11.992Z</time></trkpt><trkpt lat="43.441699771637374" lon="10.664982782867492"><ele>161.0</ele><time>2026-04-26T11:15:12.992Z</time></trkpt><trkpt lat="43.441495389464976" lon="10.664922486920046"><ele>161.0</ele><time>2026-04-26T11:15:13.992Z</time></trkpt><trkpt lat="43.441296533252086" lon="10.66486102161516"><ele>161.33333333333331</ele><time>2026-04-26T11:15:14.992Z</time></trkpt><trkpt lat="43.44110496395762" lon="10.664798479676396"><ele>161.66666666666666</ele><time>2026-04-26T11:15:15.992Z</time></trkpt><trkpt lat="43.440927574596635" lon="10.664737983353163"><ele>162.0</ele><time>2026-04-26T11:15:16.992Z</time></trkpt><trkpt lat="43.44076756810047" lon="10.664675546887144"><ele>162.0</ele><time>2026-04-26T11:15:17.992Z</time></trkpt><trkpt lat="43.440609377142465" lon="10.664599591929836"><ele>162.0</ele><time>2026-04-26T11:15:18.992Z</time></trkpt><trkpt lat="43.44045283620797" lon="10.664486455034398"><ele>162.0</ele><time>2026-04-26T11:15:19.992Z</time></trkpt><trkpt lat="43.44030133584526" lon="10.664349447350352"><ele>163.0</ele><time>2026-04-26T11:15:20.992Z</time></trkpt><trkpt lat="43.440155735242996" lon="10.664196454877013"><ele>164.0</ele><time>2026-04-26T11:15:21.992Z</time></trkpt><trkpt lat="43.440015019730936" lon="10.664029184850897"><ele>165.0</ele><time>2026-04-26T11:15:22.992Z</time></trkpt><trkpt lat="43.43987873479629" lon="10.663848027402588"><ele>165.0</ele><time>2026-04-26T11:15:23.992Z</time></trkpt><trkpt lat="43.43974474675879" lon="10.663663934592863"><ele>165.0</ele><time>2026-04-26T11:15:24.992Z</time></trkpt><trkpt lat="43.43961090523279" lon="10.663481619426202"><ele>165.0</ele><time>2026-04-26T11:15:25.992Z</time></trkpt><trkpt lat="43.43947785676347" lon="10.663311261113712"><ele>166.33333333333334</ele><time>2026-04-26T11:15:26.992Z</time></trkpt><trkpt lat="43.43935244561845" lon="10.663140494816226"><ele>167.66666666666669</ele><time>2026-04-26T11:15:27.992Z</time></trkpt><trkpt lat="43.439237239863864" lon="10.662988598982494"><ele>169.0</ele><time>2026-04-26T11:15:28.992Z</time></trkpt><trkpt lat="43.439125424826" lon="10.662838259524014"><ele>169.33333333333334</ele><time>2026-04-26T11:15:29.992Z</time></trkpt><trkpt lat="43.43900485376787" lon="10.66269172031255"><ele>169.66666666666666</ele><time>2026-04-26T11:15:30.992Z</time></trkpt><trkpt lat="43.43887030820713" lon="10.662547199576236"><ele>170.0</ele><time>2026-04-26T11:15:31.992Z</time></trkpt><trkpt lat="43.43872492813196" lon="10.662423980035362"><ele>170.0</ele><time>2026-04-26T11:15:32.992Z</time></trkpt><trkpt lat="43.43857255991547" lon="10.662332934462832"><ele>170.0</ele><time>2026-04-26T11:15:33.992Z</time></trkpt><trkpt lat="43.43838971387538" lon="10.662268276120862"><ele>170.0</ele><time>2026-04-26T11:15:34.992Z</time></trkpt><trkpt lat="43.438208485240764" lon="10.662214225165565"><ele>170.0</ele><time>2026-04-26T11:15:35.992Z</time></trkpt><trkpt lat="43.438029281523264" lon="10.662164277182274"><ele>170.0</ele><time>2026-04-26T11:15:36.992Z</time></trkpt><trkpt lat="43.43785048092867" lon="10.662104204372818"><ele>170.0</ele><time>2026-04-26T11:15:37.992Z</time></trkpt><trkpt lat="43.43766432765213" lon="10.662034881574288"><ele>169.0</ele><time>2026-04-26T11:15:38.992Z</time></trkpt><trkpt lat="43.43748645109579" lon="10.661968437240787"><ele>168.0</ele><time>2026-04-26T11:15:39.992Z</time></trkpt><trkpt lat="43.437319140937376" lon="10.661903551147422"><ele>167.0</ele><time>2026-04-26T11:15:40.992Z</time></trkpt><trkpt lat="43.437166803432305" lon="10.661856042048182"><ele>168.66666666666666</ele><time>2026-04-26T11:15:41.992Z</time></trkpt><trkpt lat="43.43702209036893" lon="10.66180417180504"><ele>170.33333333333334</ele><time>2026-04-26T11:15:42.992Z</time></trkpt><trkpt lat="43.43687766230836" lon="10.661736859818799"><ele>172.0</ele><time>2026-04-26T11:15:43.992Z</time></trkpt><trkpt lat="43.43673248948362" lon="10.661659864671629"><ele>172.0</ele><time>2026-04-26T11:15:44.992Z</time></trkpt><trkpt lat="43.43658261753835" lon="10.661556159701828"><ele>172.0</ele><time>2026-04-26T11:15:45.992Z</time></trkpt><trkpt lat="43.43643606124647" lon="10.661446559580652"><ele>172.0</ele><time>2026-04-26T11:15:46.992Z</time></trkpt><trkpt lat="43.436297535223055" lon="10.661330482630536"><ele>171.66666666666669</ele><time>2026-04-26T11:15:47.991Z</time></trkpt><trkpt lat="43.436161910688035" lon="10.661213680911674"><ele>171.33333333333334</ele><time>2026-04-26T11:15:48.99Z</time></trkpt><trkpt lat="43.43601068417861" lon="10.661095990988075"><ele>171.0</ele><time>2026-04-26T11:15:49.99Z</time></trkpt><trkpt lat="43.43586087258388" lon="10.660977873092172"><ele>172.0</ele><time>2026-04-26T11:15:50.991Z</time></trkpt><trkpt lat="43.43571210690564" lon="10.660869097481905"><ele>173.0</ele><time>2026-04-26T11:15:51.991Z</time></trkpt><trkpt lat="43.43555177663929" lon="10.660755750170871"><ele>174.0</ele><time>2026-04-26T11:15:52.991Z</time></trkpt><trkpt lat="43.43538695865015" lon="10.660636853102286"><ele>174.0</ele><time>2026-04-26T11:15:53.991Z</time></trkpt><trkpt lat="43.435230245608146" lon="10.660518589039697"><ele>174.0</ele><time>2026-04-26T11:15:54.991Z</time></trkpt><trkpt lat="43.43507350325389" lon="10.660389861497631"><ele>174.0</ele><time>2026-04-26T11:15:55.991Z</time></trkpt><trkpt lat="43.434909532436976" lon="10.660275681715715"><ele>176.0</ele><time>2026-04-26T11:15:56.991Z</time></trkpt><trkpt lat="43.43474590811545" lon="10.660154785662352"><ele>178.0</ele><time>2026-04-26T11:15:57.991Z</time></trkpt><trkpt lat="43.43456084374792" lon="10.66005013676552"><ele>180.0</ele><time>2026-04-26T11:15:58.991Z</time></trkpt><trkpt lat="43.43438365062469" lon="10.659955831423526"><ele>180.0</ele><time>2026-04-26T11:15:59.991Z</time></trkpt><trkpt lat="43.4342098811583" lon="10.659896739320565"><ele>180.0</ele><time>2026-04-26T11:16:00.991Z</time></trkpt><trkpt lat="43.43402902201036" lon="10.659841483319761"><ele>180.0</ele><time>2026-04-26T11:16:01.991Z</time></trkpt><trkpt lat="43.43384226037813" lon="10.659788684695327"><ele>179.0</ele><time>2026-04-26T11:16:02.991Z</time></trkpt><trkpt lat="43.433665907526155" lon="10.659739505091105"><ele>178.0</ele><time>2026-04-26T11:16:03.991Z</time></trkpt><trkpt lat="43.433514055234085" lon="10.65968967621202"><ele>177.0</ele><time>2026-04-26T11:16:04.991Z</time></trkpt><trkpt lat="43.43339232363935" lon="10.659644440558864"><ele>177.0</ele><time>2026-04-26T11:16:05.991Z</time></trkpt><trkpt lat="43.433298499218495" lon="10.659587722825087"><ele>177.0</ele><time>2026-04-26T11:16:06.991Z</time></trkpt><trkpt lat="43.43321840607681" lon="10.659491571926022"><ele>177.0</ele><time>2026-04-26T11:16:07.991Z</time></trkpt><trkpt lat="43.43314971746282" lon="10.65935632720779"><ele>177.0</ele><time>2026-04-26T11:16:08.991Z</time></trkpt><trkpt lat="43.43309784928107" lon="10.6592033024105"><ele>177.25</ele><time>2026-04-26T11:16:09.991Z</time></trkpt><trkpt lat="43.43303512131254" lon="10.659058013940127"><ele>177.5</ele><time>2026-04-26T11:16:10.991Z</time></trkpt><trkpt lat="43.43294516748738" lon="10.658917777164064"><ele>177.75</ele><time>2026-04-26T11:16:11.991Z</time></trkpt><trkpt lat="43.43282206228623" lon="10.658803971167178"><ele>178.0</ele><time>2026-04-26T11:16:12.991Z</time></trkpt><trkpt lat="43.43268407568081" lon="10.6587187738515"><ele>178.0</ele><time>2026-04-26T11:16:13.991Z</time></trkpt><trkpt lat="43.43254910221382" lon="10.658650112358854"><ele>178.0</ele><time>2026-04-26T11:16:14.991Z</time></trkpt><trkpt lat="43.432425096942055" lon="10.658567530281188"><ele>178.0</ele><time>2026-04-26T11:16:15.991Z</time></trkpt><trkpt lat="43.43230674188578" lon="10.658483236638638"><ele>178.0</ele><time>2026-04-26T11:16:16.991Z</time></trkpt><trkpt lat="43.43218553680297" lon="10.658398211773635"><ele>178.75</ele><time>2026-04-26T11:16:17.991Z</time></trkpt><trkpt lat="43.43206475638123" lon="10.65831505824395"><ele>179.5</ele><time>2026-04-26T11:16:18.991Z</time></trkpt><trkpt lat="43.43194246643926" lon="10.658232194326732"><ele>180.25</ele><time>2026-04-26T11:16:19.991Z</time></trkpt><trkpt lat="43.43181815622758" lon="10.658147023653344"><ele>181.0</ele><time>2026-04-26T11:16:20.991Z</time></trkpt><trkpt lat="43.43169002810056" lon="10.658054882734499"><ele>181.0</ele><time>2026-04-26T11:16:21.991Z</time></trkpt><trkpt lat="43.43156536092743" lon="10.657970491955144"><ele>181.0</ele><time>2026-04-26T11:16:22.991Z</time></trkpt><trkpt lat="43.431432503792315" lon="10.657884590869696"><ele>181.0</ele><time>2026-04-26T11:16:23.991Z</time></trkpt><trkpt lat="43.43129765942218" lon="10.657793446373741"><ele>181.0</ele><time>2026-04-26T11:16:24.991Z</time></trkpt><trkpt lat="43.431158638252334" lon="10.6577026720864"><ele>181.33333333333334</ele><time>2026-04-26T11:16:25.991Z</time></trkpt><trkpt lat="43.43101274728362" lon="10.657612391188406"><ele>181.66666666666666</ele><time>2026-04-26T11:16:26.991Z</time></trkpt><trkpt lat="43.430872910616586" lon="10.657517624328698"><ele>182.0</ele><time>2026-04-26T11:16:27.991Z</time></trkpt><trkpt lat="43.43073772796321" lon="10.65742359278852"><ele>182.0</ele><time>2026-04-26T11:16:28.991Z</time></trkpt><trkpt lat="43.4306018878759" lon="10.657338550744681"><ele>182.0</ele><time>2026-04-26T11:16:29.991Z</time></trkpt><trkpt lat="43.43046603788804" lon="10.65724591045896"><ele>182.0</ele><time>2026-04-26T11:16:30.991Z</time></trkpt><trkpt lat="43.430321252931066" lon="10.657149586795486"><ele>182.33333333333331</ele><time>2026-04-26T11:16:31.991Z</time></trkpt><trkpt lat="43.43017187143628" lon="10.657047264368583"><ele>182.66666666666666</ele><time>2026-04-26T11:16:32.991Z</time></trkpt><trkpt lat="43.43002501850644" lon="10.656944804472872"><ele>183.0</ele><time>2026-04-26T11:16:33.991Z</time></trkpt><trkpt lat="43.42988084748527" lon="10.656852232509745"><ele>183.25</ele><time>2026-04-26T11:16:34.991Z</time></trkpt><trkpt lat="43.4297468390986" lon="10.656765528513843"><ele>183.5</ele><time>2026-04-26T11:16:35.991Z</time></trkpt><trkpt lat="43.42962983397887" lon="10.656691711930302"><ele>183.75</ele><time>2026-04-26T11:16:36.991Z</time></trkpt><trkpt lat="43.4295328254732" lon="10.656627426593868"><ele>184.0</ele><time>2026-04-26T11:16:37.991Z</time></trkpt><trkpt lat="43.429460409224646" lon="10.656564513992235"><ele>184.0</ele><time>2026-04-26T11:16:38.991Z</time></trkpt><trkpt lat="43.42940865210473" lon="10.656506460253421"><ele>184.0</ele><time>2026-04-26T11:16:39.991Z</time></trkpt><trkpt lat="43.429343746369575" lon="10.656412449893748"><ele>184.0</ele><time>2026-04-26T11:16:41.991Z</time></trkpt><trkpt lat="43.429273320399226" lon="10.656326726728892"><ele>184.0</ele><time>2026-04-26T11:16:43.991Z</time></trkpt><trkpt lat="43.42921408487394" lon="10.656267269632934"><ele>184.0</ele><time>2026-04-26T11:16:44.991Z</time></trkpt><trkpt lat="43.42914008127837" lon="10.65621832017758"><ele>184.0</ele><time>2026-04-26T11:16:45.991Z</time></trkpt><trkpt lat="43.42904962468775" lon="10.65619366293998"><ele>184.0</ele><time>2026-04-26T11:16:46.991Z</time></trkpt><trkpt lat="43.42896154747726" lon="10.656183027574405"><ele>184.0</ele><time>2026-04-26T11:16:47.991Z</time></trkpt><trkpt lat="43.42888810813769" lon="10.65616269828708"><ele>184.0</ele><time>2026-04-26T11:16:48.991Z</time></trkpt><trkpt lat="43.428828661466966" lon="10.65612243818532"><ele>184.0</ele><time>2026-04-26T11:16:49.991Z</time></trkpt><trkpt lat="43.42876681717039" lon="10.656064673933995"><ele>184.0</ele><time>2026-04-26T11:16:50.991Z</time></trkpt><trkpt lat="43.42870332511759" lon="10.655994640142804"><ele>184.0</ele><time>2026-04-26T11:16:51.991Z</time></trkpt><trkpt lat="43.42864812187391" lon="10.655911577617662"><ele>186.0</ele><time>2026-04-26T11:16:52.991Z</time></trkpt><trkpt lat="43.428588294260564" lon="10.655813461115676"><ele>188.0</ele><time>2026-04-26T11:16:53.991Z</time></trkpt><trkpt lat="43.42853243679905" lon="10.655696642811668"><ele>190.0</ele><time>2026-04-26T11:16:54.991Z</time></trkpt><trkpt lat="43.42847244313163" lon="10.655575841200237"><ele>192.0</ele><time>2026-04-26T11:16:55.991Z</time></trkpt><trkpt lat="43.42840232750218" lon="10.655463649675058"><ele>194.0</ele><time>2026-04-26T11:16:56.991Z</time></trkpt><trkpt lat="43.42831848767225" lon="10.655385477618779"><ele>194.0</ele><time>2026-04-26T11:16:57.991Z</time></trkpt><trkpt lat="43.428235211059864" lon="10.655317753493211"><ele>194.0</ele><time>2026-04-26T11:16:58.991Z</time></trkpt><trkpt lat="43.42814520893427" lon="10.655248378061373"><ele>194.0</ele><time>2026-04-26T11:16:59.991Z</time></trkpt><trkpt lat="43.42805705298154" lon="10.655184645612486"><ele>194.0</ele><time>2026-04-26T11:17:00.991Z</time></trkpt><trkpt lat="43.4279688104454" lon="10.655130621337827"><ele>194.0</ele><time>2026-04-26T11:17:01.991Z</time></trkpt><trkpt lat="43.42788238713348" lon="10.655080869720567"><ele>197.2</ele><time>2026-04-26T11:17:02.991Z</time></trkpt><trkpt lat="43.427790874085204" lon="10.655031399076416"><ele>200.39999999999998</ele><time>2026-04-26T11:17:03.991Z</time></trkpt><trkpt lat="43.42768835548829" lon="10.654975826962511"><ele>203.6</ele><time>2026-04-26T11:17:04.991Z</time></trkpt><trkpt lat="43.42759739861223" lon="10.654924772290906"><ele>206.8</ele><time>2026-04-26T11:17:05.991Z</time></trkpt><trkpt lat="43.42750610611847" lon="10.654879690665618"><ele>210.0</ele><time>2026-04-26T11:17:06.991Z</time></trkpt><trkpt lat="43.42743339390155" lon="10.654835199299745"><ele>210.0</ele><time>2026-04-26T11:17:07.991Z</time></trkpt><trkpt lat="43.42736488126285" lon="10.654796380714137"><ele>210.0</ele><time>2026-04-26T11:17:08.991Z</time></trkpt><trkpt lat="43.42729613045608" lon="10.654741464869275"><ele>210.0</ele><time>2026-04-26T11:17:09.991Z</time></trkpt><trkpt lat="43.427241892729754" lon="10.654660430878788"><ele>210.0</ele><time>2026-04-26T11:17:10.991Z</time></trkpt><trkpt lat="43.42721030723691" lon="10.65456443206849"><ele>210.0</ele><time>2026-04-26T11:17:11.991Z</time></trkpt><trkpt lat="43.42719560202818" lon="10.654447342095937"><ele>210.0</ele><time>2026-04-26T11:17:12.991Z</time></trkpt><trkpt lat="43.427193014612016" lon="10.654313362034744"><ele>212.4</ele><time>2026-04-26T11:17:13.991Z</time></trkpt><trkpt lat="43.42720575010956" lon="10.65417728974687"><ele>214.8</ele><time>2026-04-26T11:17:14.991Z</time></trkpt><trkpt lat="43.42723716510881" lon="10.654060463377466"><ele>217.2</ele><time>2026-04-26T11:17:15.991Z</time></trkpt><trkpt lat="43.42728999517037" lon="10.653980535364953"><ele>219.6</ele><time>2026-04-26T11:17:16.991Z</time></trkpt><trkpt lat="43.427362382930134" lon="10.653893848541296"><ele>222.0</ele><time>2026-04-26T11:17:17.991Z</time></trkpt><trkpt lat="43.427442537085824" lon="10.653768288778489"><ele>222.0</ele><time>2026-04-26T11:17:18.991Z</time></trkpt><trkpt lat="43.42752439646954" lon="10.653635831362788"><ele>222.0</ele><time>2026-04-26T11:17:19.991Z</time></trkpt><trkpt lat="43.42759744073602" lon="10.653504481139082"><ele>222.0</ele><time>2026-04-26T11:17:20.991Z</time></trkpt><trkpt lat="43.42764343912942" lon="10.65338205997569"><ele>222.0</ele><time>2026-04-26T11:17:21.991Z</time></trkpt><trkpt lat="43.4276659436137" lon="10.653259474415247"><ele>222.0</ele><time>2026-04-26T11:17:22.991Z</time></trkpt><trkpt lat="43.42767394835763" lon="10.65312127938929"><ele>224.39999999999998</ele><time>2026-04-26T11:17:23.991Z</time></trkpt><trkpt lat="43.42766068230275" lon="10.652985737587121"><ele>226.79999999999998</ele><time>2026-04-26T11:17:24.991Z</time></trkpt><trkpt lat="43.42762446594354" lon="10.652858958639426"><ele>229.2</ele><time>2026-04-26T11:17:25.991Z</time></trkpt><trkpt lat="43.42756544947856" lon="10.652749907386259"><ele>231.6</ele><time>2026-04-26T11:17:26.991Z</time></trkpt><trkpt lat="43.427483912223906" lon="10.65266012474578"><ele>234.0</ele><time>2026-04-26T11:17:27.991Z</time></trkpt><trkpt lat="43.427395403225646" lon="10.652595243939777"><ele>236.0</ele><time>2026-04-26T11:17:28.991Z</time></trkpt><trkpt lat="43.42727902725413" lon="10.652537820137562"><ele>238.0</ele><time>2026-04-26T11:17:29.991Z</time></trkpt><trkpt lat="43.42715731834917" lon="10.65248228776079"><ele>240.0</ele><time>2026-04-26T11:17:30.991Z</time></trkpt><trkpt lat="43.42703949890902" lon="10.65242694163605"><ele>242.0</ele><time>2026-04-26T11:17:31.991Z</time></trkpt><trkpt lat="43.42693240802525" lon="10.652383846062644"><ele>244.0</ele><time>2026-04-26T11:17:32.991Z</time></trkpt><trkpt lat="43.42682935844468" lon="10.652359248096829"><ele>246.0</ele><time>2026-04-26T11:17:33.991Z</time></trkpt><trkpt lat="43.42671664301339" lon="10.652351889972845"><ele>248.0</ele><time>2026-04-26T11:17:34.991Z</time></trkpt><trkpt lat="43.426612884836196" lon="10.652328236728659"><ele>250.0</ele><time>2026-04-26T11:17:35.991Z</time></trkpt><trkpt lat="43.426514667929034" lon="10.652281672468705"><ele>252.0</ele><time>2026-04-26T11:17:36.991Z</time></trkpt><trkpt lat="43.42642275374666" lon="10.652193882253766"><ele>252.0</ele><time>2026-04-26T11:17:37.991Z</time></trkpt><trkpt lat="43.42633832144867" lon="10.652096842008284"><ele>252.0</ele><time>2026-04-26T11:17:38.991Z</time></trkpt><trkpt lat="43.426257706484265" lon="10.651993285202687"><ele>252.0</ele><time>2026-04-26T11:17:39.991Z</time></trkpt><trkpt lat="43.42620064237848" lon="10.651892374742019"><ele>252.0</ele><time>2026-04-26T11:17:40.991Z</time></trkpt><trkpt lat="43.426133195380324" lon="10.651787998071155"><ele>252.0</ele><time>2026-04-26T11:17:41.991Z</time></trkpt><trkpt lat="43.42606194460565" lon="10.6517183179492"><ele>256.25</ele><time>2026-04-26T11:17:42.991Z</time></trkpt><trkpt lat="43.42596195531122" lon="10.651662827572652"><ele>260.5</ele><time>2026-04-26T11:17:43.991Z</time></trkpt><trkpt lat="43.425848957932864" lon="10.651607463886664"><ele>264.75</ele><time>2026-04-26T11:17:44.991Z</time></trkpt><trkpt lat="43.42574795434876" lon="10.651539547274124"><ele>269.0</ele><time>2026-04-26T11:17:45.991Z</time></trkpt><trkpt lat="43.42564253299152" lon="10.651460506690908"><ele>269.0</ele><time>2026-04-26T11:17:46.991Z</time></trkpt><trkpt lat="43.425552550792275" lon="10.651382745731594"><ele>269.0</ele><time>2026-04-26T11:17:47.991Z</time></trkpt><trkpt lat="43.42548282016003" lon="10.651297581174106"><ele>269.0</ele><time>2026-04-26T11:17:48.991Z</time></trkpt><trkpt lat="43.4254367962817" lon="10.651212784272623"><ele>269.0</ele><time>2026-04-26T11:17:49.991Z</time></trkpt><trkpt lat="43.42541393704683" lon="10.651102917634043"><ele>269.0</ele><time>2026-04-26T11:17:50.991Z</time></trkpt><trkpt lat="43.42540259735945" lon="10.650969473164876"><ele>272.59999999999997</ele><time>2026-04-26T11:17:51.991Z</time></trkpt><trkpt lat="43.42538629667453" lon="10.650828564060923"><ele>276.2</ele><time>2026-04-26T11:17:52.991Z</time></trkpt><trkpt lat="43.42537141602409" lon="10.650676914706587"><ele>279.79999999999995</ele><time>2026-04-26T11:17:53.99Z</time></trkpt><trkpt lat="43.42536587646592" lon="10.650536251902896"><ele>283.4</ele><time>2026-04-26T11:17:54.99Z</time></trkpt><trkpt lat="43.42536097983652" lon="10.650427176277732"><ele>287.0</ele><time>2026-04-26T11:17:55.99Z</time></trkpt><trkpt lat="43.42536950138047" lon="10.650332918565018"><ele>289.8</ele><time>2026-04-26T11:17:56.99Z</time></trkpt><trkpt lat="43.42538734208554" lon="10.650169915413201"><ele>292.6</ele><time>2026-04-26T11:17:58.99Z</time></trkpt><trkpt lat="43.425424328472" lon="10.650044445017462"><ele>295.40000000000003</ele><time>2026-04-26T11:17:59.99Z</time></trkpt><trkpt lat="43.42544770274976" lon="10.64990790224506"><ele>298.2</ele><time>2026-04-26T11:18:00.99Z</time></trkpt><trkpt lat="43.42545341443806" lon="10.649788447706364"><ele>301.0</ele><time>2026-04-26T11:18:01.99Z</time></trkpt><trkpt lat="43.42542462266706" lon="10.649672328131363"><ele>301.0</ele><time>2026-04-26T11:18:02.99Z</time></trkpt><trkpt lat="43.425371542074124" lon="10.64956409594257"><ele>301.0</ele><time>2026-04-26T11:18:03.99Z</time></trkpt><trkpt lat="43.42529556335111" lon="10.64946593692883"><ele>301.0</ele><time>2026-04-26T11:18:04.99Z</time></trkpt><trkpt lat="43.42520540458817" lon="10.649370463177931"><ele>301.0</ele><time>2026-04-26T11:18:05.99Z</time></trkpt><trkpt lat="43.425107634578936" lon="10.649265725885265"><ele>301.0</ele><time>2026-04-26T11:18:06.99Z</time></trkpt><trkpt lat="43.42502693168682" lon="10.649147052545699"><ele>301.6</ele><time>2026-04-26T11:18:07.99Z</time></trkpt><trkpt lat="43.42497840083502" lon="10.64904223414366"><ele>302.20000000000005</ele><time>2026-04-26T11:18:08.99Z</time></trkpt><trkpt lat="43.42495518899948" lon="10.64893303671391"><ele>302.79999999999995</ele><time>2026-04-26T11:18:09.99Z</time></trkpt><trkpt lat="43.42493517694784" lon="10.648816932210359"><ele>303.4</ele><time>2026-04-26T11:18:10.99Z</time></trkpt><trkpt lat="43.42492293779326" lon="10.648661829683036"><ele>304.0</ele><time>2026-04-26T11:18:11.99Z</time></trkpt><trkpt lat="43.4249174034587" lon="10.648477274751343"><ele>304.5</ele><time>2026-04-26T11:18:12.99Z</time></trkpt><trkpt lat="43.42492123828885" lon="10.648292635535453"><ele>305.0</ele><time>2026-04-26T11:18:13.99Z</time></trkpt><trkpt lat="43.42491974211257" lon="10.648127918499561"><ele>305.5</ele><time>2026-04-26T11:18:14.99Z</time></trkpt><trkpt lat="43.424896405656874" lon="10.647987534385738"><ele>306.0</ele><time>2026-04-26T11:18:15.99Z</time></trkpt><trkpt lat="43.4248511620096" lon="10.647864147953147"><ele>308.6</ele><time>2026-04-26T11:18:16.99Z</time></trkpt><trkpt lat="43.42478407535829" lon="10.647761278331618"><ele>311.20000000000005</ele><time>2026-04-26T11:18:17.99Z</time></trkpt><trkpt lat="43.42469698337972" lon="10.64766441240843"><ele>313.79999999999995</ele><time>2026-04-26T11:18:18.99Z</time></trkpt><trkpt lat="43.42459886290851" lon="10.64756860903831"><ele>316.4</ele><time>2026-04-26T11:18:19.99Z</time></trkpt><trkpt lat="43.42450527573986" lon="10.647474179528224"><ele>319.0</ele><time>2026-04-26T11:18:20.99Z</time></trkpt><trkpt lat="43.424413713178694" lon="10.64739091172409"><ele>319.25</ele><time>2026-04-26T11:18:21.99Z</time></trkpt><trkpt lat="43.424325241536565" lon="10.64730398048629"><ele>319.5</ele><time>2026-04-26T11:18:22.99Z</time></trkpt><trkpt lat="43.424232183489416" lon="10.647219478553625"><ele>319.75</ele><time>2026-04-26T11:18:23.99Z</time></trkpt><trkpt lat="43.424135274483326" lon="10.647124756442457"><ele>320.0</ele><time>2026-04-26T11:18:24.99Z</time></trkpt><trkpt lat="43.424035836267414" lon="10.647056131861456"><ele>320.0</ele><time>2026-04-26T11:18:25.99Z</time></trkpt><trkpt lat="43.42394692018036" lon="10.646977911954817"><ele>320.0</ele><time>2026-04-26T11:18:26.99Z</time></trkpt><trkpt lat="43.42383668511523" lon="10.646925303879692"><ele>320.0</ele><time>2026-04-26T11:18:27.99Z</time></trkpt><trkpt lat="43.42371286677873" lon="10.646889495141776"><ele>320.0</ele><time>2026-04-26T11:18:28.99Z</time></trkpt><trkpt lat="43.423579965092244" lon="10.646845413682104"><ele>326.5</ele><time>2026-04-26T11:18:29.99Z</time></trkpt><trkpt lat="43.42346123891403" lon="10.64679967811851"><ele>333.0</ele><time>2026-04-26T11:18:30.99Z</time></trkpt><trkpt lat="43.4233431671654" lon="10.646734868866291"><ele>339.5</ele><time>2026-04-26T11:18:31.99Z</time></trkpt><trkpt lat="43.42322489861309" lon="10.646659650360135"><ele>346.0</ele><time>2026-04-26T11:18:32.99Z</time></trkpt><trkpt lat="43.42310520781808" lon="10.646587016131338"><ele>346.0</ele><time>2026-04-26T11:18:33.99Z</time></trkpt><trkpt lat="43.42298318894624" lon="10.646501969689066"><ele>346.0</ele><time>2026-04-26T11:18:34.99Z</time></trkpt><trkpt lat="43.42286216764" lon="10.646417706170272"><ele>346.0</ele><time>2026-04-26T11:18:35.99Z</time></trkpt><trkpt lat="43.42274818338307" lon="10.646325165844265"><ele>346.0</ele><time>2026-04-26T11:18:36.99Z</time></trkpt><trkpt lat="43.42262633705656" lon="10.646245753951696"><ele>345.5</ele><time>2026-04-26T11:18:37.99Z</time></trkpt><trkpt lat="43.42251458365487" lon="10.646148469368855"><ele>345.0</ele><time>2026-04-26T11:18:38.99Z</time></trkpt><trkpt lat="43.42240880173918" lon="10.646054820944762"><ele>344.5</ele><time>2026-04-26T11:18:39.99Z</time></trkpt><trkpt lat="43.422291019454754" lon="10.645984681290152"><ele>344.0</ele><time>2026-04-26T11:18:40.99Z</time></trkpt><trkpt lat="43.422152174390945" lon="10.645936397823665"><ele>349.75</ele><time>2026-04-26T11:18:41.99Z</time></trkpt><trkpt lat="43.42202033651713" lon="10.645868946131031"><ele>355.5</ele><time>2026-04-26T11:18:42.99Z</time></trkpt><trkpt lat="43.42189849900535" lon="10.645789714539553"><ele>361.25</ele><time>2026-04-26T11:18:43.99Z</time></trkpt><trkpt lat="43.42177612298179" lon="10.645706050183424"><ele>367.0</ele><time>2026-04-26T11:18:44.99Z</time></trkpt><trkpt lat="43.42165554580238" lon="10.645617898579296"><ele>367.0</ele><time>2026-04-26T11:18:45.99Z</time></trkpt><trkpt lat="43.42153369848307" lon="10.64552177907457"><ele>367.0</ele><time>2026-04-26T11:18:46.99Z</time></trkpt><trkpt lat="43.421410248556306" lon="10.645411913711497"><ele>367.0</ele><time>2026-04-26T11:18:47.99Z</time></trkpt><trkpt lat="43.42129362361706" lon="10.645299187193222"><ele>367.0</ele><time>2026-04-26T11:18:48.99Z</time></trkpt><trkpt lat="43.421179289646986" lon="10.645177236753032"><ele>368.5</ele><time>2026-04-26T11:18:49.99Z</time></trkpt><trkpt lat="43.42106960475991" lon="10.645055168677695"><ele>370.0</ele><time>2026-04-26T11:18:50.99Z</time></trkpt><trkpt lat="43.4209645913443" lon="10.644938429105673"><ele>371.5</ele><time>2026-04-26T11:18:51.99Z</time></trkpt><trkpt lat="43.42085983374727" lon="10.6448186640007"><ele>373.0</ele><time>2026-04-26T11:18:52.99Z</time></trkpt><trkpt lat="43.42075013927649" lon="10.644709055072973"><ele>373.0</ele><time>2026-04-26T11:18:53.99Z</time></trkpt><trkpt lat="43.42063630744882" lon="10.644605570637232"><ele>373.0</ele><time>2026-04-26T11:18:54.99Z</time></trkpt><trkpt lat="43.42051422229818" lon="10.644510902892405"><ele>373.0</ele><time>2026-04-26T11:18:55.99Z</time></trkpt><trkpt lat="43.42039936522687" lon="10.644426927669961"><ele>373.0</ele><time>2026-04-26T11:18:56.99Z</time></trkpt><trkpt lat="43.42030192446469" lon="10.644336301321836"><ele>374.75</ele><time>2026-04-26T11:18:57.99Z</time></trkpt><trkpt lat="43.42021292575386" lon="10.644226051685573"><ele>376.5</ele><time>2026-04-26T11:18:58.99Z</time></trkpt><trkpt lat="43.42011850774635" lon="10.644097469410921"><ele>378.25</ele><time>2026-04-26T11:18:59.99Z</time></trkpt><trkpt lat="43.4200212027617" lon="10.64396880019711"><ele>380.0</ele><time>2026-04-26T11:19:00.99Z</time></trkpt><trkpt lat="43.41993562362297" lon="10.643847814021793"><ele>380.0</ele><time>2026-04-26T11:19:01.99Z</time></trkpt><trkpt lat="43.41986629276637" lon="10.643741206617714"><ele>380.0</ele><time>2026-04-26T11:19:02.99Z</time></trkpt><trkpt lat="43.41979926964246" lon="10.643634549710221"><ele>380.0</ele><time>2026-04-26T11:19:03.99Z</time></trkpt><trkpt lat="43.41975387237503" lon="10.64354651159234"><ele>380.0</ele><time>2026-04-26T11:19:04.99Z</time></trkpt><trkpt lat="43.41971696529712" lon="10.643469748251851"><ele>380.0</ele><time>2026-04-26T11:19:05.99Z</time></trkpt><trkpt lat="43.4196766451648" lon="10.643394030800795"><ele>380.0</ele><time>2026-04-26T11:19:06.99Z</time></trkpt><trkpt lat="43.41957480971639" lon="10.643295143157292"><ele>379.2</ele><time>2026-04-26T11:19:08.99Z</time></trkpt><trkpt lat="43.41950022959723" lon="10.643273726576012"><ele>378.4</ele><time>2026-04-26T11:19:09.99Z</time></trkpt><trkpt lat="43.41940327256272" lon="10.643219808958715"><ele>377.6</ele><time>2026-04-26T11:19:10.99Z</time></trkpt><trkpt lat="43.419295736185795" lon="10.643169627716027"><ele>376.8</ele><time>2026-04-26T11:19:11.99Z</time></trkpt><trkpt lat="43.419195719495164" lon="10.64310896104834"><ele>376.0</ele><time>2026-04-26T11:19:12.99Z</time></trkpt><trkpt lat="43.41910531599153" lon="10.64302561878073"><ele>376.0</ele><time>2026-04-26T11:19:13.99Z</time></trkpt><trkpt lat="43.41901841359429" lon="10.642933272851794"><ele>376.0</ele><time>2026-04-26T11:19:14.99Z</time></trkpt><trkpt lat="43.4189446366558" lon="10.642820039152701"><ele>376.0</ele><time>2026-04-26T11:19:15.99Z</time></trkpt><trkpt lat="43.418861753568365" lon="10.642744561421402"><ele>376.0</ele><time>2026-04-26T11:19:16.99Z</time></trkpt><trkpt lat="43.418775974358205" lon="10.642673008521463"><ele>376.0</ele><time>2026-04-26T11:19:17.99Z</time></trkpt><trkpt lat="43.41869301161421" lon="10.642611960302217"><ele>374.66666666666663</ele><time>2026-04-26T11:19:18.99Z</time></trkpt><trkpt lat="43.418619891017954" lon="10.642559941649656"><ele>373.3333333333333</ele><time>2026-04-26T11:19:19.99Z</time></trkpt><trkpt lat="43.41855448742871" lon="10.642507788500302"><ele>372.0</ele><time>2026-04-26T11:19:20.99Z</time></trkpt><trkpt lat="43.41849209182523" lon="10.642452864437658"><ele>370.6666666666667</ele><time>2026-04-26T11:19:21.99Z</time></trkpt><trkpt lat="43.41841558332756" lon="10.642405625362983"><ele>369.33333333333337</ele><time>2026-04-26T11:19:22.99Z</time></trkpt><trkpt lat="43.418343663480506" lon="10.64230639654104"><ele>368.0</ele><time>2026-04-26T11:19:23.99Z</time></trkpt><trkpt lat="43.41824852506023" lon="10.642202961016212"><ele>368.0</ele><time>2026-04-26T11:19:24.99Z</time></trkpt><trkpt lat="43.418149445511816" lon="10.642126850115659"><ele>368.0</ele><time>2026-04-26T11:19:25.991Z</time></trkpt><trkpt lat="43.418074497419106" lon="10.64203703185263"><ele>368.0</ele><time>2026-04-26T11:19:26.991Z</time></trkpt><trkpt lat="43.418008204642064" lon="10.641965036799375"><ele>368.0</ele><time>2026-04-26T11:19:27.991Z</time></trkpt><trkpt lat="43.41794641674832" lon="10.641894800073695"><ele>368.0</ele><time>2026-04-26T11:19:28.991Z</time></trkpt><trkpt lat="43.41787303775699" lon="10.641812266273128"><ele>367.4</ele><time>2026-04-26T11:19:29.991Z</time></trkpt><trkpt lat="43.41780860551199" lon="10.641702811575877"><ele>366.79999999999995</ele><time>2026-04-26T11:19:30.991Z</time></trkpt><trkpt lat="43.41773889191148" lon="10.641594674350458"><ele>366.2</ele><time>2026-04-26T11:19:31.991Z</time></trkpt><trkpt lat="43.41766611661111" lon="10.641498148083206"><ele>365.6</ele><time>2026-04-26T11:19:32.991Z</time></trkpt><trkpt lat="43.417577828995775" lon="10.64139800185357"><ele>365.0</ele><time>2026-04-26T11:19:33.991Z</time></trkpt><trkpt lat="43.41749073587222" lon="10.641297510070116"><ele>365.0</ele><time>2026-04-26T11:19:34.991Z</time></trkpt><trkpt lat="43.417406360799895" lon="10.641204631687918"><ele>365.0</ele><time>2026-04-26T11:19:35.991Z</time></trkpt><trkpt lat="43.41732627434612" lon="10.641120112482994"><ele>365.0</ele><time>2026-04-26T11:19:36.991Z</time></trkpt><trkpt lat="43.4172515599764" lon="10.641029947332854"><ele>365.0</ele><time>2026-04-26T11:19:37.991Z</time></trkpt><trkpt lat="43.41717401338746" lon="10.6409334727712"><ele>365.0</ele><time>2026-04-26T11:19:38.991Z</time></trkpt><trkpt lat="43.417086319083076" lon="10.640843525511528"><ele>367.4</ele><time>2026-04-26T11:19:39.991Z</time></trkpt><trkpt lat="43.41700448527921" lon="10.64075128536745"><ele>369.8</ele><time>2026-04-26T11:19:40.991Z</time></trkpt><trkpt lat="43.41692371100701" lon="10.640642257396472"><ele>372.20000000000005</ele><time>2026-04-26T11:19:41.991Z</time></trkpt><trkpt lat="43.41685101260186" lon="10.640553673139927"><ele>374.6</ele><time>2026-04-26T11:19:42.991Z</time></trkpt><trkpt lat="43.41678495180852" lon="10.640481635677903"><ele>377.0</ele><time>2026-04-26T11:19:43.991Z</time></trkpt><trkpt lat="43.416729793966724" lon="10.640404825904135"><ele>377.0</ele><time>2026-04-26T11:19:44.991Z</time></trkpt><trkpt lat="43.416673955766115" lon="10.640331686923833"><ele>377.0</ele><time>2026-04-26T11:19:45.991Z</time></trkpt><trkpt lat="43.41663072558322" lon="10.64026592877639"><ele>377.0</ele><time>2026-04-26T11:19:46.991Z</time></trkpt><trkpt lat="43.41657309853281" lon="10.64021680484652"><ele>377.0</ele><time>2026-04-26T11:19:47.991Z</time></trkpt><trkpt lat="43.41648786032335" lon="10.64018053830252"><ele>377.0</ele><time>2026-04-26T11:19:48.991Z</time></trkpt><trkpt lat="43.41639464623109" lon="10.640158756428407"><ele>377.0</ele><time>2026-04-26T11:19:49.991Z</time></trkpt><trkpt lat="43.41629390063946" lon="10.640165041965957"><ele>374.6</ele><time>2026-04-26T11:19:50.991Z</time></trkpt><trkpt lat="43.41618561228882" lon="10.640129643716008"><ele>372.20000000000005</ele><time>2026-04-26T11:19:51.991Z</time></trkpt><trkpt lat="43.416085985003924" lon="10.640114537716098"><ele>369.8</ele><time>2026-04-26T11:19:52.991Z</time></trkpt><trkpt lat="43.415997574797416" lon="10.640088830226864"><ele>367.4</ele><time>2026-04-26T11:19:53.991Z</time></trkpt><trkpt lat="43.4159162511804" lon="10.64004483298601"><ele>365.0</ele><time>2026-04-26T11:19:54.991Z</time></trkpt><trkpt lat="43.41583986510457" lon="10.639988155001916"><ele>365.0</ele><time>2026-04-26T11:19:55.991Z</time></trkpt><trkpt lat="43.41576724656855" lon="10.639938887917275"><ele>365.0</ele><time>2026-04-26T11:19:56.991Z</time></trkpt><trkpt lat="43.41568353444173" lon="10.639889803335558"><ele>365.0</ele><time>2026-04-26T11:19:57.991Z</time></trkpt><trkpt lat="43.41561295251345" lon="10.639809251575391"><ele>365.0</ele><time>2026-04-26T11:19:58.991Z</time></trkpt><trkpt lat="43.41554407830007" lon="10.639738933863534"><ele>365.0</ele><time>2026-04-26T11:19:59.989Z</time></trkpt><trkpt lat="43.41547720381813" lon="10.639653030692742"><ele>365.0</ele><time>2026-04-26T11:20:00.989Z</time></trkpt><trkpt lat="43.41540079975443" lon="10.639552494536915"><ele>363.8</ele><time>2026-04-26T11:20:01.989Z</time></trkpt><trkpt lat="43.41531098774754" lon="10.639465691354474"><ele>362.6</ele><time>2026-04-26T11:20:02.989Z</time></trkpt><trkpt lat="43.4152250219688" lon="10.639357374537466"><ele>361.4</ele><time>2026-04-26T11:20:03.989Z</time></trkpt><trkpt lat="43.41512806638785" lon="10.63926773039995"><ele>360.2</ele><time>2026-04-26T11:20:04.989Z</time></trkpt><trkpt lat="43.415034883004566" lon="10.63920648891593"><ele>359.0</ele><time>2026-04-26T11:20:05.988Z</time></trkpt><trkpt lat="43.41495611356235" lon="10.639142613447264"><ele>359.0</ele><time>2026-04-26T11:20:06.989Z</time></trkpt><trkpt lat="43.414888798795864" lon="10.63909277488356"><ele>359.0</ele><time>2026-04-26T11:20:07.989Z</time></trkpt><trkpt lat="43.4148234674453" lon="10.63904079386071"><ele>359.0</ele><time>2026-04-26T11:20:08.989Z</time></trkpt><trkpt lat="43.41475657714083" lon="10.638982651610894"><ele>359.0</ele><time>2026-04-26T11:20:09.989Z</time></trkpt><trkpt lat="43.414680679930164" lon="10.638924294807044"><ele>359.0</ele><time>2026-04-26T11:20:10.989Z</time></trkpt><trkpt lat="43.41460032966879" lon="10.638868143992134"><ele>359.0</ele><time>2026-04-26T11:20:11.989Z</time></trkpt><trkpt lat="43.414522417531046" lon="10.638804802264627"><ele>360.2</ele><time>2026-04-26T11:20:12.989Z</time></trkpt><trkpt lat="43.41445653193509" lon="10.638716618410673"><ele>361.4</ele><time>2026-04-26T11:20:13.989Z</time></trkpt><trkpt lat="43.41440342698339" lon="10.638611191271096"><ele>362.6</ele><time>2026-04-26T11:20:14.989Z</time></trkpt><trkpt lat="43.41434723720763" lon="10.63848734700543"><ele>363.8</ele><time>2026-04-26T11:20:15.989Z</time></trkpt><trkpt lat="43.41427096752334" lon="10.638391169593287"><ele>365.0</ele><time>2026-04-26T11:20:16.989Z</time></trkpt><trkpt lat="43.41417215756709" lon="10.638330548195192"><ele>365.0</ele><time>2026-04-26T11:20:17.989Z</time></trkpt><trkpt lat="43.41405761089819" lon="10.638291771142336"><ele>365.0</ele><time>2026-04-26T11:20:18.989Z</time></trkpt><trkpt lat="43.41394331628746" lon="10.638242111470028"><ele>365.0</ele><time>2026-04-26T11:20:19.989Z</time></trkpt><trkpt lat="43.41384510306465" lon="10.638160320098955"><ele>365.0</ele><time>2026-04-26T11:20:20.989Z</time></trkpt><trkpt lat="43.41376908656716" lon="10.638069299723794"><ele>364.83333333333337</ele><time>2026-04-26T11:20:21.989Z</time></trkpt><trkpt lat="43.41369786324211" lon="10.637990596683895"><ele>364.6666666666667</ele><time>2026-04-26T11:20:22.989Z</time></trkpt><trkpt lat="43.41362999278137" lon="10.637924434761747"><ele>364.5</ele><time>2026-04-26T11:20:23.989Z</time></trkpt><trkpt lat="43.41355643546139" lon="10.637882762820864"><ele>364.3333333333333</ele><time>2026-04-26T11:20:24.989Z</time></trkpt><trkpt lat="43.413478947245245" lon="10.637859576159968"><ele>364.16666666666663</ele><time>2026-04-26T11:20:25.989Z</time></trkpt><trkpt lat="43.413402764468046" lon="10.63784334302312"><ele>364.0</ele><time>2026-04-26T11:20:26.989Z</time></trkpt><trkpt lat="43.41328724564769" lon="10.63777558313971"><ele>364.0</ele><time>2026-04-26T11:20:28.989Z</time></trkpt><trkpt lat="43.413221484443575" lon="10.637747125735938"><ele>364.0</ele><time>2026-04-26T11:20:29.989Z</time></trkpt><trkpt lat="43.413155269167916" lon="10.6377383463913"><ele>364.0</ele><time>2026-04-26T11:20:30.989Z</time></trkpt><trkpt lat="43.41308443197076" lon="10.63774076276368"><ele>364.0</ele><time>2026-04-26T11:20:31.989Z</time></trkpt><trkpt lat="43.413006002708585" lon="10.63773247572385"><ele>364.0</ele><time>2026-04-26T11:20:32.989Z</time></trkpt><trkpt lat="43.41294508133254" lon="10.637692476772798"><ele>364.0</ele><time>2026-04-26T11:20:33.989Z</time></trkpt><trkpt lat="43.41289338263071" lon="10.63763727541461"><ele>364.0</ele><time>2026-04-26T11:20:34.989Z</time></trkpt><trkpt lat="43.41284883902697" lon="10.637522890629882"><ele>365.5</ele><time>2026-04-26T11:20:35.989Z</time></trkpt><trkpt lat="43.41278406565896" lon="10.637415307452137"><ele>367.0</ele><time>2026-04-26T11:20:36.989Z</time></trkpt><trkpt lat="43.41270149348659" lon="10.637309916245615"><ele>368.5</ele><time>2026-04-26T11:20:37.989Z</time></trkpt><trkpt lat="43.41263694850652" lon="10.637178358605373"><ele>370.0</ele><time>2026-04-26T11:20:38.989Z</time></trkpt><trkpt lat="43.41254666835659" lon="10.63704951423166"><ele>371.0</ele><time>2026-04-26T11:20:39.989Z</time></trkpt><trkpt lat="43.41245660556491" lon="10.636930473744366"><ele>372.0</ele><time>2026-04-26T11:20:40.989Z</time></trkpt><trkpt lat="43.412373557189945" lon="10.636808799298596"><ele>373.0</ele><time>2026-04-26T11:20:41.989Z</time></trkpt><trkpt lat="43.41229894386146" lon="10.636694701575681"><ele>374.0</ele><time>2026-04-26T11:20:42.989Z</time></trkpt><trkpt lat="43.41222635824741" lon="10.636591164675918"><ele>374.0</ele><time>2026-04-26T11:20:43.989Z</time></trkpt><trkpt lat="43.41215800045972" lon="10.636493204540113"><ele>374.0</ele><time>2026-04-26T11:20:44.989Z</time></trkpt><trkpt lat="43.4120955831874" lon="10.636383524529919"><ele>374.0</ele><time>2026-04-26T11:20:45.989Z</time></trkpt><trkpt lat="43.4120447603451" lon="10.636274855227768"><ele>374.0</ele><time>2026-04-26T11:20:46.989Z</time></trkpt><trkpt lat="43.41200359768884" lon="10.6361781329136"><ele>374.0</ele><time>2026-04-26T11:20:47.989Z</time></trkpt><trkpt lat="43.41197839305575" lon="10.636076757802428"><ele>376.2</ele><time>2026-04-26T11:20:48.989Z</time></trkpt><trkpt lat="43.41195291093448" lon="10.635949924240718"><ele>378.4</ele><time>2026-04-26T11:20:49.989Z</time></trkpt><trkpt lat="43.411928560526455" lon="10.635797318684387"><ele>380.6</ele><time>2026-04-26T11:20:50.989Z</time></trkpt><trkpt lat="43.411909518457655" lon="10.635658131376267"><ele>382.8</ele><time>2026-04-26T11:20:51.989Z</time></trkpt><trkpt lat="43.41193132886227" lon="10.635532236141655"><ele>385.0</ele><time>2026-04-26T11:20:52.989Z</time></trkpt><trkpt lat="43.41192096044941" lon="10.63540298716253"><ele>384.2</ele><time>2026-04-26T11:20:53.989Z</time></trkpt><trkpt lat="43.4118852282434" lon="10.635302816621994"><ele>383.4</ele><time>2026-04-26T11:20:54.989Z</time></trkpt><trkpt lat="43.41184822473633" lon="10.635209155117376"><ele>382.6</ele><time>2026-04-26T11:20:55.989Z</time></trkpt><trkpt lat="43.41179052201153" lon="10.635113482527592"><ele>381.8</ele><time>2026-04-26T11:20:56.989Z</time></trkpt><trkpt lat="43.41173665348854" lon="10.63498844309944"><ele>381.0</ele><time>2026-04-26T11:20:57.989Z</time></trkpt><trkpt lat="43.41165944818228" lon="10.634877383044254"><ele>381.0</ele><time>2026-04-26T11:20:58.989Z</time></trkpt><trkpt lat="43.41161242846243" lon="10.634755100962341"><ele>381.0</ele><time>2026-04-26T11:20:59.989Z</time></trkpt><trkpt lat="43.41156396378584" lon="10.634648808628095"><ele>381.0</ele><time>2026-04-26T11:21:00.989Z</time></trkpt><trkpt lat="43.411520068338305" lon="10.634557645848165"><ele>381.0</ele><time>2026-04-26T11:21:01.989Z</time></trkpt><trkpt lat="43.4114748316229" lon="10.634451261750895"><ele>381.0</ele><time>2026-04-26T11:21:02.989Z</time></trkpt><trkpt lat="43.4114377926691" lon="10.634336080499182"><ele>380.3333333333333</ele><time>2026-04-26T11:21:03.989Z</time></trkpt><trkpt lat="43.41140966202148" lon="10.634207846298239"><ele>379.6666666666667</ele><time>2026-04-26T11:21:04.989Z</time></trkpt><trkpt lat="43.41139143838435" lon="10.634097278723553"><ele>379.0</ele><time>2026-04-26T11:21:05.989Z</time></trkpt><trkpt lat="43.41138061957461" lon="10.633980937775885"><ele>378.33333333333337</ele><time>2026-04-26T11:21:06.989Z</time></trkpt><trkpt lat="43.41136651977289" lon="10.633860247373597"><ele>377.6666666666667</ele><time>2026-04-26T11:21:07.989Z</time></trkpt><trkpt lat="43.411330680105905" lon="10.633741353194932"><ele>377.0</ele><time>2026-04-26T11:21:08.989Z</time></trkpt><trkpt lat="43.41129312210781" lon="10.633634409838812"><ele>378.8</ele><time>2026-04-26T11:21:09.989Z</time></trkpt><trkpt lat="43.41125194516139" lon="10.633522028486178"><ele>380.6</ele><time>2026-04-26T11:21:10.989Z</time></trkpt><trkpt lat="43.411207987796175" lon="10.633381215438371"><ele>382.40000000000003</ele><time>2026-04-26T11:21:11.989Z</time></trkpt><trkpt lat="43.411165764423544" lon="10.633234957031233"><ele>384.20000000000005</ele><time>2026-04-26T11:21:12.989Z</time></trkpt><trkpt lat="43.411127931463916" lon="10.633105576689902"><ele>386.0</ele><time>2026-04-26T11:21:13.989Z</time></trkpt><trkpt lat="43.41109713663564" lon="10.632994211569951"><ele>386.0</ele><time>2026-04-26T11:21:14.989Z</time></trkpt><trkpt lat="43.41103582956333" lon="10.632907765156958"><ele>386.0</ele><time>2026-04-26T11:21:15.989Z</time></trkpt><trkpt lat="43.41095689854598" lon="10.632830383525375"><ele>386.0</ele><time>2026-04-26T11:21:16.989Z</time></trkpt><trkpt lat="43.41086074875508" lon="10.632771855346782"><ele>386.0</ele><time>2026-04-26T11:21:17.989Z</time></trkpt><trkpt lat="43.4107566234819" lon="10.632731939187352"><ele>386.0</ele><time>2026-04-26T11:21:18.989Z</time></trkpt><trkpt lat="43.410647054750655" lon="10.632681191527832"><ele>385.5</ele><time>2026-04-26T11:21:19.989Z</time></trkpt><trkpt lat="43.41052557425741" lon="10.632644686408073"><ele>385.0</ele><time>2026-04-26T11:21:20.989Z</time></trkpt><trkpt lat="43.410410875188084" lon="10.632567545311783"><ele>384.5</ele><time>2026-04-26T11:21:21.989Z</time></trkpt><trkpt lat="43.410310555096046" lon="10.632484309044658"><ele>384.0</ele><time>2026-04-26T11:21:22.989Z</time></trkpt><trkpt lat="43.41023376256077" lon="10.6323900987718"><ele>387.25</ele><time>2026-04-26T11:21:23.989Z</time></trkpt><trkpt lat="43.41018524355727" lon="10.63226117114461"><ele>390.5</ele><time>2026-04-26T11:21:24.989Z</time></trkpt><trkpt lat="43.41014985552045" lon="10.632105293482905"><ele>393.75</ele><time>2026-04-26T11:21:25.989Z</time></trkpt><trkpt lat="43.41009968612436" lon="10.631945579247313"><ele>397.0</ele><time>2026-04-26T11:21:26.989Z</time></trkpt><trkpt lat="43.41004279213649" lon="10.631796885134056"><ele>397.0</ele><time>2026-04-26T11:21:27.989Z</time></trkpt><trkpt lat="43.40998759396923" lon="10.631661748226406"><ele>397.0</ele><time>2026-04-26T11:21:28.989Z</time></trkpt><trkpt lat="43.4099195505621" lon="10.631567823650807"><ele>397.0</ele><time>2026-04-26T11:21:29.989Z</time></trkpt><trkpt lat="43.409849059005396" lon="10.63151117134137"><ele>397.0</ele><time>2026-04-26T11:21:30.989Z</time></trkpt><trkpt lat="43.40977109791718" lon="10.631483989054011"><ele>397.0</ele><time>2026-04-26T11:21:31.989Z</time></trkpt><trkpt lat="43.40968862878758" lon="10.631499500369003"><ele>399.5</ele><time>2026-04-26T11:21:32.989Z</time></trkpt><trkpt lat="43.40959321976839" lon="10.631549984778191"><ele>402.0</ele><time>2026-04-26T11:21:33.989Z</time></trkpt><trkpt lat="43.40948022649562" lon="10.631564494356297"><ele>404.5</ele><time>2026-04-26T11:21:34.989Z</time></trkpt><trkpt lat="43.409358766845216" lon="10.631597104734295"><ele>407.0</ele><time>2026-04-26T11:21:35.989Z</time></trkpt><trkpt lat="43.40923266729659" lon="10.631631669186577"><ele>407.0</ele><time>2026-04-26T11:21:36.989Z</time></trkpt><trkpt lat="43.40910546978889" lon="10.631666534578903"><ele>407.0</ele><time>2026-04-26T11:21:37.989Z</time></trkpt><trkpt lat="43.40897821291121" lon="10.631706542500932"><ele>407.0</ele><time>2026-04-26T11:21:38.989Z</time></trkpt><trkpt lat="43.40886093010273" lon="10.63173047892935"><ele>407.0</ele><time>2026-04-26T11:21:39.989Z</time></trkpt><trkpt lat="43.40875991018947" lon="10.631730040230835"><ele>410.25</ele><time>2026-04-26T11:21:40.989Z</time></trkpt><trkpt lat="43.40868028909853" lon="10.63166604793371"><ele>413.5</ele><time>2026-04-26T11:21:41.989Z</time></trkpt><trkpt lat="43.40858890925906" lon="10.631594515200646"><ele>416.75</ele><time>2026-04-26T11:21:42.989Z</time></trkpt><trkpt lat="43.40847068731701" lon="10.63150736293377"><ele>420.0</ele><time>2026-04-26T11:21:43.989Z</time></trkpt><trkpt lat="43.408339187184566" lon="10.631429286003792"><ele>420.0</ele><time>2026-04-26T11:21:44.989Z</time></trkpt><trkpt lat="43.40821719128649" lon="10.631350730698637"><ele>420.0</ele><time>2026-04-26T11:21:45.989Z</time></trkpt><trkpt lat="43.408113532106604" lon="10.631242227298149"><ele>420.0</ele><time>2026-04-26T11:21:46.989Z</time></trkpt><trkpt lat="43.40803110233206" lon="10.631139868564125"><ele>420.0</ele><time>2026-04-26T11:21:47.989Z</time></trkpt><trkpt lat="43.40796388306003" lon="10.631008686706048"><ele>422.5</ele><time>2026-04-26T11:21:48.989Z</time></trkpt><trkpt lat="43.407893954420494" lon="10.630849119308"><ele>425.0</ele><time>2026-04-26T11:21:49.989Z</time></trkpt><trkpt lat="43.407797227514514" lon="10.630701937617284"><ele>427.5</ele><time>2026-04-26T11:21:50.989Z</time></trkpt><trkpt lat="43.40769705358965" lon="10.630535498155085"><ele>430.0</ele><time>2026-04-26T11:21:51.989Z</time></trkpt><trkpt lat="43.40758836977293" lon="10.630367276154658"><ele>429.33333333333337</ele><time>2026-04-26T11:21:52.989Z</time></trkpt><trkpt lat="43.40748571975794" lon="10.630205706743697"><ele>428.66666666666663</ele><time>2026-04-26T11:21:53.989Z</time></trkpt><trkpt lat="43.40738992996374" lon="10.63005245269917"><ele>428.0</ele><time>2026-04-26T11:21:54.989Z</time></trkpt><trkpt lat="43.407295241501785" lon="10.629896786055324"><ele>428.0</ele><time>2026-04-26T11:21:55.989Z</time></trkpt><trkpt lat="43.40720199183968" lon="10.629738024440483"><ele>428.0</ele><time>2026-04-26T11:21:56.989Z</time></trkpt><trkpt lat="43.40711361263143" lon="10.629582378196076"><ele>428.0</ele><time>2026-04-26T11:21:57.989Z</time></trkpt><trkpt lat="43.40702132129517" lon="10.629436018326357"><ele>428.0</ele><time>2026-04-26T11:21:58.989Z</time></trkpt><trkpt lat="43.40692540787227" lon="10.629287113744054"><ele>431.0</ele><time>2026-04-26T11:21:59.989Z</time></trkpt><trkpt lat="43.40683669894397" lon="10.629133219535026"><ele>434.0</ele><time>2026-04-26T11:22:00.989Z</time></trkpt><trkpt lat="43.406747015443614" lon="10.628983614588005"><ele>437.0</ele><time>2026-04-26T11:22:01.989Z</time></trkpt><trkpt lat="43.40666290526697" lon="10.628840712226145"><ele>440.0</ele><time>2026-04-26T11:22:02.989Z</time></trkpt><trkpt lat="43.40659666080619" lon="10.628739207444774"><ele>440.0</ele><time>2026-04-26T11:22:03.989Z</time></trkpt><trkpt lat="43.40653630436215" lon="10.628683044873513"><ele>440.0</ele><time>2026-04-26T11:22:04.989Z</time></trkpt><trkpt lat="43.40645422908296" lon="10.628646815209677"><ele>440.0</ele><time>2026-04-26T11:22:05.988Z</time></trkpt><trkpt lat="43.40634366548538" lon="10.62861791269205"><ele>440.0</ele><time>2026-04-26T11:22:06.988Z</time></trkpt><trkpt lat="43.40623979327327" lon="10.628575689677225"><ele>440.0</ele><time>2026-04-26T11:22:07.988Z</time></trkpt><trkpt lat="43.40612813131968" lon="10.62855898190168"><ele>442.6</ele><time>2026-04-26T11:22:08.987Z</time></trkpt><trkpt lat="43.4060130254443" lon="10.628534354082786"><ele>445.2</ele><time>2026-04-26T11:22:09.988Z</time></trkpt><trkpt lat="43.405913856090436" lon="10.628493465977373"><ele>447.79999999999995</ele><time>2026-04-26T11:22:10.988Z</time></trkpt><trkpt lat="43.40583785047095" lon="10.628477026141185"><ele>450.4</ele><time>2026-04-26T11:22:11.988Z</time></trkpt><trkpt lat="43.40571070510512" lon="10.628434223810011"><ele>453.0</ele><time>2026-04-26T11:22:13.988Z</time></trkpt><trkpt lat="43.40563040932579" lon="10.628396210016714"><ele>453.0</ele><time>2026-04-26T11:22:14.988Z</time></trkpt><trkpt lat="43.405574649221265" lon="10.62834775281611"><ele>453.0</ele><time>2026-04-26T11:22:15.988Z</time></trkpt><trkpt lat="43.40550551599205" lon="10.628196903878909"><ele>453.0</ele><time>2026-04-26T11:22:17.988Z</time></trkpt><trkpt lat="43.4054787658346" lon="10.628051479182973"><ele>453.0</ele><time>2026-04-26T11:22:18.988Z</time></trkpt><trkpt lat="43.40542598285681" lon="10.627864079284251"><ele>457.0</ele><time>2026-04-26T11:22:19.988Z</time></trkpt><trkpt lat="43.405352771424816" lon="10.627684982912701"><ele>461.0</ele><time>2026-04-26T11:22:20.988Z</time></trkpt><trkpt lat="43.40529168419113" lon="10.627562066441516"><ele>465.0</ele><time>2026-04-26T11:22:21.988Z</time></trkpt><trkpt lat="43.40521704641614" lon="10.627482541188936"><ele>469.0</ele><time>2026-04-26T11:22:22.988Z</time></trkpt><trkpt lat="43.40511765153751" lon="10.62743010470005"><ele>469.0</ele><time>2026-04-26T11:22:23.988Z</time></trkpt><trkpt lat="43.40498620201728" lon="10.627398788688472"><ele>469.0</ele><time>2026-04-26T11:22:24.988Z</time></trkpt><trkpt lat="43.404827174196605" lon="10.627377667512514"><ele>469.0</ele><time>2026-04-26T11:22:25.988Z</time></trkpt><trkpt lat="43.40468303463884" lon="10.6273459009689"><ele>469.0</ele><time>2026-04-26T11:22:26.988Z</time></trkpt><trkpt lat="43.40457911021304" lon="10.627326025466354"><ele>467.79999999999995</ele><time>2026-04-26T11:22:27.988Z</time></trkpt><trkpt lat="43.40450091631262" lon="10.627294900041012"><ele>466.59999999999997</ele><time>2026-04-26T11:22:28.988Z</time></trkpt><trkpt lat="43.404432281911255" lon="10.627240280357784"><ele>465.4</ele><time>2026-04-26T11:22:29.988Z</time></trkpt><trkpt lat="43.40435787213754" lon="10.627153996558675"><ele>464.2</ele><time>2026-04-26T11:22:30.988Z</time></trkpt><trkpt lat="43.40425183171697" lon="10.62704136678974"><ele>463.0</ele><time>2026-04-26T11:22:31.988Z</time></trkpt><trkpt lat="43.40414366701101" lon="10.626916200327052"><ele>462.0</ele><time>2026-04-26T11:22:32.988Z</time></trkpt><trkpt lat="43.404060367048515" lon="10.626812298462644"><ele>461.0</ele><time>2026-04-26T11:22:33.988Z</time></trkpt><trkpt lat="43.403990459660136" lon="10.626709103009093"><ele>460.0</ele><time>2026-04-26T11:22:34.988Z</time></trkpt><trkpt lat="43.40391648408943" lon="10.62657237926557"><ele>459.0</ele><time>2026-04-26T11:22:35.988Z</time></trkpt><trkpt lat="43.40382752390664" lon="10.626408822220071"><ele>459.0</ele><time>2026-04-26T11:22:36.988Z</time></trkpt><trkpt lat="43.40373457459768" lon="10.626237655351861"><ele>459.0</ele><time>2026-04-26T11:22:37.988Z</time></trkpt><trkpt lat="43.40364440988459" lon="10.626065101696208"><ele>459.0</ele><time>2026-04-26T11:22:38.988Z</time></trkpt><trkpt lat="43.40354980255998" lon="10.62589427337119"><ele>464.0</ele><time>2026-04-26T11:22:39.988Z</time></trkpt><trkpt lat="43.403443884473596" lon="10.625733435033943"><ele>469.0</ele><time>2026-04-26T11:22:40.988Z</time></trkpt><trkpt lat="43.40334334110927" lon="10.625552260184278"><ele>474.0</ele><time>2026-04-26T11:22:41.988Z</time></trkpt><trkpt lat="43.40326256969874" lon="10.625405215367438"><ele>478.75</ele><time>2026-04-26T11:22:42.988Z</time></trkpt><trkpt lat="43.4032032372112" lon="10.6252822538589"><ele>483.5</ele><time>2026-04-26T11:22:43.988Z</time></trkpt><trkpt lat="43.40319806803711" lon="10.625149598095915"><ele>488.25</ele><time>2026-04-26T11:22:44.988Z</time></trkpt><trkpt lat="43.40315332893909" lon="10.624977679552451"><ele>493.0</ele><time>2026-04-26T11:22:45.988Z</time></trkpt><trkpt lat="43.40307363550714" lon="10.624786943096497"><ele>492.25</ele><time>2026-04-26T11:22:46.988Z</time></trkpt><trkpt lat="43.40299038086496" lon="10.624604790809919"><ele>491.5</ele><time>2026-04-26T11:22:47.988Z</time></trkpt><trkpt lat="43.40294698693188" lon="10.624442970039702"><ele>490.75</ele><time>2026-04-26T11:22:48.988Z</time></trkpt><trkpt lat="43.402917397536015" lon="10.624317269129754"><ele>490.0</ele><time>2026-04-26T11:22:49.988Z</time></trkpt><trkpt lat="43.402888938556494" lon="10.624179851882364"><ele>490.0</ele><time>2026-04-26T11:22:50.988Z</time></trkpt><trkpt lat="43.40286068965446" lon="10.624025266006928"><ele>490.0</ele><time>2026-04-26T11:22:51.988Z</time></trkpt><trkpt lat="43.40282500623971" lon="10.623882549512045"><ele>490.0</ele><time>2026-04-26T11:22:52.988Z</time></trkpt><trkpt lat="43.402809018715345" lon="10.623737940962371"><ele>490.0</ele><time>2026-04-26T11:22:53.988Z</time></trkpt><trkpt lat="43.40278688621036" lon="10.62359978920913"><ele>490.0</ele><time>2026-04-26T11:22:54.988Z</time></trkpt><trkpt lat="43.40276907218714" lon="10.623437964075137"><ele>490.0</ele><time>2026-04-26T11:22:55.988Z</time></trkpt><trkpt lat="43.40277007884918" lon="10.623285349901343"><ele>490.0</ele><time>2026-04-26T11:22:56.988Z</time></trkpt><trkpt lat="43.40278407855949" lon="10.623145694693461"><ele>490.0</ele><time>2026-04-26T11:22:57.988Z</time></trkpt><trkpt lat="43.40281361641577" lon="10.623000835747602"><ele>490.0</ele><time>2026-04-26T11:22:58.988Z</time></trkpt><trkpt lat="43.40285439237229" lon="10.62284365380663"><ele>490.0</ele><time>2026-04-26T11:22:59.988Z</time></trkpt><trkpt lat="43.40291602166156" lon="10.62270243589435"><ele>490.25</ele><time>2026-04-26T11:23:00.988Z</time></trkpt><trkpt lat="43.402968734653264" lon="10.622543059810557"><ele>490.5</ele><time>2026-04-26T11:23:01.988Z</time></trkpt><trkpt lat="43.40299254599923" lon="10.622382844791714"><ele>490.75</ele><time>2026-04-26T11:23:02.988Z</time></trkpt><trkpt lat="43.402999737447225" lon="10.622211490521915"><ele>491.0</ele><time>2026-04-26T11:23:03.988Z</time></trkpt><trkpt lat="43.40300452875681" lon="10.62203051191146"><ele>491.5</ele><time>2026-04-26T11:23:04.988Z</time></trkpt><trkpt lat="43.40298839751292" lon="10.621847427850682"><ele>492.0</ele><time>2026-04-26T11:23:05.988Z</time></trkpt><trkpt lat="43.40296856592612" lon="10.621658257882602"><ele>492.5</ele><time>2026-04-26T11:23:06.988Z</time></trkpt><trkpt lat="43.402956914981324" lon="10.621473156628262"><ele>493.0</ele><time>2026-04-26T11:23:07.988Z</time></trkpt><trkpt lat="43.40294897741825" lon="10.621294901329481"><ele>494.0</ele><time>2026-04-26T11:23:08.988Z</time></trkpt><trkpt lat="43.402942442777984" lon="10.621129556147782"><ele>494.99999999999994</ele><time>2026-04-26T11:23:09.988Z</time></trkpt><trkpt lat="43.40293246410161" lon="10.62096926931927"><ele>495.99999999999994</ele><time>2026-04-26T11:23:10.988Z</time></trkpt><trkpt lat="43.40290851669831" lon="10.620823111696373"><ele>497.0</ele><time>2026-04-26T11:23:11.988Z</time></trkpt><trkpt lat="43.40286599384843" lon="10.620693394282176"><ele>498.0</ele><time>2026-04-26T11:23:12.988Z</time></trkpt><trkpt lat="43.40280847072803" lon="10.620566985164283"><ele>498.0</ele><time>2026-04-26T11:23:13.988Z</time></trkpt><trkpt lat="43.40274064044797" lon="10.62042781053145"><ele>498.0</ele><time>2026-04-26T11:23:14.988Z</time></trkpt><trkpt lat="43.40267209478492" lon="10.620289664076397"><ele>498.0</ele><time>2026-04-26T11:23:15.988Z</time></trkpt><trkpt lat="43.40260512297813" lon="10.620156252069716"><ele>498.0</ele><time>2026-04-26T11:23:16.988Z</time></trkpt><trkpt lat="43.402525732979996" lon="10.620034261159727"><ele>498.5</ele><time>2026-04-26T11:23:17.988Z</time></trkpt><trkpt lat="43.40243371972991" lon="10.61991516645516"><ele>499.0</ele><time>2026-04-26T11:23:18.988Z</time></trkpt><trkpt lat="43.402334049781516" lon="10.619807907762713"><ele>499.5</ele><time>2026-04-26T11:23:19.988Z</time></trkpt><trkpt lat="43.40222304146633" lon="10.619709809837422"><ele>500.0</ele><time>2026-04-26T11:23:20.988Z</time></trkpt><trkpt lat="43.40209871670475" lon="10.61961969878097"><ele>505.66666666666663</ele><time>2026-04-26T11:23:21.988Z</time></trkpt><trkpt lat="43.401956012318216" lon="10.619541633463342"><ele>511.33333333333337</ele><time>2026-04-26T11:23:22.988Z</time></trkpt><trkpt lat="43.40181731871581" lon="10.619454751324609"><ele>517.0</ele><time>2026-04-26T11:23:23.988Z</time></trkpt><trkpt lat="43.40169024234941" lon="10.61935839722425"><ele>517.0</ele><time>2026-04-26T11:23:24.988Z</time></trkpt><trkpt lat="43.40157345911757" lon="10.619264047766087"><ele>517.0</ele><time>2026-04-26T11:23:25.988Z</time></trkpt><trkpt lat="43.401467773741395" lon="10.619189922514192"><ele>517.0</ele><time>2026-04-26T11:23:26.988Z</time></trkpt><trkpt lat="43.40136753598966" lon="10.619149130284615"><ele>517.0</ele><time>2026-04-26T11:23:27.988Z</time></trkpt><trkpt lat="43.40127595786954" lon="10.619142930677585"><ele>520.0</ele><time>2026-04-26T11:23:28.988Z</time></trkpt><trkpt lat="43.40118352000544" lon="10.619172624455734"><ele>523.0</ele><time>2026-04-26T11:23:29.988Z</time></trkpt><trkpt lat="43.4010804591388" lon="10.619238855157286"><ele>526.0</ele><time>2026-04-26T11:23:30.988Z</time></trkpt><trkpt lat="43.4009671930811" lon="10.619303216612174"><ele>529.0</ele><time>2026-04-26T11:23:31.988Z</time></trkpt><trkpt lat="43.400841046731415" lon="10.619267132490592"><ele>529.0</ele><time>2026-04-26T11:23:32.988Z</time></trkpt><trkpt lat="43.40068943408849" lon="10.619255681041057"><ele>529.0</ele><time>2026-04-26T11:23:33.988Z</time></trkpt><trkpt lat="43.4005392725465" lon="10.619230234428802"><ele>529.0</ele><time>2026-04-26T11:23:34.988Z</time></trkpt><trkpt lat="43.40041928086019" lon="10.619167574242297"><ele>529.0</ele><time>2026-04-26T11:23:35.988Z</time></trkpt><trkpt lat="43.40031606438968" lon="10.61907762103852"><ele>531.0</ele><time>2026-04-26T11:23:36.988Z</time></trkpt><trkpt lat="43.40020088897124" lon="10.618984214279687"><ele>533.0</ele><time>2026-04-26T11:23:37.988Z</time></trkpt><trkpt lat="43.40008718183907" lon="10.618891998379622"><ele>535.0</ele><time>2026-04-26T11:23:38.988Z</time></trkpt><trkpt lat="43.39996700713368" lon="10.618820459320936"><ele>537.0</ele><time>2026-04-26T11:23:39.988Z</time></trkpt><trkpt lat="43.399867339460826" lon="10.618742140709134"><ele>537.0</ele><time>2026-04-26T11:23:40.988Z</time></trkpt><trkpt lat="43.39978422839867" lon="10.61867231846589"><ele>537.0</ele><time>2026-04-26T11:23:41.988Z</time></trkpt><trkpt lat="43.39971401208114" lon="10.618627883552062"><ele>537.0</ele><time>2026-04-26T11:23:42.988Z</time></trkpt><trkpt lat="43.39966066694572" lon="10.618574425355568"><ele>537.0</ele><time>2026-04-26T11:23:43.988Z</time></trkpt><trkpt lat="43.399582757760356" lon="10.618504777608774"><ele>537.0</ele><time>2026-04-26T11:23:45.988Z</time></trkpt><trkpt lat="43.39951498997804" lon="10.618462927614557"><ele>537.0</ele><time>2026-04-26T11:23:48.988Z</time></trkpt><trkpt lat="43.39948237152966" lon="10.61876807887781"><ele>536.2</ele><time>2026-04-26T11:23:53.988Z</time></trkpt><trkpt lat="43.39946689547054" lon="10.618941900468885"><ele>535.4000000000001</ele><time>2026-04-26T11:23:54.988Z</time></trkpt><trkpt lat="43.39945697747538" lon="10.619093830522043"><ele>534.5999999999999</ele><time>2026-04-26T11:23:55.988Z</time></trkpt><trkpt lat="43.399446520998886" lon="10.619237250764161"><ele>533.8</ele><time>2026-04-26T11:23:56.988Z</time></trkpt><trkpt lat="43.399434383972206" lon="10.619375920447752"><ele>533.0</ele><time>2026-04-26T11:23:57.988Z</time></trkpt><trkpt lat="43.399415635230156" lon="10.619520052725404"><ele>533.0</ele><time>2026-04-26T11:23:58.988Z</time></trkpt><trkpt lat="43.399383456056086" lon="10.619642219174816"><ele>533.0</ele><time>2026-04-26T11:23:59.988Z</time></trkpt><trkpt lat="43.39933069867936" lon="10.619751786818025"><ele>533.0</ele><time>2026-04-26T11:24:00.988Z</time></trkpt><trkpt lat="43.39928438918125" lon="10.61986117521438"><ele>533.0</ele><time>2026-04-26T11:24:01.988Z</time></trkpt><trkpt lat="43.399242682256876" lon="10.619966127274978"><ele>533.0</ele><time>2026-04-26T11:24:02.988Z</time></trkpt><trkpt lat="43.39919915408325" lon="10.62008869137789"><ele>533.0</ele><time>2026-04-26T11:24:03.988Z</time></trkpt><trkpt lat="43.39913277568819" lon="10.620195187531543"><ele>533.0</ele><time>2026-04-26T11:24:04.988Z</time></trkpt><trkpt lat="43.39908501703358" lon="10.62031467203652"><ele>533.0</ele><time>2026-04-26T11:24:05.988Z</time></trkpt><trkpt lat="43.39902645128052" lon="10.620399874229324"><ele>533.0</ele><time>2026-04-26T11:24:06.988Z</time></trkpt><trkpt lat="43.39897218045425" lon="10.620476580406239"><ele>533.0</ele><time>2026-04-26T11:24:07.988Z</time></trkpt><trkpt lat="43.39892545859484" lon="10.620562765387367"><ele>533.0</ele><time>2026-04-26T11:24:08.988Z</time></trkpt><trkpt lat="43.39887127821033" lon="10.620668514129123"><ele>533.6</ele><time>2026-04-26T11:24:09.988Z</time></trkpt><trkpt lat="43.398823488561966" lon="10.620776766428367"><ele>534.1999999999999</ele><time>2026-04-26T11:24:10.988Z</time></trkpt><trkpt lat="43.39878013338565" lon="10.620881402836657"><ele>534.8</ele><time>2026-04-26T11:24:11.986Z</time></trkpt><trkpt lat="43.39874494763841" lon="10.62099369554717"><ele>535.4</ele><time>2026-04-26T11:24:12.987Z</time></trkpt><trkpt lat="43.39872962277934" lon="10.621115142232776"><ele>536.0</ele><time>2026-04-26T11:24:13.987Z</time></trkpt><trkpt lat="43.39873405231683" lon="10.621249614805825"><ele>536.0</ele><time>2026-04-26T11:24:14.986Z</time></trkpt><trkpt lat="43.398750677755096" lon="10.621389132884628"><ele>536.0</ele><time>2026-04-26T11:24:15.986Z</time></trkpt><trkpt lat="43.39877155181965" lon="10.621488972597248"><ele>536.0</ele><time>2026-04-26T11:24:16.986Z</time></trkpt><trkpt lat="43.39877864719936" lon="10.62157971405845"><ele>536.0</ele><time>2026-04-26T11:24:17.987Z</time></trkpt><trkpt lat="43.398755841363254" lon="10.621668616450778"><ele>536.0</ele><time>2026-04-26T11:24:18.986Z</time></trkpt><trkpt lat="43.39867885997884" lon="10.621736405096081"><ele>536.0</ele><time>2026-04-26T11:24:19.986Z</time></trkpt><trkpt lat="43.39862807641892" lon="10.621830258305515"><ele>536.0</ele><time>2026-04-26T11:24:20.986Z</time></trkpt><trkpt lat="43.39858741814445" lon="10.621925649021456"><ele>536.0</ele><time>2026-04-26T11:24:21.986Z</time></trkpt><trkpt lat="43.39854376418771" lon="10.621995179686357"><ele>536.0</ele><time>2026-04-26T11:24:22.986Z</time></trkpt><trkpt lat="43.39849129269114" lon="10.622117831112915"><ele>536.0</ele><time>2026-04-26T11:24:24.986Z</time></trkpt><trkpt lat="43.398447196162664" lon="10.622232255202068"><ele>536.0</ele><time>2026-04-26T11:24:26.986Z</time></trkpt><trkpt lat="43.39843047776341" lon="10.622380401959013"><ele>536.0</ele><time>2026-04-26T11:24:28.986Z</time></trkpt><trkpt lat="43.398433660263855" lon="10.622498337927567"><ele>536.0</ele><time>2026-04-26T11:24:29.986Z</time></trkpt><trkpt lat="43.39844101877761" lon="10.622623542457358"><ele>536.0</ele><time>2026-04-26T11:24:30.986Z</time></trkpt><trkpt lat="43.398442141951264" lon="10.622753951834436"><ele>536.0</ele><time>2026-04-26T11:24:31.986Z</time></trkpt><trkpt lat="43.39843059629329" lon="10.622842282483434"><ele>536.0</ele><time>2026-04-26T11:24:32.986Z</time></trkpt><trkpt lat="43.39842162170692" lon="10.622936530918745"><ele>536.0</ele><time>2026-04-26T11:24:33.986Z</time></trkpt><trkpt lat="43.39840355795812" lon="10.623026588362054"><ele>535.6666666666666</ele><time>2026-04-26T11:24:34.986Z</time></trkpt><trkpt lat="43.398355632883344" lon="10.62309808718215"><ele>535.3333333333333</ele><time>2026-04-26T11:24:35.986Z</time></trkpt><trkpt lat="43.39830890511185" lon="10.623186294454245"><ele>535.0</ele><time>2026-04-26T11:24:36.986Z</time></trkpt><trkpt lat="43.39825762358485" lon="10.62328159438225"><ele>534.6666666666666</ele><time>2026-04-26T11:24:37.986Z</time></trkpt><trkpt lat="43.39820811091821" lon="10.623369851633848"><ele>534.3333333333334</ele><time>2026-04-26T11:24:38.986Z</time></trkpt><trkpt lat="43.39813620637751" lon="10.623492830308473"><ele>534.0</ele><time>2026-04-26T11:24:40.986Z</time></trkpt><trkpt lat="43.39806712796587" lon="10.623565136189638"><ele>533.8</ele><time>2026-04-26T11:24:42.986Z</time></trkpt><trkpt lat="43.397915687217605" lon="10.623517512491736"><ele>533.5999999999999</ele><time>2026-04-26T11:24:45.986Z</time></trkpt><trkpt lat="43.39785365450167" lon="10.623457459051597"><ele>533.4</ele><time>2026-04-26T11:24:47.986Z</time></trkpt><trkpt lat="43.397889893446184" lon="10.623566394863397"><ele>533.1999999999999</ele><time>2026-04-26T11:24:57.986Z</time></trkpt><trkpt lat="43.39798293821033" lon="10.62361888478761"><ele>533.0</ele><time>2026-04-26T11:24:59.986Z</time></trkpt><trkpt lat="43.39801071318031" lon="10.623734220160781"><ele>532.8</ele><time>2026-04-26T11:25:02.986Z</time></trkpt><trkpt lat="43.398015419904965" lon="10.623919114702263"><ele>532.5999999999999</ele><time>2026-04-26T11:25:04.986Z</time></trkpt><trkpt lat="43.39802213781783" lon="10.624007329216285"><ele>532.4000000000001</ele><time>2026-04-26T11:25:05.986Z</time></trkpt><trkpt lat="43.39805961002351" lon="10.624137564746324"><ele>532.2</ele><time>2026-04-26T11:25:07.986Z</time></trkpt><trkpt lat="43.39808242099667" lon="10.624247507773685"><ele>532.0</ele><time>2026-04-26T11:25:09.986Z</time></trkpt><trkpt lat="43.39810208832738" lon="10.624366400455806"><ele>532.0</ele><time>2026-04-26T11:25:12.986Z</time></trkpt><trkpt lat="43.39814097562808" lon="10.624459578882085"><ele>532.0</ele><time>2026-04-26T11:25:14.986Z</time></trkpt><trkpt lat="43.39818364914324" lon="10.624580987519263"><ele>532.0</ele><time>2026-04-26T11:25:16.986Z</time></trkpt><trkpt lat="43.39823764936405" lon="10.624676582510432"><ele>532.0</ele><time>2026-04-26T11:25:18.986Z</time></trkpt><trkpt lat="43.398298875093865" lon="10.624736257848058"><ele>532.0</ele><time>2026-04-26T11:25:20.986Z</time></trkpt><trkpt lat="43.398385520765764" lon="10.624721140265102"><ele>532.0</ele><time>2026-04-26T11:25:23.986Z</time></trkpt><trkpt lat="43.39846058780358" lon="10.624686738678877"><ele>528.0</ele><time>2026-04-26T11:25:31.986Z</time></trkpt></trkseg></trk></gpx>